[[{"header":{"parameterUnit":"m.s-1","parameterCategory":1,"la1":31.0,"la2":29.5877,"lo1":-88.7671,"lo2":-86.6584,"dy":0.0162,"dx":0.0185,"nx":115,"ny":88,"refTime":"2023-09-30T18:00:00:Z","depth":0,"parameterNumber":2,"parameterNumberName":"U-component_of_WINDS"},"data":[0.0,0.0,0.0,0.0,0.0,0.0,0.0,0.0,0.0,0.0,0.0,0.0,0.0,0.0,0.0,0.0,0.0,0.0,0.0,0.0,0.0,0.0,0.0,0.0,0.0,0.0,0.0,0.0,0.0,0.0,0.0,0.0,0.0,0.0,0.0,0.0,0.0,0.0,0.0,0.0,0.0,0.0,0.0,0.0,0.0,0.0,0.0,0.0,0.0,0.0,0.0,0.0,0.0,0.0,0.0,0.0,0.0,0.0,0.0,0.0,0.0,0.0,0.0,0.0,0.0,0.0,0.0,0.0,0.0,0.0,0.0,0.0,0.0,0.0,0.0,0.0,0.0,0.0,0.0,0.0,0.0,0.0,0.0,0.0,0.0,0.0,0.0,0.0,0.0,0.0,0.0,0.0,0.0,0.0,0.0,0.0,0.0,0.0,0.0,0.0,0.0,0.0,0.0,0.0,0.0,0.0,0.0,0.0,0.0,0.0,0.0,0.0,0.0,0.0,0.0,0.0,0.0,0.0,0.0,0.0,0.0,0.0,0.0,0.0,0.0,0.0,0.0,0.0,0.0,0.0,0.0,0.0,0.0,0.0,0.0,0.0,0.0,0.0,0.0,0.0,0.0,0.0,0.0,0.0,0.0,0.0,0.0,0.0,0.0,0.0,0.0,0.0,0.0,0.0,0.0,0.0,0.0,0.0,0.0,0.0,0.0,0.0,0.0,0.0,0.0,0.0,0.0,0.0,0.0,0.0,0.0,0.0,0.0,0.0,0.0,0.0,0.0,0.0,0.0,0.0,0.0,0.0,0.0,0.0,0.0,0.0,0.0,0.0,0.0,0.0,0.0,0.0,0.0,0.0,0.0,0.0,0.0,0.0,0.0,0.0,0.0,0.0,0.0,0.0,0.0,0.0,0.0,0.0,0.0,0.0,0.0,0.0,0.0,0.0,0.0,0.0,0.0,0.0,0.0,0.0,0.0,0.0,0.0,0.0,0.0,0.0,0.0,0.0,0.0,0.0,0.0,0.0,0.0,0.0,0.0,0.0,0.0,0.0,0.0,0.0,0.0,0.0,0.0,0.0,0.0,0.0,0.0,0.0,0.0,0.0,0.0,0.0,0.0,0.0,0.0,0.0,0.0,0.0,0.0,0.0,0.0,0.0,0.0,0.0,0.0,0.0,0.0,0.0,0.0,0.0,0.0,0.0,0.0,0.0,0.0,0.0,0.0,0.0,0.0,0.0,0.0,0.0,0.0,0.0,0.0,0.0,0.0,0.0,0.0,0.0,0.0,0.0,0.0,0.0,0.0,0.0,0.0,0.0,0.0,0.0,0.0,0.0,0.0,0.0,0.0,0.0,0.0,0.0,0.0,0.0,0.0,0.0,0.0,0.0,0.0,0.0,0.0,0.0,0.0,0.0,0.0,0.0,0.0,0.0,0.0,0.0,0.0,0.0,0.0,0.0,0.0,0.0,0.0,0.0,0.0,0.0,0.0,0.0,0.0,0.0,0.0,0.0,0.0,0.0,0.0,0.0,0.0,0.0,0.0,0.0,0.0,0.0,0.0,0.0,0.0,0.0,0.0,0.0,0.0,0.0,0.0,0.0,0.0,0.0,0.0,0.0,0.0,0.0,0.0,0.0,0.0,0.0,0.0,0.0,0.0,0.0,0.0,0.0,0.0,0.0,0.0,0.0,0.0,0.0,0.0,0.0,0.0,0.0,0.0,0.0,0.0,0.0,0.0,0.0,0.0,0.0,0.0,0.0,0.0,0.0,0.0,0.0,0.0,0.0,0.0,0.0,0.0,0.0,0.0,0.0,0.0,0.0,0.0,0.0,0.0,0.0,0.0,0.0,0.0,0.0,0.0,0.0,0.0,0.0,0.0,0.0,0.0,0.0,0.0,0.0,0.0,0.0,0.0,0.0,0.0,0.0,0.0,0.0,0.0,0.0,0.0,0.0,0.0,0.0,0.0,0.0,0.0,0.0,0.0,0.0,0.0,0.0,0.0,0.0,0.0,0.0,0.0,0.0,0.0,0.0,0.0,0.0,0.0,0.0,0.0,0.0,0.0,0.0,0.0,0.0,0.0,0.0,0.0,0.0,0.0,0.0,0.0,0.0,0.0,0.0,0.0,0.0,0.0,0.0,0.0,0.0,0.0,0.0,0.0,0.0,0.0,0.0,0.0,0.0,0.0,0.0,0.0,0.0,0.0,0.0,0.0,0.0,0.0,0.0,0.0,0.0,0.0,0.0,0.0,0.0,0.0,0.0,0.0,0.0,0.0,0.0,0.0,0.0,0.0,0.0,0.0,0.0,0.0,0.0,0.0,0.0,0.0,0.0,0.0,0.0,0.0,0.0,0.0,0.0,0.0,0.0,0.0,0.0,0.0,0.0,0.0,0.0,0.0,0.0,0.0,0.0,0.0,0.0,0.0,0.0,0.0,0.0,0.0,0.0,0.0,0.0,0.0,0.0,0.0,0.0,0.0,0.0,0.0,0.0,0.0,0.0,0.0,0.0,0.0,0.0,0.0,0.0,0.0,0.0,0.0,0.0,0.0,0.0,0.0,0.0,0.0,0.0,0.0,0.0,0.0,0.0,0.0,0.0,0.0,0.0,0.0,0.0,0.0,0.0,0.0,0.0,0.0,0.0,0.0,0.0,0.0,0.0,0.0,0.0,0.0,0.0,0.0,0.0,0.0,0.0,0.0,0.0,0.0,0.0,0.0,0.0,0.0,0.0,0.0,0.0,0.0,0.0,0.0,0.0,0.0,0.0,0.0,0.0,0.0,0.0,0.0,0.0,0.0,0.0,0.0,0.0,0.0,0.0,0.0,0.0,0.0,0.0,0.0,0.0,0.0,0.0,0.0,0.0,0.0,0.0,0.0,0.0,0.0,0.0,0.0,0.0,0.0,0.0,0.0,0.0,0.0,0.0,0.0,0.0,0.0,0.0,0.0,0.0,0.0,0.0,0.0,0.0,0.0,0.0,0.0,0.0,0.0,0.0,0.0,0.0,0.0,0.0,0.0,0.0,0.0,0.0,0.0,0.0,0.0,0.0,0.0,0.0,0.0,0.0,0.0,0.0,0.0,0.0,0.0,0.0,0.0,0.0,0.0,0.0,0.0,0.0,0.0,0.0,0.0,0.0,0.0,0.0,0.0,0.0,0.0,0.0,0.0,0.0,0.0,0.0,0.0,0.0,0.0,0.0,0.0,0.0,0.0,0.0,0.0,0.0,0.0,0.0,0.0,0.0,0.0,0.0,0.0,0.0,0.0,0.0,0.0,0.0,0.0,0.0,0.0,0.0,0.0,0.0,0.0,0.0,0.0,0.0,0.0,0.0,0.0,0.0,0.0,0.0,0.0,0.0,0.0,0.0,0.0,0.0,0.0,0.0,0.0,0.0,0.0,0.0,0.0,0.0,0.0,0.0,0.0,0.0,0.0,0.0,0.0,0.0,0.0,0.0,0.0,0.0,0.0,0.0,0.0,0.0,0.0,0.0,0.0,0.0,0.0,0.0,0.0,0.0,0.0,0.0,0.0,0.0,0.0,0.0,0.0,0.0,0.0,0.0,0.0,0.0,0.0,0.0,0.0,0.0,0.0,0.0,0.0,0.0,0.0,0.0,0.0,0.0,0.0,0.0,0.0,0.0,0.0,0.0,0.0,0.0,0.0,0.0,0.0,0.0,0.0,0.0,0.0,0.0,0.0,0.0,0.0,0.0,0.0,0.0,0.0,0.0,0.0,0.0,0.0,0.0,0.0,0.0,0.0,0.0,0.0,0.0,0.0,0.0,0.0,0.0,0.0,0.0,0.0,0.0,0.0,0.0,0.0,0.0,0.0,0.0,0.0,0.0,0.0,0.0,0.0,0.0,0.0,0.0,0.0,0.0,0.0,0.0,0.0,0.0,0.0,0.0,0.0,0.0,0.0,0.0,0.0,0.0,0.0,0.0,0.0,0.0,0.0,0.0,0.0,0.0,0.0,0.0,0.0,0.0,0.0,0.0,0.0,0.0,0.0,0.0,0.0,0.0,0.0,0.0,0.0,0.0,0.0,0.0,0.0,0.0,0.0,0.0,0.0,0.0,0.0,0.0,0.0,0.0,0.0,0.0,0.0,0.0,0.0,0.0,0.0,0.0,0.0,0.0,0.0,0.0,0.0,0.0,0.0,0.0,0.0,0.0,0.0,0.0,0.0,0.0,0.0,0.0,0.0,0.0,0.0,0.0,0.0,0.0,0.0,0.0,0.0,0.0,0.0,0.0,0.0,0.0,0.0,0.0,1.3325,0.0,0.0,0.0,0.0,0.0,0.0,0.0,0.0,0.0,0.0,0.0,0.0,0.0,0.0,0.0,0.0,0.0,0.0,0.0,0.0,0.0,0.0,0.0,0.0,0.0,0.0,0.0,0.0,0.0,0.0,0.0,0.0,0.0,0.0,0.0,0.0,0.0,0.0,0.0,0.0,0.0,0.0,0.0,0.0,0.0,0.0,0.0,0.0,0.0,0.0,0.0,0.0,0.0,0.0,0.0,0.0,0.0,0.0,0.0,0.0,0.0,0.0,0.0,0.0,0.0,0.0,0.0,0.0,0.0,0.0,0.0,0.0,0.0,0.0,0.0,0.0,0.0,0.0,0.0,0.0,0.0,0.0,0.0,0.0,0.0,0.0,0.0,0.0,0.0,0.0,0.0,0.0,0.0,0.0,0.0,0.0,0.0,0.0,0.0,0.0,0.0,0.0,0.0,0.0,0.0,0.0,0.0,0.0,0.0,0.0,1.465,1.4232,1.4084,1.3996,1.3878,0.0,0.0,0.0,0.0,0.0,0.0,0.0,0.0,0.0,0.0,0.0,0.0,0.0,0.0,0.0,0.0,0.0,0.0,0.0,0.0,0.0,0.0,0.0,0.0,0.0,0.0,0.0,0.0,0.0,0.0,0.0,0.0,0.0,0.0,0.0,0.0,0.0,0.0,0.0,0.0,0.0,0.0,0.0,0.0,0.0,0.0,0.0,0.0,0.0,0.0,0.0,0.0,0.0,0.0,0.0,0.0,0.0,0.0,0.0,0.0,0.0,0.0,0.0,0.0,0.0,0.0,0.0,0.0,0.0,0.0,0.0,0.0,0.0,0.0,0.0,0.0,0.0,0.0,0.0,0.0,0.0,0.0,0.0,0.0,0.0,0.0,0.0,0.0,0.0,0.0,0.0,0.0,0.0,0.0,0.0,0.0,0.0,0.0,0.0,0.0,0.0,0.0,0.0,0.0,0.0,0.0,0.0,0.0,0.0,0.0,0.0,0.0,1.459,1.4519,1.4306,0.0,0.0,0.0,0.0,0.0,0.0,0.0,0.0,0.0,0.0,0.0,0.0,0.0,0.0,0.0,0.0,0.0,0.0,0.0,0.0,0.0,0.0,0.0,0.0,0.0,0.0,0.0,0.0,0.0,0.0,0.0,0.0,0.0,0.0,0.0,0.0,0.0,0.0,0.0,0.0,0.0,0.0,0.0,0.0,0.0,0.0,0.0,0.0,0.0,0.0,0.0,0.0,0.0,0.0,0.0,0.0,0.0,0.0,0.0,0.0,0.0,0.0,0.0,0.0,0.0,0.0,0.0,0.0,0.0,0.0,0.0,0.0,0.0,0.0,0.0,0.0,0.0,0.0,0.0,0.0,0.0,0.0,0.0,0.0,0.0,0.0,0.0,0.0,0.0,0.0,0.0,0.0,0.0,0.0,0.0,0.0,0.0,0.0,0.0,0.0,0.0,0.0,0.0,0.0,0.0,0.0,0.0,0.0,0.0,0.0,1.4937,1.459,1.459,0.0,1.4287,0.0,0.0,0.0,0.0,0.0,0.0,0.0,0.0,0.0,0.0,0.0,0.0,0.0,0.0,0.0,0.0,0.0,0.0,0.0,0.0,0.0,0.0,0.0,0.0,0.0,0.0,0.0,0.0,0.0,0.0,0.0,0.0,0.0,0.0,0.0,0.0,0.0,0.0,0.0,0.0,0.0,0.0,0.0,0.0,0.0,0.0,0.0,0.0,0.0,0.0,0.0,0.0,0.0,0.0,0.0,0.0,0.0,0.0,0.0,0.0,0.0,0.0,0.0,0.0,0.0,0.0,0.0,0.0,0.0,0.0,0.0,0.0,0.0,0.0,0.0,0.0,0.0,0.0,0.0,0.0,0.0,0.0,0.0,0.0,0.0,0.0,0.0,0.0,0.0,0.0,0.0,0.0,0.0,0.0,0.0,0.0,0.0,0.0,0.0,0.0,0.0,0.0,0.0,0.0,0.0,0.0,0.0,0.0,0.0,0.0,1.5324,1.5186,1.5186,1.5081,0.0,0.0,0.0,0.0,0.0,0.0,0.0,0.0,0.0,0.0,0.0,0.0,0.0,0.0,0.0,0.0,0.0,0.0,0.0,0.0,0.0,0.0,0.0,0.0,0.0,0.0,0.0,0.0,0.0,0.0,0.0,0.0,0.0,0.0,0.0,0.0,0.0,0.0,0.0,0.0,0.0,0.0,0.0,0.0,0.0,0.0,0.0,0.0,0.0,0.0,0.0,0.0,0.0,0.0,0.0,0.0,0.0,0.0,0.0,0.0,0.0,0.0,0.0,0.0,0.0,0.0,0.0,0.0,0.0,0.0,0.0,0.0,0.0,0.0,0.0,0.0,0.0,0.0,0.0,0.0,0.0,0.0,0.0,0.0,0.0,0.0,0.0,0.0,0.0,0.0,0.0,0.0,0.0,0.0,0.0,0.0,0.0,0.0,0.0,0.0,0.0,0.0,0.0,0.0,0.0,0.0,0.0,0.0,0.0,0.0,1.5601,1.5601,1.5601,1.5601,1.5515,1.5285,0.0,0.0,0.0,0.0,0.0,0.0,0.0,0.0,0.0,0.0,0.0,0.0,0.0,0.0,0.0,0.0,0.0,0.0,0.0,0.0,0.0,0.0,0.0,0.0,0.0,0.0,0.0,0.0,0.0,0.0,0.0,0.0,0.0,0.0,0.0,0.0,0.0,0.0,0.0,0.0,0.0,0.0,0.0,0.0,0.0,0.0,0.0,0.0,0.0,0.0,0.0,0.0,0.0,0.0,0.0,0.0,0.0,0.0,0.0,0.0,0.0,0.0,0.0,0.0,0.0,0.0,0.0,0.0,0.0,0.0,0.0,0.0,0.0,0.0,0.0,0.0,0.0,0.0,0.0,0.0,0.0,0.0,0.0,0.0,0.0,0.0,0.0,0.0,0.0,0.0,0.0,0.0,0.0,0.0,0.0,0.0,0.0,0.0,0.0,0.0,0.0,0.0,0.0,0.0,0.0,0.0,0.0,0.0,1.5601,1.5601,1.5601,1.5601,1.5601,1.5591,0.0,0.0,0.0,0.0,0.0,0.0,0.0,0.0,0.0,0.0,0.0,0.0,0.0,0.0,0.0,0.0,0.0,0.0,0.0,0.0,0.0,0.0,0.0,0.0,0.0,0.0,0.0,0.0,0.0,0.0,0.0,0.0,0.0,0.0,0.0,0.0,0.0,0.0,0.0,0.0,0.0,0.0,0.0,0.0,0.0,0.0,0.0,0.0,0.0,0.0,0.0,0.0,0.0,0.0,0.0,0.0,0.0,0.0,0.0,0.0,0.0,0.0,0.0,0.0,0.0,0.0,0.0,0.0,0.0,0.0,0.0,0.0,0.0,0.0,0.0,0.0,0.0,0.0,0.0,0.0,0.0,0.0,0.0,0.0,0.0,0.0,0.0,0.0,0.0,0.0,0.0,0.0,0.0,0.0,0.0,0.0,0.0,0.0,0.0,0.0,0.0,0.0,0.0,0.0,0.0,0.0,0.0,0.0,0.0,1.5601,1.5601,1.5601,1.5601,1.5601,1.5601,0.0,0.0,0.0,0.0,0.0,0.0,0.0,0.0,0.0,0.0,0.0,0.0,0.0,0.0,0.0,0.0,0.0,0.0,0.0,0.0,0.0,0.0,0.0,0.0,0.0,0.0,0.0,0.0,0.0,0.0,0.0,0.0,0.0,0.0,0.0,0.0,0.0,0.0,0.0,0.0,0.0,0.0,0.0,0.0,0.0,0.0,0.0,0.0,0.0,0.0,0.0,0.0,0.0,0.0,0.0,0.0,0.0,0.0,0.0,0.0,0.0,0.0,0.0,0.0,0.0,0.0,0.0,0.0,0.0,0.0,0.0,0.0,0.0,0.0,0.0,0.0,0.0,0.0,0.0,0.0,0.0,0.0,0.0,0.0,0.0,0.0,0.0,0.0,0.0,0.0,0.0,0.0,0.0,0.0,0.0,0.0,0.0,0.0,0.0,0.0,0.0,0.0,0.0,0.0,0.0,0.0,0.0,0.0,0.0,1.5442,0.0,1.5413,1.5453,1.5453,1.5472,0.0,0.0,0.0,0.0,0.0,0.0,0.0,0.0,0.0,0.0,0.0,0.0,0.0,0.0,0.0,0.0,0.0,0.0,0.0,0.0,0.0,0.0,0.0,0.0,0.0,0.0,0.0,0.0,0.0,0.0,0.0,0.0,0.0,0.0,0.0,0.0,0.0,0.0,0.0,0.0,0.0,0.0,0.0,0.0,0.0,0.0,0.0,0.0,0.0,0.0,0.0,0.0,0.0,0.0,0.0,0.0,0.0,0.0,0.0,0.0,0.0,0.0,0.0,0.0,0.0,0.0,0.0,0.0,0.0,0.0,0.0,0.0,0.0,0.0,0.0,0.0,0.0,0.0,0.0,0.0,0.0,0.0,0.0,0.0,0.0,0.0,0.0,0.0,0.0,0.0,0.0,0.0,0.0,0.0,0.0,0.0,0.0,0.0,0.0,0.0,0.0,0.0,0.0,0.0,0.0,0.0,0.0,0.0,1.5423,1.5126,1.5096,1.5077,1.5096,1.5107,1.5245,0.0,0.0,0.0,0.0,0.0,0.0,0.0,0.0,0.0,0.0,0.0,0.0,0.0,0.0,0.0,0.0,0.0,0.0,0.0,0.0,0.0,0.0,0.0,0.0,0.0,0.0,0.0,0.0,0.0,0.0,0.0,0.0,0.0,0.0,0.0,0.0,0.0,0.0,0.0,0.0,0.0,0.0,0.0,0.0,0.0,0.0,0.0,0.0,0.0,0.0,0.0,0.0,0.0,0.0,0.0,0.0,0.0,0.0,0.0,0.0,0.0,0.0,0.0,0.0,0.0,0.0,0.0,0.0,0.0,0.0,0.0,0.0,0.0,0.0,0.0,0.0,0.0,0.0,0.0,0.0,0.0,0.0,0.0,0.0,0.0,0.0,0.0,0.0,0.0,0.0,0.0,0.0,0.0,0.0,0.0,0.0,0.0,0.0,0.0,0.0,0.0,0.0,0.0,0.0,0.0,0.0,0.0,0.0,0.0,1.463,1.462,1.4699,1.4808,1.4699,1.4781,0.0,0.0,0.0,0.0,0.0,0.0,0.0,0.0,0.0,0.0,0.0,0.0,0.0,0.0,0.0,0.0,0.0,0.0,0.0,0.0,0.0,0.0,0.0,0.0,0.0,0.0,0.0,0.0,0.0,0.0,0.0,0.0,0.0,0.0,0.0,0.0,0.0,0.0,0.0,0.0,0.0,0.0,0.0,0.0,0.0,0.0,0.0,0.0,0.0,0.0,0.0,0.0,0.0,0.0,0.0,0.0,0.0,0.0,0.0,0.0,0.0,0.0,0.0,0.0,0.0,0.0,0.0,0.0,0.0,0.0,0.0,0.0,0.0,0.0,0.0,0.0,0.0,0.0,0.0,0.0,0.0,0.0,0.0,0.0,0.0,0.0,0.0,0.0,0.0,0.0,0.0,0.0,0.0,0.0,0.0,0.0,0.0,0.0,0.0,0.0,0.0,0.0,0.0,0.0,0.0,0.0,0.0,0.0,0.0,1.3372,1.3611,1.3825,1.3954,1.4082,1.4348,1.476,0.0,0.0,0.0,0.0,0.0,0.0,0.0,0.0,0.0,0.0,0.0,0.0,0.0,0.0,0.0,0.0,0.0,0.0,0.0,0.0,0.0,0.0,0.0,0.0,0.0,0.0,0.0,0.0,0.0,0.0,0.0,0.0,0.0,0.0,0.0,0.0,0.0,0.0,0.0,0.0,0.0,0.0,0.0,0.0,0.0,0.0,0.0,0.0,0.0,0.0,0.0,0.0,0.0,0.0,0.0,0.0,0.0,0.0,0.0,0.0,0.0,0.0,0.0,0.0,0.0,0.0,0.0,0.0,0.0,0.0,0.0,0.0,0.0,0.0,0.0,0.0,0.0,0.0,0.0,0.0,0.0,0.0,0.0,0.0,0.0,0.0,0.0,0.0,0.0,0.0,0.0,0.0,0.0,0.0,0.0,0.0,0.0,0.0,0.0,0.0,0.0,0.0,0.0,0.0,0.0,0.0,0.0,0.0,1.1441,1.2115,1.2502,1.2605,1.3227,1.3786,0.0,0.0,0.0,0.0,0.0,0.0,0.0,0.0,0.0,0.0,0.0,0.0,0.0,0.0,0.0,0.0,0.0,0.0,0.0,0.0,0.0,0.0,0.0,0.0,0.0,0.0,0.0,0.0,0.0,0.0,0.0,0.0,0.0,0.0,0.0,0.0,0.0,0.0,0.0,0.0,0.0,0.0,0.0,0.0,0.0,0.0,0.0,0.0,0.0,0.0,0.0,0.0,0.0,0.0,0.0,0.0,0.0,0.0,0.0,0.0,0.0,0.0,0.0,0.0,0.0,0.0,0.0,0.0,0.0,0.0,0.0,0.0,0.0,0.0,0.0,0.0,0.0,0.0,0.0,0.0,0.0,0.0,0.0,0.0,0.0,0.0,0.0,0.0,0.0,0.0,0.0,0.0,0.0,0.0,0.0,0.0,0.0,0.0,0.0,0.0,0.0,0.0,0.0,0.0,0.0,0.0,0.0,0.0,0.0,1.061,1.0215,1.0425,1.1203,1.1774,1.2499,0.0,0.0,0.0,0.0,0.0,0.0,0.0,0.0,0.0,0.0,0.0,0.0,0.0,0.0,0.0,0.0,0.0,0.0,0.0,0.0,0.0,0.0,0.0,0.0,0.0,0.0,0.0,0.0,0.0,0.0,0.0,0.0,0.0,0.0,0.0,0.0,0.0,0.0,0.0,0.0,0.0,0.0,0.0,0.0,0.0,0.0,0.0,0.0,0.0,0.0,0.0,0.0,0.0,0.0,0.0,0.0,0.0,0.0,0.0,0.0,0.0,0.0,0.0,0.0,0.0,0.0,0.0,0.0,0.0,0.0,0.0,0.0,0.0,0.0,0.0,0.0,0.0,0.0,0.0,0.0,0.0,0.0,0.0,0.0,0.0,0.0,0.0,0.0,0.0,0.0,0.0,0.0,0.0,0.0,0.0,0.0,0.0,0.0,0.0,0.0,0.0,0.0,0.0,0.0,0.0,0.0,0.0,0.0,1.1228,0.9829,0.8795,0.8648,0.9476,1.0716,1.1818,0.0,0.0,0.0,0.0,0.0,0.0,0.0,0.0,0.0,0.0,0.0,0.0,0.0,0.0,0.0,0.0,0.0,0.0,0.0,0.0,0.0,0.0,0.0,0.0,0.0,0.0,0.0,0.0,0.0,0.0,0.0,0.0,0.0,0.0,0.0,0.0,0.0,0.0,0.0,0.0,0.0,0.0,0.0,0.0,0.0,0.0,0.0,0.0,0.0,0.0,0.0,0.0,0.0,0.0,0.0,0.0,0.0,0.0,0.0,0.0,0.0,0.0,0.0,0.0,0.0,0.0,0.0,0.0,0.0,0.0,0.0,0.0,0.0,0.0,0.0,0.0,0.0,0.0,0.0,0.0,0.0,0.0,0.0,0.0,0.0,0.0,0.0,0.0,0.0,0.0,0.0,0.0,0.0,0.0,0.0,0.0,0.0,0.0,0.0,0.0,0.0,0.0,0.0,0.0,0.0,0.0,0.0,0.0,1.0257,0.9234,0.7927,0.7461,0.7891,0.9897,1.1454,0.0,0.0,0.0,0.0,0.0,0.0,0.0,0.0,0.0,0.0,0.0,0.0,0.0,0.0,0.0,0.0,0.0,0.0,0.0,0.0,0.0,0.0,0.0,0.0,0.0,0.0,0.0,0.0,0.0,0.0,0.0,0.0,0.0,0.0,0.0,0.0,0.0,0.0,0.0,0.0,0.0,0.0,0.0,0.0,0.0,0.0,0.0,0.0,0.0,0.0,0.0,0.0,0.0,0.0,0.0,0.0,0.0,0.0,0.0,0.0,0.0,0.0,0.0,0.0,0.0,0.0,0.0,0.0,0.0,0.0,0.0,0.0,0.0,0.0,0.0,0.0,0.0,0.0,0.0,0.0,0.0,0.0,0.0,0.0,0.0,0.0,0.0,0.0,0.0,0.0,0.0,0.0,0.0,0.0,0.0,0.0,0.0,0.0,0.0,0.0,0.0,0.0,0.0,0.0,0.0,0.0,0.0,0.0,1.0597,0.9313,0.8512,0.8189,0.8283,0.9143,1.0396,0.0,0.0,0.0,0.0,0.0,0.0,0.0,0.0,0.0,0.0,0.0,0.0,0.0,0.0,0.0,0.0,0.0,0.0,0.0,0.0,0.0,0.0,0.0,0.0,0.0,0.0,0.0,0.0,0.0,0.0,0.0,0.0,0.0,0.0,0.0,0.0,0.0,0.0,0.0,0.0,0.0,0.0,0.0,0.0,0.0,0.0,0.0,0.0,1.8396,0.0,0.0,0.0,0.0,0.0,0.0,0.0,0.0,0.0,0.0,0.0,0.0,0.0,0.0,0.0,0.0,0.0,0.0,0.0,0.0,0.0,0.0,0.0,0.0,0.0,0.0,0.0,0.0,0.0,0.0,0.0,0.0,0.0,0.0,0.0,0.0,0.0,0.0,0.0,0.0,0.0,0.0,0.0,0.0,0.0,0.0,0.0,0.0,0.0,0.0,0.0,0.0,0.0,0.0,0.0,0.0,0.0,0.0,0.0,1.0457,0.9515,0.8648,0.8318,0.854,0.9131,1.0151,0.0,0.0,0.0,0.0,0.0,0.0,0.0,0.0,0.0,0.0,0.0,0.0,0.0,0.0,0.0,0.0,0.0,0.0,0.0,0.0,0.0,0.0,0.0,0.0,0.0,0.0,0.0,0.0,0.0,0.0,0.0,0.0,0.0,0.0,0.0,0.0,0.0,0.0,0.0,0.0,0.0,0.0,0.0,0.0,0.0,0.0,0.0,0.0,0.0,0.0,0.0,0.0,0.0,0.0,0.0,0.0,0.0,0.0,0.0,0.0,0.0,0.0,0.0,0.0,0.0,0.0,0.0,0.0,0.0,0.0,0.0,0.0,0.0,0.0,0.0,0.0,0.0,0.0,0.0,0.0,0.0,0.0,0.0,0.0,0.0,0.0,0.0,0.0,0.0,0.0,0.0,0.0,0.0,0.0,0.0,0.0,0.0,0.0,0.0,0.0,0.0,0.0,0.0,0.0,0.0,0.0,0.0,1.1429,1.0307,0.9783,0.8789,0.8489,0.8863,0.9561,1.0401,1.1416,0.0,0.0,0.0,0.0,0.0,0.0,0.0,0.0,0.0,0.0,0.0,0.0,0.0,0.0,0.0,0.0,0.0,0.0,0.0,0.0,0.0,0.0,0.0,0.0,0.0,0.0,0.0,0.0,0.0,0.0,0.0,0.0,0.0,0.0,0.0,0.0,0.0,0.0,0.9537,1.0564,0.0,0.0,0.0,0.0,0.0,0.0,0.0,0.0,1.6838,0.0,0.0,0.0,0.0,0.0,0.0,0.0,0.0,0.0,0.0,0.0,0.0,0.0,0.0,0.0,0.0,0.0,0.0,0.0,0.0,0.0,0.0,0.0,0.0,0.0,0.0,0.0,0.0,0.0,0.0,0.0,0.0,0.0,0.0,0.0,0.0,0.0,0.0,0.0,0.0,0.0,0.0,0.0,0.0,0.0,0.0,0.0,0.0,0.0,0.0,0.0,0.0,0.0,0.0,0.0,0.0,1.3092,1.1979,1.0998,1.0148,0.9792,0.9646,0.9735,1.0395,1.104,1.1585,0.0,0.0,0.0,0.0,0.0,0.0,0.0,0.0,0.0,0.0,0.0,0.0,0.0,0.0,0.0,0.0,0.0,0.0,0.0,0.0,0.0,0.0,0.0,0.0,0.0,0.0,0.0,0.0,0.0,0.0,0.0,0.0,0.0,0.0,0.0,0.0,0.0,0.0,0.0,1.0313,1.0919,0.0,0.0,0.0,0.0,0.0,0.0,0.0,0.0,1.6264,0.0,0.0,0.0,0.0,0.0,0.0,0.0,0.0,0.0,0.0,0.0,0.0,0.0,0.0,0.0,0.0,0.0,0.0,0.0,0.0,0.0,0.0,0.0,0.0,0.0,0.0,0.0,0.0,0.0,0.0,0.0,0.0,0.0,0.0,0.0,0.0,0.0,0.0,0.0,0.0,0.0,0.0,0.0,0.0,0.0,0.0,0.0,0.0,0.0,0.0,0.0,0.0,0.0,0.0,0.0,1.289,1.1787,1.0927,1.0358,0.985,0.9699,0.9915,1.0635,1.1286,0.0,0.0,0.0,0.0,0.0,0.0,0.0,0.0,0.0,0.0,0.0,0.0,0.0,0.0,0.0,0.0,0.0,0.0,0.0,0.0,0.0,0.0,0.0,0.0,0.0,0.0,0.0,0.0,0.0,0.0,0.0,0.0,0.0,0.0,0.0,0.0,0.0,0.0,0.0,0.0,0.9652,1.0128,1.0907,0.0,0.0,0.0,0.0,0.0,0.0,1.5571,1.5836,0.0,0.0,0.0,0.0,0.0,0.0,0.0,0.0,0.0,0.0,0.0,0.0,0.0,0.0,0.0,0.0,0.0,0.0,0.0,0.0,0.0,0.0,0.0,0.0,0.0,0.0,0.0,0.0,0.0,0.0,0.0,0.0,0.0,0.0,0.0,0.0,0.0,0.0,0.0,0.0,0.0,0.0,0.0,0.0,0.0,0.0,0.0,0.0,0.0,0.0,0.0,0.0,0.0,0.0,0.0,1.2616,1.1503,1.0718,1.0377,0.9757,0.9618,0.9879,1.0624,1.1404,0.0,0.0,0.0,0.0,0.0,0.0,0.0,0.0,0.0,0.0,0.0,0.0,0.0,0.0,0.0,0.0,0.0,0.0,0.0,0.0,0.0,0.0,0.0,0.0,0.0,0.0,0.0,0.0,0.0,0.0,0.0,0.0,0.0,0.0,0.0,0.0,0.0,0.0,0.0,0.0,0.0,0.9538,1.0253,1.0968,0.0,0.0,0.0,0.0,1.5124,1.5229,0.0,0.0,0.0,0.0,0.0,0.0,0.0,0.0,0.0,0.0,0.0,0.0,0.0,0.0,0.0,0.0,0.0,0.0,0.0,0.0,0.0,0.0,0.0,0.0,0.0,0.0,0.0,0.0,0.0,0.0,0.0,0.0,0.0,0.0,0.0,0.0,0.0,0.0,0.0,0.0,0.0,0.0,0.0,0.0,0.0,0.0,0.0,0.0,0.0,0.0,0.0,0.0,0.0,0.0,0.0,0.0,1.2435,1.1664,1.0818,1.0023,0.9994,0.9958,0.9921,1.0717,1.1414,0.0,0.0,0.0,0.0,0.0,0.0,0.0,0.0,0.0,0.0,0.0,0.0,0.0,0.0,0.0,0.0,0.0,0.0,0.0,0.0,0.0,0.0,0.0,0.0,0.0,0.0,0.0,0.0,0.0,0.0,0.0,0.0,0.0,0.0,0.0,0.0,0.0,0.0,0.0,0.0,0.0,0.931,0.9815,1.0508,1.1113,0.0,0.0,1.3551,1.4039,1.4635,0.0,0.0,0.0,0.0,0.0,0.0,0.0,0.0,0.0,0.0,0.0,0.0,0.0,0.0,0.0,0.0,0.0,0.0,0.0,0.0,0.0,0.0,0.0,0.0,0.0,0.0,0.0,0.0,0.0,0.0,0.0,0.0,0.0,0.0,0.0,0.0,0.0,0.0,0.0,0.0,0.0,0.0,0.0,0.0,0.0,0.0,0.0,0.0,0.0,0.0,0.0,0.0,0.0,0.0,0.0,1.2303,1.1488,1.0618,0.9898,0.9369,0.916,0.9308,0.973,1.0486,1.1329,0.0,0.0,0.0,0.0,0.0,0.0,0.0,0.0,0.0,0.0,0.0,0.0,0.0,0.0,0.0,0.0,0.0,0.0,0.0,0.0,0.0,0.0,0.0,0.0,0.0,0.0,0.0,0.0,0.0,0.0,0.0,0.0,0.0,0.0,0.0,0.0,0.0,0.0,0.0,0.0,0.0,0.0,0.9232,0.9795,0.0,0.0,0.0,1.2919,1.3864,0.0,0.0,0.0,0.0,0.0,0.0,0.0,0.0,0.0,0.0,0.0,0.0,0.0,0.0,0.0,0.0,0.0,0.0,0.0,0.0,0.0,0.0,0.0,0.0,0.0,0.0,0.0,0.0,0.0,0.0,0.0,0.0,0.0,0.0,0.0,0.0,0.0,0.0,0.0,0.0,0.0,0.0,0.0,0.0,0.0,0.0,0.0,0.0,0.0,0.0,0.0,0.0,0.0,0.0,0.0,0.0,0.0,1.0409,0.9502,0.8847,0.8455,0.8169,0.8407,0.9135,0.9867,0.0,0.0,0.0,0.0,0.0,0.0,0.0,0.0,0.0,0.0,0.0,0.0,0.0,0.0,0.0,0.0,0.0,0.0,0.0,0.0,0.0,0.0,0.0,0.0,0.0,0.0,0.0,0.8989,0.0,0.0,0.0,0.0,0.0,0.0,0.0,0.0,0.0,0.0,0.0,0.0,0.0,0.0,0.8553,0.8803,0.9221,0.9871,0.0,0.0,1.2189,1.3325,1.3913,1.4287,0.0,0.0,0.0,0.0,0.0,0.0,0.0,0.0,0.0,0.0,0.0,0.0,0.0,0.0,0.0,0.0,0.0,0.0,0.0,0.0,0.0,0.0,0.0,0.0,0.0,0.0,0.0,0.0,0.0,0.0,0.0,0.0,0.0,0.0,0.0,0.0,0.0,0.0,0.0,0.0,0.0,0.0,0.0,0.0,0.0,0.0,0.0,0.0,0.0,0.0,0.0,0.0,0.0,0.0,0.0,0.9424,0.8675,0.7929,0.724,0.7322,0.7562,0.7942,0.8816,0.9742,0.0,0.0,0.0,0.0,0.0,0.0,0.0,0.0,0.0,0.0,0.0,0.0,0.0,0.0,0.0,0.0,0.0,0.0,0.0,0.0,0.0,0.0,0.0,0.0,0.0,0.0,0.0,0.0,0.0,0.0,0.0,0.0,0.0,0.0,0.0,0.0,0.0,0.0,0.0,0.0,0.0,0.8393,0.8664,0.901,0.9407,0.0,0.0,1.1388,1.1796,1.2884,1.3512,1.311,0.0,0.0,0.0,0.0,0.0,0.0,0.0,0.0,0.0,0.0,0.0,0.0,0.0,0.0,0.0,0.0,0.0,0.0,0.0,0.0,0.0,0.0,0.0,0.0,0.0,0.0,0.0,0.0,0.0,0.0,0.0,0.0,0.0,0.0,0.0,0.0,0.0,0.0,0.0,0.0,0.0,0.0,0.0,0.0,0.0,0.0,0.0,0.0,0.0,0.0,0.0,0.0,0.0,0.9641,0.7902,0.7187,0.6477,0.5771,0.5787,0.6012,0.6456,0.7245,0.8188,0.0,0.0,0.0,0.0,0.0,0.0,0.0,0.0,0.0,0.0,0.0,0.0,0.0,0.0,0.0,0.0,0.0,0.0,0.0,0.0,0.0,0.0,0.0,0.0,0.0,0.0,0.0,0.0,0.7275,0.6978,0.6905,0.0,0.0,0.0,0.0,0.0,0.0,0.0,0.0,0.0,0.0,0.7782,0.7971,0.8181,0.0,0.0,1.0217,1.0706,1.1083,1.194,1.2445,1.2142,1.2443,0.0,0.0,0.0,0.0,0.0,0.0,0.0,0.0,0.0,0.0,0.0,0.0,0.0,0.0,0.0,0.0,0.0,0.0,0.0,0.0,0.0,0.0,0.0,0.0,0.0,0.0,0.0,0.0,0.0,0.0,0.0,0.0,0.0,0.0,0.0,0.0,0.0,0.0,0.0,0.0,0.0,0.0,0.0,0.0,0.0,0.0,0.0,0.0,0.0,0.0,0.0,0.0,0.8262,0.6151,0.5321,0.4543,0.3812,0.38,0.4064,0.4687,0.5293,0.624,0.0,0.0,0.0,0.0,0.0,0.0,0.0,0.0,0.0,0.0,0.0,0.0,0.0,0.0,0.0,0.0,0.0,0.0,0.0,0.0,0.0,0.0,0.0,0.0,0.0,0.0,0.0,0.0,0.7071,0.6883,0.6502,0.0,0.0,0.0,0.0,0.0,0.0,0.0,0.0,0.0,0.0,0.7103,0.7477,0.7451,0.7888,0.9166,0.9447,0.9685,1.0328,1.0874,1.1158,1.0948,0.0,0.0,0.0,0.0,0.0,0.0,0.0,0.0,0.0,0.0,0.0,0.0,0.0,0.0,0.0,0.0,0.0,0.0,0.0,0.0,0.0,0.0,0.0,0.0,0.0,0.0,0.0,0.0,0.0,0.0,1.1306,0.0,0.0,0.0,0.0,0.0,0.0,0.0,0.0,0.0,0.0,0.0,0.0,0.0,0.0,0.0,0.0,0.0,0.0,0.0,0.0,0.0,0.0,0.6559,0.4193,0.3062,0.2118,0.1311,0.1261,0.1676,0.2516,0.2943,0.391,0.5493,0.0,0.0,0.0,0.0,0.0,0.0,0.0,0.0,0.0,0.0,0.0,0.0,0.0,0.0,0.0,0.0,0.0,0.0,0.0,0.0,0.0,0.0,0.0,0.0,0.0,0.0,0.7163,0.6849,0.6475,0.0,0.0,0.0,0.0,0.0,0.0,0.0,0.0,0.0,0.0,0.621,0.6555,0.72,0.6873,0.7063,0.841,0.8182,0.825,0.9352,0.957,0.9569,0.0,0.0,0.0,0.0,0.0,0.0,0.0,0.0,0.0,0.0,0.0,0.0,0.0,0.0,0.0,0.0,0.0,0.0,0.0,0.0,0.0,0.0,0.0,0.0,0.0,0.0,0.0,0.6799,0.7164,0.0,0.0,0.0,0.0,0.0,0.0,0.0,0.0,0.0,0.0,0.0,0.2906,0.3314,0.0,0.0,0.0,0.0,0.0,0.0,0.0,0.0,0.0,0.0,0.0,0.0,0.4984,0.2596,0.1334,0.0317,-0.0519,-0.0523,-0.0364,-0.0081,0.0284,0.1295,0.2942,0.0,0.0,0.0,0.0,0.0,0.0,0.0,0.0,0.0,0.0,0.0,0.0,0.0,0.0,0.0,0.0,0.0,0.0,0.0,0.0,0.0,0.0,0.0,0.0,0.0,0.6903,0.0,0.0,0.0,0.0,0.0,0.0,0.0,0.0,0.0,0.0,0.0,0.6109,0.5903,0.5991,0.6161,0.6465,0.6334,0.6493,0.0,0.0,0.0,0.0,0.0,0.0,0.0,0.0,0.0,0.0,0.0,0.0,0.0,0.0,1.0911,1.1507,1.1798,1.1926,1.1726,0.0,0.0,0.0,0.0,0.0,0.0,0.0,0.0,0.0,0.0,0.0,0.0,0.0,0.0,0.3698,0.0,0.5183,0.0,0.0,0.0,0.0,0.0,0.0,0.0,0.0,0.1599,0.0619,-0.033,-0.0207,0.0166,0.0,0.1443,0.3237,0.0,0.0,0.0,0.0,0.0,0.0,0.0,0.0,0.3145,0.0714,-0.076,-0.1898,-0.2737,-0.279,-0.276,-0.2605,-0.1909,-0.0954,0.0289,0.1775,0.329,0.0,0.0,0.0,0.0,0.0,0.0,0.0,0.0,0.0,0.0,0.0,0.0,0.0,0.0,0.0,0.0,0.0,0.0,0.0,0.0,0.0,0.0,0.0,0.6167,0.0,0.0,0.0,0.0,0.0,0.0,0.0,0.0,0.0,0.5937,0.5957,0.595,0.5707,0.5766,0.5861,0.6117,0.0,0.0,0.0,0.0,0.0,0.0,0.0,0.7718,0.7425,0.7021,0.6797,0.7003,0.7989,0.8897,0.9342,0.0,0.0,1.1108,1.15,1.1779,1.1781,1.2318,1.2991,1.3686,1.4243,1.5016,0.0,0.0,0.0,0.0,0.0,0.0,0.0,0.0,-0.008,0.0201,0.0,0.2109,0.0,0.0,0.0,0.0,0.0,0.3535,0.0,0.0,-0.1269,-0.2608,-0.3083,-0.3414,-0.3195,-0.2394,-0.1965,-0.1317,-0.021,0.3898,0.0,0.0,0.0,0.0,0.0,0.0,0.1137,-0.1382,-0.3132,-0.4502,-0.538,-0.5521,-0.5367,-0.4952,-0.3756,-0.285,-0.2392,-0.0726,0.0804,0.2068,0.3388,0.0,0.0,0.0,0.0,0.0,0.0,0.0,0.0,0.0,0.0,0.0,0.0,0.0,0.0,0.0,0.0,0.0,0.0,0.0,0.0,0.5438,0.0,0.0,0.0,0.0,0.0,0.0,0.0,0.0,0.0,0.0,0.551,0.5499,0.5525,0.5525,0.0,0.0,0.0,0.0,0.5914,0.6698,0.6424,0.6426,0.7241,0.6988,0.6755,0.6782,0.0,0.0,0.701,0.7925,0.8738,0.9163,1.0061,1.066,1.0199,1.0917,1.153,1.1713,1.2552,1.3607,1.4885,1.5238,1.5856,-0.9584,0.0,0.0,0.0,0.0,-0.3873,-0.3881,-0.3893,-0.3694,-0.306,-0.202,-0.0835,0.0,0.0,0.0,0.0,0.0,0.0,-0.0258,-0.1777,-0.3165,-0.4202,-0.4911,-0.5058,-0.479,-0.4288,-0.42,-0.3665,-0.2685,-0.0737,0.1319,0.3368,0.0,0.0,0.0,0.0,-0.0584,-0.2904,-0.4422,-0.5589,-0.6505,-0.6867,-0.702,-0.6911,-0.6283,-0.5722,-0.5146,-0.4092,-0.2865,-0.1454,-0.017,0.0,0.0,0.0,0.0,0.0,0.0,0.0,0.0,0.0,0.0,0.0,0.0,0.0,0.0,0.0,0.0,0.0,0.0,0.0,0.4109,0.437,0.4662,0.0,0.0,0.0,0.0,0.0,0.0,0.0,0.0,0.0,0.6419,0.5917,0.5621,0.0,0.0,0.5601,0.5381,0.5512,0.5659,0.5612,0.6049,0.0,0.0,0.6696,0.6537,0.6281,0.6224,0.6284,0.6442,0.7567,0.8665,0.9247,1.0205,1.0936,1.1272,1.1897,1.2357,1.2434,1.3475,1.4692,1.5565,1.6308,1.7364,-1.2064,-0.945,-0.8186,-0.7242,-0.6624,-0.6802,-0.6716,-0.645,-0.6159,-0.5433,-0.4424,-0.3207,-0.194,-0.0604,0.0733,0.0,0.0,0.0,-0.1777,-0.2997,-0.4112,-0.495,-0.5449,-0.5673,-0.5492,-0.513,-0.5084,-0.4812,-0.427,-0.3475,-0.2272,-0.0742,0.0,0.0,0.1022,-0.0299,-0.202,-0.4111,-0.5521,-0.6697,-0.7651,-0.8172,-0.8453,-0.8453,-0.806,-0.7706,-0.7351,-0.6317,-0.5234,-0.416,-0.2856,-0.1136,0.0,0.0,0.0,0.0,0.0,0.0,0.0,0.0,0.0,0.0,0.0,0.6488,0.6046,0.0,0.0,0.0,0.4216,0.3707,0.3583,0.406,0.0,0.0,0.0,0.0,0.0,0.0,0.0,0.7714,0.7734,0.7585,0.7189,0.6482,0.5992,0.5897,0.5837,0.5745,0.547,0.0,0.5839,0.5548,0.6039,0.6442,0.6482,0.6509,0.6508,0.6549,0.7031,0.7361,0.7439,0.8645,0.9717,1.025,1.1363,1.2428,1.2798,1.3879,1.4422,1.3727,1.4778,1.6137,1.6919,1.7843,1.8934,-1.2818,-1.1368,-1.0178,-0.9216,-0.8447,-0.8821,-0.8686,-0.8123,-0.7537,-0.7,-0.6401,-0.5027,-0.3607,-0.2164,-0.0902,0.0,-0.0902,-0.1869,-0.2564,-0.3068,-0.4396,-0.502,-0.5111,-0.5482,-0.5482,-0.5067,-0.5067,-0.5113,-0.5115,-0.46,-0.4412,-0.4358,-0.125,0.0088,-0.0393,-0.1588,-0.319,-0.5007,-0.6401,-0.7685,-0.8762,-0.9353,-0.9627,-0.9627,-0.9174,-0.8897,-0.8801,-0.7511,-0.6512,-0.5987,-0.4748,-0.3089,-0.1034,0.0,0.0,0.0,0.0,0.0,0.0,0.0,0.0,0.0,0.0,0.0,0.0,0.0,0.0,0.0,0.3796,0.0,0.376,0.424,0.0,0.0,0.0,0.6749,0.6752,0.7227,0.7776,0.838,0.0,0.0,0.7927,0.7248,0.66,0.6327,0.6187,0.6125,0.6078,0.6124,0.6213,0.6118,0.6313,0.6398,0.6505,0.6646,0.6962,0.7525,0.8545,0.9267,0.9475,1.0657,1.1582,1.1756,1.3307,1.4663,1.4719,1.6369,1.7314,1.5731,1.6567,1.7822,1.8767,1.9578,2.0429,-1.0977,-1.0151,-0.9466,-0.913,-0.9084,-0.9181,-0.8747,-0.7873,-0.7606,-0.6811,-0.5572,-0.4813,-0.343,-0.1692,-0.1269,-0.0987,-0.08,-0.1757,-0.2529,-0.3104,-0.3854,-0.4403,-0.4792,-0.4937,-0.4889,-0.4792,-0.4792,-0.4792,-0.479,-0.4276,-0.402,-0.3969,-0.2823,-0.2223,-0.2327,-0.2651,-0.3568,-0.5125,-0.6285,-0.7792,-0.9556,-0.977,-0.983,-0.983,-0.9375,-0.8905,-0.8464,-0.7813,-0.7002,-0.6036,-0.5288,-0.3818,-0.1486,0.0183,0.0,0.0,0.0,0.0,0.0,0.0,0.0,0.0,0.0,0.5425,0.4573,0.0,0.3662,0.0,0.3592,0.37,0.3361,0.4544,0.0,0.0,0.6198,0.6575,0.6575,0.7367,0.8016,0.8183,0.8758,0.9042,0.887,0.8693,0.8476,0.8038,0.7095,0.6274,0.5876,0.6185,0.6312,0.6103,0.6679,0.7161,0.7308,0.7946,0.8584,0.8723,1.0064,1.1049,1.1128,1.2323,1.3464,1.3913,1.4863,1.5927,1.6758,1.7996,1.8961,1.9273,1.9412,1.9607,2.0531,2.1017,2.1697,-0.8593,-0.7612,-0.7302,-0.6962,-0.6681,-0.7904,-0.7818,-0.6792,-0.6485,-0.5724,-0.4647,-0.388,-0.2897,-0.1835,-0.1594,-0.1304,-0.1111,-0.1651,-0.2045,-0.2387,-0.2692,-0.2994,-0.3288,-0.3533,-0.3631,-0.3631,-0.3878,-0.4124,-0.4318,-0.4068,-0.4017,-0.4213,-0.3769,-0.3358,-0.3081,-0.3041,-0.354,-0.4577,-0.6123,-0.757,-0.8924,-0.9205,-0.9205,-0.8972,-0.8432,-0.7901,-0.733,-0.6643,-0.6016,-0.5406,-0.485,-0.3641,-0.1628,-0.0142,0.1778,0.0,0.0,0.0,0.0,0.0,0.0,0.0,0.0,0.0,0.0,0.0,0.4103,0.3849,0.4135,0.438,0.4389,0.5466,0.627,0.6559,0.7111,0.7444,0.7444,0.7957,0.8435,0.8677,0.9084,0.93,0.9326,0.9166,0.8996,0.8717,0.8263,0.7668,0.715,0.7262,0.7399,0.7171,0.7804,0.8431,0.8654,0.9643,1.0426,1.0531,1.1782,1.2979,1.3291,1.4329,1.5354,1.6097,1.6977,1.7839,1.8613,1.9774,2.0817,2.1308,2.1652,2.1851,2.209,2.2529,2.3137,-0.5875,-0.4476,-0.4475,-0.3849,-0.296,-0.5353,-0.5867,-0.5055,-0.4566,-0.4001,-0.3298,-0.2329,-0.1877,-0.183,-0.1333,-0.1086,-0.1088,-0.1137,-0.1236,-0.1335,-0.1385,-0.1434,-0.1533,-0.2027,-0.2226,-0.2325,-0.2819,-0.3312,-0.3806,-0.3838,-0.4056,-0.4514,-0.4096,-0.3656,-0.3047,-0.3028,-0.3376,-0.4045,-0.5989,-0.7262,-0.7859,-0.8215,-0.8165,-0.7652,-0.6898,-0.6303,-0.5764,-0.4776,-0.4182,-0.4083,-0.3643,-0.2757,-0.128,0.0098,0.1944,0.0,0.5353,0.0,0.0,0.0,0.0,0.0,0.0,0.0,0.0,0.5091,0.489,0.5026,0.5136,0.5428,0.6093,0.667,0.7241,0.7781,0.8329,0.8648,0.8595,0.8702,0.8943,0.9556,0.9291,0.9266,0.9875,0.9517,0.9299,0.9419,0.9793,0.9783,0.9254,0.9032,0.8943,0.8964,0.9437,1.0011,1.053,1.1464,1.2257,1.2473,1.3675,1.4961,1.5632,1.6516,1.7423,1.8303,1.9083,1.9759,2.0146,2.1384,2.2338,2.2583,2.3268,2.3756,2.3531,2.3807,2.4285,-0.3392,-0.2333,-0.228,-0.1637,-0.0682,-0.1151,-0.1769,-0.2373,-0.2266,-0.1647,-0.0617,0.0,0.0306,0.0359,0.0866,0.1071,0.1078,0.0616,0.0205,-0.0308,-0.0719,-0.113,-0.1592,-0.1694,-0.2003,-0.2465,-0.2568,-0.2876,-0.3441,-0.3447,-0.3515,-0.3644,-0.3547,-0.3248,-0.2742,0.0,0.0,0.0,-0.6197,-0.7089,-0.8055,-0.7809,-0.7347,-0.6772,-0.5346,0.0,-0.3753,-0.272,-0.1957,-0.1555,-0.1355,0.0,0.0,0.0,0.0,0.0,0.0,0.0,0.0,0.0,0.0,0.0,0.7057,0.6826,0.5756,0.5319,0.5317,0.5847,0.6276,0.6779,0.7435,0.8032,0.8385,0.8577,0.8699,0.8753,0.8753,0.9132,0.9624,1.0236,1.0624,1.1147,1.1672,1.1745,1.1717,1.1674,1.1863,1.1909,1.1753,1.0913,1.024,1.0286,1.1092,1.1758,1.2243,1.3222,1.4118,1.4645,1.5651,1.6807,1.7737,1.8715,1.9529,2.0235,2.0646,2.0975,2.1411,2.2017,2.269,2.3512,2.4156,2.4535,2.4438,2.4408,2.4429,-0.0755,0.0,0.0322,0.0909,0.0,0.1696,0.153,0.126,0.0417,0.0674,0.1711,0.1755,0.1756,0.1763,0.1704,0.1705,0.166,0.1401,0.1141,0.083,0.0312,-0.0104,-0.0363,-0.0938,-0.1358,-0.1672,-0.1941,-0.2366,-0.2893,-0.2904,-0.3131,-0.3464,-0.3426,-0.3178,-0.2663,-0.2673,-0.3286,-0.4545,-0.5138,-0.5778,-0.6568,-0.612,-0.554,-0.4888,-0.3297,0.0,0.0,0.0,0.0,0.0,0.0,0.0,0.0,0.2438,0.0,0.4926,0.5237,0.5935,0.7037,0.7176,0.7394,0.7814,0.8153,0.8048,0.7314,0.7072,0.7166,0.7528,0.7813,0.8117,0.8456,0.9293,0.9875,0.9954,1.0468,1.079,1.0745,1.0959,1.1218,1.1447,1.1772,1.2071,1.2393,1.2458,1.2588,1.2914,1.3207,1.348,1.3637,1.2776,1.2129,1.2565,1.3047,1.3637,1.4328,1.5125,1.5855,1.6492,1.7489,1.8484,1.9268,2.0083,2.077,2.1499,2.1732,2.1916,2.2248,2.2623,2.3061,2.3551,2.401,2.4351,2.4389,2.4646,2.4934,0.1913,0.2458,0.3037,0.3569,0.4161,0.4079,0.4387,0.4809,0.0,0.0,0.0,0.3226,0.3018,0.3023,0.2497,0.224,0.2142,0.2089,0.1987,0.1834,0.131,0.1048,0.0996,0.0106,-0.0477,-0.0689,-0.1121,-0.1661,-0.2362,-0.2433,-0.2717,-0.3163,-0.3184,-0.2987,-0.2566,-0.2527,-0.2723,-0.3139,-0.3906,-0.4495,-0.4842,-0.4333,-0.3737,-0.3013,-0.1343,-0.0161,0.0376,0.15,0.2141,0.2248,0.2252,0.2737,0.3757,0.3869,0.4571,0.6073,0.6234,0.6743,0.7945,0.8056,0.8504,0.9298,0.9423,0.9296,0.8869,0.8976,0.9149,0.9443,0.957,0.9651,0.9774,1.0688,1.1336,1.1412,1.2282,1.2815,1.2734,1.2725,1.2672,1.281,1.2893,1.2944,1.3197,1.3253,1.3314,1.3819,1.432,1.4931,1.5369,1.4636,1.4101,1.4819,1.508,1.5541,1.6208,1.686,1.7489,1.8125,1.9007,1.9843,2.0572,2.1093,2.1708,2.2512,2.2654,2.2664,2.275,2.3125,2.3434,2.3219,2.3619,2.4,2.4048,2.4633,2.5045,0.4318,0.4864,0.5456,0.6053,0.6597,0.659,0.6916,0.7233,0.5454,0.4725,0.4829,0.4791,0.4744,0.4723,0.4633,0.4391,0.3917,0.3489,0.2964,0.2444,0.1901,0.1684,0.1684,0.1522,0.0871,-0.0054,-0.0163,-0.0766,-0.1708,-0.1821,-0.1891,-0.2027,-0.2032,-0.1986,-0.1944,-0.189,-0.1943,-0.2048,-0.3595,-0.4407,-0.4456,-0.3903,-0.3067,-0.1893,-0.0221,0.0937,0.1543,0.2628,0.3489,0.3979,0.4115,0.4408,0.5067,0.5211,0.5789,0.6959,0.7125,0.7652,0.8843,0.8916,0.9458,1.0667,1.0813,1.0326,0.9215,0.9657,1.0212,1.0752,1.1264,1.1838,1.2259,1.2497,1.262,1.263,1.2801,1.2906,1.3005,1.3001,1.336,1.4089,1.4242,1.4591,1.5231,1.543,1.5424,1.5646,1.5868,1.6256,1.7031,1.6477,1.5924,1.6248,1.6712,1.713,1.7587,1.8013,1.8746,1.9798,2.0111,2.0781,2.2029,2.2392,2.2685,2.3287,2.3259,2.3113,2.3011,2.3221,2.3364,2.3268,2.3542,2.3873,2.3863,2.4107,2.4123,0.659,0.6919,0.7767,0.8304,0.8578,0.8538,0.8467,0.83,0.7478,0.7129,0.7018,0.6453,0.6134,0.6099,0.5489,0.5073,0.4839,0.4567,0.4304,0.4049,0.3517,0.3085,0.2757,0.2502,0.1898,0.1061,0.101,0.062,-0.017,-0.0226,-0.0397,-0.0743,-0.0804,-0.0809,-0.0757,-0.0819,-0.0823,-0.0825,-0.2246,-0.2843,-0.2502,-0.1876,-0.1137,-0.0227,0.119,0.2205,0.2828,0.3662,0.4384,0.5002,0.5359,0.5877,0.6442,0.6803,0.7386,0.8234,0.8347,0.889,1.017,1.0905,1.1584,1.2205,1.2205,1.2014,1.1398,1.1554,1.1859,1.2201,1.2495,1.2731,1.302,1.3372,1.3661,1.4003,1.4349,1.4669,1.4902,1.4943,1.5122,1.5514,1.5546,1.5656,1.6156,1.6138,1.6422,1.692,1.7528,1.8191,1.875,1.8357,1.8005,1.8064,1.8229,1.8616,1.9189,1.9375,2.0015,2.1049,2.1457,2.1925,2.2755,2.3014,2.3324,2.3531,2.3498,2.3375,2.3228,2.3276,2.3227,2.3038,2.3109,2.3267,2.317,2.3121,2.3238,0.8905,0.9013,0.9953,1.0428,1.042,1.0352,1.005,0.9667,0.9689,0.9697,0.947,0.8107,0.7374,0.7322,0.6506,0.6026,0.5938,0.594,0.5786,0.5534,0.5123,0.4635,0.4082,0.3624,0.3132,0.2564,0.2521,0.2187,0.1671,0.1675,0.1448,0.0988,0.0936,0.0883,0.0947,0.0894,0.0899,0.0902,0.0,-0.0407,-0.0232,0.0349,0.0988,0.1685,0.2674,0.3546,0.4185,0.4764,0.5461,0.6276,0.6738,0.7262,0.7903,0.848,0.9114,0.9693,0.9866,1.0464,1.1557,1.2623,1.3304,1.3397,1.3514,1.3689,1.3796,1.3842,1.3711,1.3499,1.3679,1.3859,1.3971,1.4385,1.4915,1.5376,1.5901,1.6267,1.664,1.6737,1.6803,1.6725,1.6784,1.6834,1.6896,1.6975,1.7461,1.8316,1.9103,1.9577,1.9743,1.9798,1.9792,1.9945,1.9784,1.9815,2.0629,2.0789,2.1161,2.2055,2.2444,2.2755,2.3014,2.3376,2.3531,2.3583,2.3583,2.3479,2.3328,2.3272,2.3162,2.291,2.2874,2.2768,2.2627,2.258,2.2642,1.1253,1.1364,1.1973,1.2242,1.2191,1.2233,1.2172,1.2131,1.227,1.2368,1.1943,0.9712,0.8641,0.863,0.8477,0.8161,0.7822,0.7825,0.7322,0.6505,0.6353,0.6014,0.5495,0.5338,0.4995,0.4481,0.4487,0.4165,0.3666,0.3631,0.361,0.3537,0.3545,0.3544,0.3549,0.3552,0.3554,0.3557,0.3426,0.2821,0.186,0.24,0.3002,0.3602,0.4322,0.5043,0.5691,0.6301,0.7137,0.8277,0.8448,0.8813,0.9471,1.0128,1.0726,1.1323,1.1916,1.2549,1.3065,1.3242,1.3562,1.3996,1.4565,1.5085,1.5615,1.6186,1.5773,1.4682,1.509,1.5615,1.579,1.6198,1.6489,1.6605,1.6722,1.6832,1.6936,1.6878,1.7061,1.7441,1.7963,1.8443,1.8767,1.9212,1.9654,1.9555,1.9729,1.9978,2.034,2.0505,2.0835,2.1491,2.1431,2.1077,2.14,2.1801,2.2179,2.2662,2.2764,2.3023,2.3334,2.3479,2.3583,2.3583,2.3583,2.3507,2.3385,2.3281,2.3266,2.3068,2.2964,2.2916,2.2737,2.268,2.2703,1.3017,1.3359,1.3649,1.3567,1.3285,1.3285,1.3059,1.273,1.2768,1.2848,1.272,1.1693,1.0856,1.0127,0.9398,0.8926,0.8753,0.8753,0.8501,0.81,0.8136,0.781,0.7299,0.7366,0.71,0.6518,0.6488,0.6395,0.6238,0.6199,0.617,0.6203,0.6207,0.622,0.6244,0.6188,0.6199,0.629,0.6659,0.6598,0.604,0.5147,0.5183,0.6147,0.645,0.6929,0.7471,0.7829,0.855,0.9755,1.0235,1.0715,1.1379,1.2035,1.2459,1.2763,1.3353,1.3991,1.4487,1.4904,1.5325,1.5857,1.608,1.6344,1.6495,1.6786,1.6553,1.6023,1.6256,1.6547,1.6547,1.6722,1.7012,1.7361,1.742,1.7594,1.8007,1.8349,1.867,1.884,1.9282,1.9662,1.9932,2.0346,2.0564,2.0522,2.0589,2.0859,2.1032,2.1329,2.1768,2.2198,2.2512,2.2809,2.2769,2.2823,2.3111,2.3376,2.3511,2.3648,2.3569,2.3583,2.3583,2.3583,2.3592,2.3573,2.3498,2.3451,2.3404,2.3266,2.3068,2.2983,2.2907,2.2888,2.2841,1.465,1.5061,1.5146,1.4958,1.4554,1.4554,1.4217,1.3657,1.3683,1.3588,1.3474,1.3361,1.2809,1.1868,1.0713,1.0227,1.025,1.0272,1.0184,1.0094,1.0172,0.9916,0.9345,0.9377,0.9192,0.8845,0.8822,0.886,0.8879,0.8882,0.8891,0.8907,0.891,0.8874,0.8915,0.8921,0.8946,0.8989,0.9491,0.9798,0.972,0.8534,0.8063,0.8608,0.8608,0.9031,0.9753,0.9813,1.0361,1.1508,1.1995,1.2417,1.2895,1.3502,1.3989,1.4351,1.4827,1.5352,1.5919,1.6398,1.6823,1.7118,1.7277,1.7398,1.728,1.7366,1.7464,1.7426,1.7536,1.7652,1.7187,1.7303,1.7652,1.8226,1.8349,1.8581,1.9226,1.9741,1.9914,1.9958,2.0339,2.0781,2.093,2.1206,2.1332,2.1294,2.1494,2.1668,2.1616,2.1961,2.2384,2.2489,2.3346,2.381,2.3755,2.3761,2.3843,2.3958,2.4041,2.3941,2.3833,2.3814,2.3748,2.3824,2.3757,2.3672,2.3555,2.3545,2.3564,2.3404,2.3285,2.3153,2.3115,2.3105,2.3068,1.6424,1.6367,1.643,1.6334,1.6322,1.6334,1.5993,1.5407,1.5556,1.5319,1.478,1.4495,1.4246,1.4097,1.3189,1.2743,1.2779,1.2756,1.2551,1.216,1.2311,1.2065,1.1475,1.1483,1.1427,1.1247,1.1267,1.1367,1.1435,1.15,1.1544,1.1559,1.149,1.1563,1.1502,1.1502,1.1571,1.1514,1.1579,1.1947,1.2438,1.2425,1.1678,1.0878,1.0644,1.1249,1.2355,1.2605,1.2911,1.3584,1.3636,1.3701,1.3829,1.444,1.529,1.6326,1.657,1.6828,1.7266,1.7435,1.7434,1.749,1.8008,1.8247,1.817,1.8627,1.8866,1.8731,1.9203,1.9022,1.8201,1.8427,1.8936,1.9451,1.9567,1.9857,2.037,2.0435,2.0544,2.0667,2.1056,2.1617,2.2201,2.2236,2.2074,2.1993,2.1961,2.1855,2.1868,2.2199,2.2676,2.3097,2.3637,2.3946,2.3827,2.4105,2.4324,2.4334,2.4249,2.423,2.4292,2.4264,2.4098,2.4013,2.3965,2.3871,2.3701,2.3592,2.3611,2.3555,2.3526,2.3483,2.3281,2.3272,2.3336,1.7244,1.732,1.7326,1.7095,1.6756,1.6749,1.6689,1.6599,1.6589,1.6596,1.6438,1.6295,1.6217,1.6211,1.5902,1.4804,1.3429,1.3348,1.3272,1.3126,1.3164,1.3058,1.2883,1.2937,1.2909,1.2978,1.2977,1.3022,1.3054,1.3058,1.3076,1.3042,1.3113,1.3113,1.3051,1.3051,1.3051,1.3051,1.3051,1.3235,1.348,1.3419,1.3541,1.3904,1.3174,1.2929,1.3419,1.3419,1.3791,1.4404,1.4766,1.5194,1.5683,1.6299,1.6849,1.7276,1.7337,1.7623,1.8182,1.8297,1.8421,1.8647,1.9286,1.9583,1.957,2.0008,2.0334,2.0342,2.0445,2.0327,2.0049,1.9979,2.003,2.0204,2.0262,2.0377,2.0609,2.0898,2.1194,2.1252,2.1714,2.2234,2.2398,2.2407,2.2383,2.2212,2.2139,2.2195,2.2432,2.2885,2.3374,2.3824,2.4367,2.4686,2.4535,2.4615,2.4712,2.4561,2.4457,2.4372,2.4406,2.4378,2.4273,2.4245,2.4217,2.4169,2.3975,2.3871,2.3861,2.3833,2.3795,2.3766,2.3489,2.3656,2.3782,1.8603,1.8691,1.857,1.8247,1.7845,1.7715,1.755,1.752,1.7526,1.7392,1.7353,1.7342,1.7361,1.7373,1.7409,1.6587,1.4963,1.4811,1.4791,1.4796,1.4832,1.4848,1.4858,1.4981,1.4957,1.5028,1.5035,1.5077,1.5072,1.5077,1.5077,1.5077,1.5108,1.5129,1.5124,1.5129,1.5129,1.5124,1.5092,1.5077,1.5077,1.5077,1.5444,1.611,1.5499,1.5077,1.5077,1.5077,1.526,1.5749,1.611,1.6538,1.7032,1.7459,1.7825,1.8007,1.8014,1.8318,1.8921,1.9164,1.9421,1.9756,2.0399,2.0755,2.0662,2.0997,2.1145,2.1167,2.133,2.1448,2.141,2.1361,2.1267,2.1047,2.0973,2.1067,2.1194,2.1599,2.178,2.1895,2.2184,2.2464,2.2464,2.2464,2.2465,2.2294,2.2335,2.2489,2.2841,2.3402,2.3958,2.4346,2.4855,2.5093,2.4997,2.4941,2.491,2.4759,2.4655,2.4614,2.4548,2.451,2.4463,2.4434,2.4406,2.4378,2.4311,2.4198,2.4141,2.4156,2.4189,2.4211,2.4135,2.4129,2.4328,2.0551,2.0422,2.0087,1.9808,1.9704,1.9344,1.8893,1.8496,1.8437,1.8271,1.7958,1.7686,1.7983,1.7767,1.8096,1.7806,1.7708,1.755,1.732,1.7151,1.732,1.7368,1.7307,1.7246,1.7258,1.7319,1.752,1.752,1.7337,1.7294,1.7361,1.7556,1.748,1.7405,1.7775,1.7528,1.7652,1.7572,1.7371,1.7434,1.7648,1.7434,1.744,1.7672,1.7556,1.7495,1.7605,1.7532,1.7398,1.7459,1.7587,1.7703,1.777,1.7947,1.8136,1.8677,1.8799,1.9103,1.9718,2.0265,2.0501,2.0662,2.1214,2.1503,2.1436,2.1519,2.1533,2.1539,2.1805,2.2153,2.222,2.2544,2.2566,2.1938,2.179,2.1969,2.2322,2.248,2.2464,2.2415,2.2464,2.2464,2.2464,2.2464,2.2506,2.2497,2.2547,2.2727,2.3189,2.378,2.421,2.462,2.5106,2.5374,2.5317,2.5203,2.5071,2.4958,2.4873,2.4787,2.475,2.4766,2.4646,2.4671,2.4848,2.482,2.4841,2.4735,2.4774,2.476,2.471,2.4784,2.4738,2.4825,2.5036,2.084,2.0937,2.082,2.0724,2.0731,2.0546,2.044,2.0429,2.0429,2.0373,2.0285,2.0281,2.0302,2.0309,2.0366,2.038,2.038,2.0263,1.9401,1.7952,1.7751,1.777,1.777,1.7709,1.7703,1.7703,1.7703,1.7709,1.7788,1.7794,1.7837,1.7862,1.7972,1.8033,1.8101,1.8039,1.8039,1.8033,1.8002,1.7984,1.7978,1.7978,1.8225,1.8597,1.8658,1.8844,1.9277,1.8297,1.7709,1.777,1.8136,1.8556,1.9049,1.9475,1.9772,2.0015,2.044,2.0744,2.0994,2.1176,2.1297,2.1411,2.1896,2.2236,2.231,2.2596,2.2753,2.269,2.2938,2.3066,2.3126,2.3178,2.3108,2.2657,2.2617,2.266,2.2747,2.2708,2.2594,2.2489,2.2464,2.2464,2.2464,2.2464,2.2522,2.2579,2.2818,2.3228,2.3817,2.4354,2.4984,2.5375,2.562,2.5657,2.5506,2.5411,2.5336,2.5165,2.5043,2.4958,2.4939,2.4873,2.4835,2.5023,2.5211,2.5325,2.5356,2.5341,2.5414,2.5486,2.5632,2.5578,2.5408,2.5496,2.5768,2.1711,2.1811,2.1635,2.1539,2.1487,2.1369,2.1339,2.1489,2.1436,2.1503,2.1578,2.1593,2.1593,2.1593,2.1593,2.1593,2.1593,2.1593,2.0744,1.9347,1.9164,1.9164,1.9117,1.8919,1.8732,1.8587,1.8593,1.8593,1.8599,1.8676,1.872,1.8739,1.9109,1.9305,1.9305,1.9555,1.968,1.9674,1.9683,1.9594,1.9594,1.9594,1.9781,2.0147,2.0216,2.0402,2.0768,1.9854,1.9174,1.8999,1.9441,1.9961,2.0387,2.0751,2.0994,2.1047,2.129,2.1593,2.1593,2.1782,2.1956,2.2077,2.2561,2.2924,2.2984,2.3347,2.3468,2.3528,2.346,2.3528,2.346,2.3528,2.3354,2.3228,2.313,2.3073,2.3,2.283,2.2692,2.2586,2.2571,2.253,2.2464,2.2464,2.2637,2.281,2.3164,2.3788,2.4411,2.4909,2.5399,2.5741,2.5884,2.577,2.5676,2.561,2.5581,2.5402,2.5213,2.5118,2.5052,2.4993,2.4917,2.5397,2.5649,2.5974,2.6013,2.6091,2.6192,2.6317,2.6439,2.636,2.6249,2.6317,2.6504,2.3016,2.299,2.2548,2.2372,2.2335,2.1925,2.1865,2.1767,2.1767,2.1827,2.1835,2.1896,2.1835,2.1774,2.1896,2.1896,2.1782,2.1933,2.188,2.1637,2.1592,2.1485,2.1202,2.0815,2.0497,2.023,2.0189,2.0202,2.0175,2.0216,2.0236,2.0312,2.0881,2.1341,2.1279,2.2032,2.2095,2.1947,2.1955,2.1896,2.1888,2.1943,2.195,2.195,2.1958,2.1958,2.1903,2.1851,2.1563,2.1041,2.1142,2.138,2.154,2.1593,2.1653,2.1653,2.1714,2.1835,2.1903,2.2327,2.2622,2.2682,2.3105,2.3528,2.3468,2.3468,2.3528,2.3528,2.3528,2.3528,2.3528,2.3528,2.3512,2.3443,2.3358,2.3211,2.3033,2.287,2.2789,2.27,2.2578,2.2472,2.248,2.2464,2.2752,2.3155,2.3443,2.4067,2.4813,2.5271,2.5548,2.5815,2.6016,2.612,2.6015,2.6119,2.6147,2.6388,2.6034,2.574,2.5531,2.5368,2.5327,2.5816,2.625,2.6522,2.6728,2.684,2.6937,2.7048,2.7073,2.714,2.7122,2.7134,2.7016,2.3268,2.333,2.3258,2.3214,2.3162,2.3029,2.2984,2.2984,2.2984,2.2924,2.2984,2.2984,2.2924,2.2984,2.2924,2.2984,2.2964,2.3127,2.3244,2.3268,2.3379,2.2812,2.2143,2.1864,2.1669,2.1534,2.1494,2.1581,2.1596,2.1595,2.1708,2.1716,2.2035,2.2249,2.232,2.2502,2.2509,2.2573,2.2535,2.249,2.2553,2.2483,2.2505,2.2442,2.249,2.249,2.249,2.2824,2.2556,2.1738,2.174,2.1773,2.1744,2.2092,2.2335,2.238,2.2743,2.2984,2.2984,2.3105,2.3226,2.3226,2.3347,2.3468,2.3528,2.3528,2.3528,2.3528,2.3528,2.3528,2.3528,2.3528,2.3528,2.3528,2.3592,2.3434,2.3228,2.3146,2.3025,2.2781,2.2683,2.271,2.2612,2.2637,2.2867,2.3386,2.3903,2.4354,2.509,2.5615,2.5901,2.5958,2.6168,2.6386,2.6529,2.6623,2.6888,2.735,2.7187,2.6676,2.6383,2.6117,2.6191,2.6413,2.6901,2.7226,2.7432,2.7627,2.7648,2.7658,2.7768,2.7823,2.7792,2.7748,2.7471,2.428,2.4312,2.4312,2.4192,2.3951,2.3951,2.377,2.3528,2.3528,2.3528,2.3528,2.3528,2.3528,2.3528,2.3468,2.3516,2.3658,2.3755,2.3837,2.3942,2.4035,2.3541,2.2804,2.2625,2.253,2.2286,2.2348,2.2293,2.2308,2.2453,2.2427,2.2442,2.284,2.3012,2.3005,2.3329,2.3455,2.3455,2.3455,2.3455,2.3455,2.3455,2.3447,2.3455,2.3455,2.3455,2.3503,2.374,2.3551,2.3021,2.2835,2.2719,2.2572,2.286,2.3064,2.3,2.3287,2.3468,2.3528,2.3528,2.3528,2.3468,2.3528,2.3528,2.3528,2.3528,2.3528,2.3528,2.3528,2.3528,2.3588,2.3709,2.389,2.4011,2.4192,2.409,2.3494,2.3591,2.3486,2.3322,2.3348,2.3414,2.3296,2.327,2.3558,2.4018,2.4469,2.4985,2.5548,2.5901,2.6244,2.6301,2.6529,2.6862,2.7194,2.7355,2.7459,2.7951,2.8111,2.7667,2.7231,2.6863,2.6969,2.7125,2.7571,2.7875,2.7983,2.8091,2.8145,2.8199,2.836,2.8382,2.8199,2.807,2.7844,2.5525,2.5525,2.5525,2.5164,2.4622,2.4622,2.4321,2.383,2.383,2.383,2.3838,2.3794,2.3948,2.3734,2.4058,2.3925,2.4081,2.4131,2.4061,2.4199,2.4283,2.3981,2.3543,2.3426,2.3292,2.3007,2.2815,2.2855,2.2959,2.2926,2.2878,2.3053,2.351,2.3645,2.3771,2.4213,2.4529,2.4466,2.434,2.434,2.434,2.434,2.434,2.434,2.434,2.4403,2.4403,2.4505,2.4369,2.4302,2.4186,2.3892,2.38,2.3829,2.367,2.3541,2.3492,2.3528,2.3528,2.3528,2.3528,2.3528,2.3528,2.3528,2.3528,2.3528,2.3528,2.3528,2.3528,2.377,2.3951,2.4312,2.4553,2.4674,2.5104,2.4803,2.4167,2.4101,2.4231,2.4045,2.4394,2.4484,2.4384,2.4354,2.446,2.4583,2.4985,2.5262,2.5777,2.6187,2.6529,2.6815,2.7043,2.7385,2.7727,2.8058,2.8172,2.8435,2.8682,2.8509,2.7974,2.7694,2.7736,2.7849,2.8057,2.8177,2.8253,2.836,2.8414,2.8414,2.8414,2.8414,2.8382,2.821,2.8027,2.5525,2.5525,2.5525,2.5405,2.5285,2.5285,2.5164,2.5052,2.5052,2.5001,2.5087,2.5199,2.5251,2.5268,2.5328,2.558,2.5448,2.5127,2.4869,2.447,2.4511,2.4472,2.4346,2.4338,2.4236,2.4087,2.415,2.415,2.4087,2.4087,2.415,2.4213,2.434,2.4403,2.4466,2.4655,2.4592,2.4592,2.4655,2.4655,2.4655,2.4592,2.4592,2.4655,2.4655,2.4655,2.4592,2.4592,2.4576,2.4503,2.4373,2.4256,2.4032,2.3885,2.3788,2.3715,2.3593,2.3528,2.3528,2.3528,2.3528,2.3528,2.3528,2.3528,2.3528,2.3528,2.3528,2.3588,2.3951,2.4373,2.4863,2.5164,2.5285,2.5345,2.5465,2.5465,2.5156,2.5121,2.5119,2.4995,2.4879,2.4745,2.46,2.4548,2.4734,2.5108,2.5328,2.55,2.5958,2.6415,2.6815,2.7157,2.7613,2.7954,2.8409,2.8693,2.8807,2.891,2.912,2.9215,2.8718,2.8423,2.8353,2.8357,2.8371,2.8436,2.8447,2.8414,2.8414,2.8414,2.8414,2.8414,2.8404,2.8274,2.8231,2.6558,2.664,2.664,2.6458,2.6206,2.6125,2.5953,2.5763,2.5693,2.571,2.5807,2.5913,2.5948,2.5948,2.6063,2.608,2.6141,2.5996,2.575,2.5584,2.5601,2.5538,2.5538,2.5412,2.5286,2.4781,2.4592,2.4592,2.4655,2.4907,2.5034,2.5097,2.5349,2.5546,2.5538,2.5483,2.5609,2.5483,2.5231,2.5034,2.5034,2.4718,2.4844,2.5105,2.5349,2.5546,2.5601,2.5546,2.5349,2.5135,2.4943,2.4685,2.4264,2.4023,2.3902,2.3788,2.3634,2.3536,2.3528,2.3528,2.3528,2.3528,2.3528,2.3528,2.3528,2.3528,2.3709,2.3951,2.4321,2.4743,2.5405,2.5817,2.5877,2.5997,2.6237,2.6367,2.6367,2.6117,2.5866,2.5746,2.5848,2.5748,2.5539,2.5211,2.5238,2.5728,2.5681,2.5853,2.6015,2.6529,2.71,2.7556,2.8068,2.858,2.9091,2.9374,2.9431,2.9488,2.9512,2.9593,2.9387,2.9098,2.893,2.8802,2.8619,2.8468,2.8479,2.8447,2.8425,2.8414,2.8414,2.8414,2.8404,2.8371,2.835,2.7849,2.8001,2.8001,2.7685,2.7167,2.6959,2.6733,2.6422,2.6236,2.6349,2.6396,2.6432,2.6643,2.6529,2.6574,2.6539,2.6548,2.669,2.6607,2.6365,2.6365,2.6365,2.6428,2.6302,2.5987,2.4979,2.5034,2.5034,2.516,2.5412,2.5735,2.5861,2.6239,2.6365,2.649,2.6553,2.6428,2.6302,2.5987,2.5735,2.5727,2.5286,2.5349,2.5735,2.6113,2.6365,2.6365,2.6365,2.6302,2.5798,2.5735,2.5336,2.4819,2.4202,2.4023,2.3861,2.3699,2.3585,2.3536,2.3528,2.3528,2.3528,2.3528,2.3528,2.3528,2.3649,2.3951,2.4373,2.4734,2.5216,2.5706,2.6237,2.6538,2.6648,2.7077,2.7317,2.7317,2.6888,2.6506,2.6405,2.6472,2.6474,2.6423,2.6255,2.6269,2.6243,2.6196,2.6215,2.6329,2.671,2.7348,2.7954,2.8523,2.8977,2.9431,2.9601,2.9714,2.9714,2.976,2.9749,2.9739,2.9556,2.9265,2.8974,2.878,2.863,2.8479,2.8414,2.8447,2.8436,2.8414,2.8414,2.8414,2.8414,2.8404,2.7972,2.8001,2.8001,2.7939,2.7817,2.7779,2.7675,2.7685,2.7553,2.7657,2.7661,2.7819,2.7832,2.7869,2.808,2.7905,2.7486,2.7406,2.7182,2.6805,2.6742,2.6805,2.6805,2.6868,2.6553,2.6365,2.6239,2.6239,2.6176,2.6365,2.6428,2.649,2.6679,2.6742,2.6742,2.6616,2.6805,2.6868,2.6553,2.6428,2.6365,2.6302,2.6239,2.649,2.6679,2.6742,2.6742,2.6679,2.6553,2.6428,2.6428,2.6347,2.5901,2.4998,2.4397,2.4208,2.4081,2.3917,2.3827,2.3597,2.3528,2.3528,2.3528,2.3528,2.3588,2.3951,2.4381,2.4794,2.5516,2.6288,2.7017,2.7077,2.7197,2.7257,2.7257,2.7377,2.7377,2.7248,2.7128,2.7044,2.7109,2.7056,2.6895,2.6744,2.6602,2.6479,2.6403,2.6385,2.651,2.7093,2.7844,2.8383,2.8977,2.9374,2.976,2.9704,2.9771,2.9771,2.976,2.976,2.9749,2.9806,2.9556,2.9276,2.8985,2.8759,2.863,2.849,2.8404,2.8436,2.8425,2.8425,2.8414,2.8414,2.8414,2.8227,2.8322,2.8322,2.8322,2.8303,2.8208,2.8227,2.8293,2.8218,2.8227,2.8322,2.8426,2.8473,2.8501,2.8558,2.8364,2.8176,2.8114,2.7935,2.7621,2.7621,2.7621,2.7559,2.7559,2.7621,2.7621,2.7621,2.7182,2.6742,2.6993,2.711,2.7245,2.7433,2.7621,2.7621,2.7684,2.7621,2.7559,2.7307,2.7119,2.7119,2.711,2.7119,2.7173,2.7424,2.7621,2.7621,2.7621,2.7496,2.7236,2.7119,2.6922,2.6527,2.6027,2.5389,2.5248,2.4941,2.4808,2.4568,2.4327,2.4011,2.3951,2.377,2.3528,2.3649,2.4071,2.4794,2.5516,2.6237,2.7017,2.7317,2.7377,2.7377,2.7377,2.7377,2.7377,2.7377,2.7377,2.7377,2.7377,2.7301,2.7188,2.7065,2.6933,2.6819,2.6715,2.6621,2.67,2.6827,2.7595,2.8416,2.8849,2.9331,2.9541,2.9803,2.9782,2.9771,2.976,2.976,2.976,2.976,2.976,2.9739,2.9599,2.9297,2.9006,2.8748,2.8619,2.85,2.8404,2.8447,2.8447,2.8425,2.8414,2.8414,2.8473,2.8624,2.8624,2.8624,2.8596,2.8454,2.8401,2.8568,2.8445,2.8464,2.8605,2.8615,2.8615,2.8615,2.8615,2.8562,2.8624,2.8562,2.8499,2.8499,2.8436,2.8562,2.8562,2.8624,2.8499,2.8374,2.8374,2.806,2.7433,2.7549,2.78,2.7926,2.8374,2.8624,2.8499,2.8374,2.8562,2.8436,2.8114,2.78,2.78,2.78,2.78,2.78,2.8302,2.8562,2.8436,2.8436,2.8239,2.7926,2.7738,2.7549,2.7119,2.6993,2.6913,2.6726,2.623,2.593,2.559,2.5199,2.4802,2.4691,2.4192,2.4011,2.4131,2.4734,2.5396,2.6408,2.7017,2.7317,2.7377,2.7377,2.7377,2.7377,2.7377,2.7377,2.7377,2.7377,2.7377,2.7377,2.7377,2.732,2.7197,2.7209,2.7105,2.7326,2.723,2.7484,2.7687,2.8326,2.896,2.9355,2.9708,2.9762,2.9868,2.986,2.9782,2.976,2.976,2.976,2.976,2.976,2.9739,2.9717,2.9631,2.9329,2.9039,2.877,2.8683,2.8597,2.849,2.8414,2.8436,2.8425,2.8414,2.8605,2.8624,2.8624,2.8624,2.8615,2.8524,2.8596,2.8615,2.8586,2.8596,2.8624,2.8624,2.8624,2.8624,2.8624,2.8624,2.8624,2.8624,2.8624,2.8624,2.8624,2.8624,2.8624,2.8624,2.8624,2.8624,2.8624,2.8562,2.8248,2.8311,2.8436,2.8499,2.8499,2.8624,2.8624,2.8624,2.8624,2.8562,2.8499,2.8436,2.8436,2.8436,2.8436,2.8427,2.8562,2.8624,2.8624,2.8624,2.8499,2.8499,2.8436,2.8436,2.8374,2.8374,2.8364,2.7905,2.717,2.6107,2.6026,2.5798,2.5571,2.5423,2.519,2.5233,2.5276,2.5637,2.6298,2.7137,2.7377,2.7377,2.7377,2.7377,2.7377,2.7377,2.7377,2.7377,2.7377,2.7377,2.7377,2.7377,2.7377,2.7377,2.732,2.7421,2.7452,2.7665,2.7953,2.8158,2.8557,2.9132,2.9578,2.9964,3.0014,3.0047,2.9975,2.99,2.9881,2.9792,2.9771,2.9771,2.976,2.976,2.976,2.9739,2.9685,2.9631,2.9362,2.9125,2.8942,2.8802,2.8705,2.8543,2.8393,2.8447,2.8522,2.9312,2.8624,2.8624,2.8624,2.8624,2.8624,2.8624,2.8624,2.8624,2.8624,2.8624,2.8624,2.8624,2.8624,2.8624,2.8624,2.8624,2.8624,2.8624,2.8624,2.8624,2.8624,2.8624,2.8624,2.8624,2.8624,2.8624,2.8624,2.8624,2.8624,2.8624,2.8624,2.8624,2.8624,2.8624,2.8624,2.8624,2.8562,2.8562,2.8562,2.8624,2.8624,2.8624,2.8624,2.8624,2.8624,2.8624,2.8624,2.8624,2.8624,2.8624,2.8624,2.8562,2.8562,2.8562,2.8543,2.8039,2.7534,2.7234,2.6772,2.6426,2.61,2.5977,2.57,2.5973,2.6288,2.6708,2.7317,2.7377,2.7377,2.7377,2.7377,2.7377,2.7377,2.7377,2.7377,2.7377,2.7377,2.7377,2.7377,2.7377,2.7377,2.7497,2.7717,2.7877,2.8117,2.8514,2.8948,2.9388,2.9983,3.0293,3.0522,3.0434,3.0288,3.0148,3.004,2.9911,2.9846,2.9828,2.9828,2.9771,2.976,2.976,2.976,2.9739,2.9663,2.9588,2.9426,2.9189,2.905,2.892,2.8791,2.8694,2.8814,2.8835,3.0,2.9125,2.9125,2.9125,2.9125,2.9115,2.9125,2.9125,2.9125,2.9125,2.9053,2.8928,2.8803,2.8624,2.8624,2.8624,2.8624,2.8624,2.8624,2.8624,2.8624,2.8624,2.8624,2.8624,2.8624,2.8624,2.8624,2.8624,2.8624,2.8624,2.8624,2.8624,2.8624,2.8624,2.8624,2.8624,2.8624,2.8624,2.8624,2.8624,2.8624,2.8624,2.8624,2.8624,2.8624,2.8624,2.8624,2.8624,2.8624,2.8624,2.8624,2.8624,2.8624,2.8624,2.8624,2.8562,2.8408,2.8352,2.804,2.7696,2.7308,2.6977,2.6649,2.6488,2.6565,2.6648,2.6768,2.7377,2.7377,2.7377,2.7377,2.7377,2.7377,2.7377,2.7377,2.7377,2.7377,2.7377,2.7377,2.7377,2.7377,2.7377,2.7616,2.7985,2.8274,2.8583,2.905,2.9646,3.0099,3.0585,3.0789,3.0901,3.0671,3.0535,3.0428,3.0266,3.0105,2.9911,2.9892,2.9828,2.9828,2.9771,2.976,2.976,2.976,2.9739,2.9674,2.9566,2.9448,2.9286,2.9146,2.9103,2.9071,2.9114,2.9116,3.0561,3.0499,3.0436,3.0436,3.0374,3.0499,3.0436,3.0312,3.0374,3.0312,3.0187,2.9812,2.924,2.8875,2.8812,2.8749,2.8624,2.8624,2.8624,2.8624,2.8624,2.8624,2.8624,2.8624,2.8624,2.8624,2.8624,2.8624,2.8624,2.8624,2.8624,2.8624,2.8624,2.8624,2.8624,2.8624,2.8624,2.8624,2.8624,2.8624,2.8624,2.8624,2.8624,2.8624,2.8624,2.8624,2.8624,2.8624,2.8624,2.8624,2.8624,2.8624,2.8624,2.8624,2.8624,2.8624,2.8624,2.8596,2.8386,2.8264,2.8137,2.7878,2.762,2.726,2.7221,2.7276,2.7377,2.7377,2.7377,2.7377,2.7377,2.7377,2.7377,2.7377,2.7377,2.7377,2.7377,2.7377,2.7377,2.7377,2.7377,2.7377,2.7437,2.7805,2.8284,2.8523,2.9229,2.9815,3.042,3.088,3.102,3.1085,3.0886,3.0757,3.0681,3.0499,3.0299,3.0072,2.9943,2.9846,2.9828,2.9828,2.9771,2.976,2.976,2.976,2.976,2.9663,2.9577,2.9459,2.9373,2.9351,2.9297,2.9286,2.9267,3.1806,3.1796,3.1858,3.1371,3.0623,3.0623,3.0623,3.0623,3.0623,3.0623,3.0623,3.0312,3.0062,2.9875,2.9803,2.9553,2.9303,2.924,2.899,2.8687,2.8624,2.8624,2.8624,2.8624,2.8624,2.8624,2.8624,2.8624,2.8624,2.8624,2.8624,2.8624,2.8624,2.8624,2.8624,2.8624,2.8624,2.8624,2.8624,2.8624,2.8624,2.8624,2.8624,2.8624,2.8624,2.8624,2.8624,2.8624,2.8624,2.8624,2.8624,2.8624,2.8624,2.8624,2.8624,2.8624,2.8624,2.8624,2.8624,2.853,2.8416,2.818,2.7915,2.766,2.7547,2.7462,2.7396,2.7377,2.7377,2.7377,2.7377,2.7377,2.7377,2.7377,2.7377,2.7377,2.7377,2.7377,2.7377,2.7377,2.7377,2.7377,2.7497,2.7556,2.8045,2.8523,2.9289,2.9993,3.0539,3.1014,3.1144,3.1192,3.1063,3.0907,3.0821,3.0628,3.0402,3.0219,3.0072,2.9986,2.9957,2.9828,2.9828,2.9828,2.9771,2.976,2.976,2.976,2.9706,2.9599,2.9588,2.9666,2.9601,2.9459,2.9394,3.2603,3.2603,3.2603,3.2044,3.1246,3.1174,3.1184,3.1184,3.1236,3.106,3.0873,3.0935,3.0748,3.0686,3.0561,3.0374,2.999,2.9865,2.9428,2.9187,2.8928,2.8812,2.8687,2.8624,2.8624,2.8624,2.8624,2.8624,2.8624,2.8624,2.8624,2.8624,2.8624,2.8624,2.8624,2.8624,2.8624,2.8624,2.8624,2.8624,2.8624,2.8624,2.8624,2.8624,2.8624,2.8624,2.8624,2.8624,2.8624,2.8624,2.8624,2.8624,2.8624,2.8624,2.8624,2.8624,2.8624,2.8624,2.8624,2.8605,2.853,2.8293,2.801,2.7812,2.767,2.7509,2.7386,2.7377,2.7377,2.7377,2.7377,2.7377,2.7377,2.7377,2.7377,2.7377,2.7377,2.7377,2.7377,2.7377,2.7377,2.7377,2.7437,2.7497,2.7856,2.8453,2.9408,2.9993,3.0291,3.0777,3.1133,3.1192,3.1171,3.1074,3.0977,3.0746,3.0585,3.0499,3.0374,3.0212,3.0162,3.0022,2.9879,2.9922,2.9889,2.9803,2.9771,2.9828,2.9771,2.9749,2.9739,2.9774,2.9763,2.962,2.9609,3.2603,3.2603,3.2603,3.2541,3.2417,3.2541,3.2479,3.2355,3.2355,3.2106,3.1609,3.1557,3.1309,3.0873,3.0935,3.08,3.0623,3.0561,3.0187,2.9678,2.9428,2.9178,2.8875,2.8687,2.8624,2.8624,2.8624,2.8624,2.8624,2.8624,2.8624,2.8624,2.8624,2.8624,2.8624,2.8624,2.8624,2.8624,2.8624,2.8624,2.8624,2.8624,2.8624,2.8624,2.8624,2.8624,2.8624,2.8624,2.8624,2.8624,2.8624,2.8624,2.8624,2.8624,2.8624,2.8624,2.8624,2.8624,2.8624,2.8624,2.853,2.8379,2.8133,2.7944,2.7726,2.7537,2.7396,2.7396,2.7377,2.7377,2.7377,2.7377,2.7377,2.7377,2.7377,2.7377,2.7377,2.7377,2.7377,2.7377,2.7377,2.7377,2.7377,2.7497,2.7736,2.8394,2.9458,2.9993,3.0172,3.0658,3.1133,3.1192,3.1192,3.116,3.1074,3.0896,3.0778,3.0703,3.0643,3.046,3.0331,3.0202,3.0148,3.0058,3.0062,2.9997,2.9935,2.9828,2.9828,2.976,2.976,2.9749,2.976,2.9749,2.9717,3.2603,3.2603,3.2603,3.2603,3.2603,3.2603,3.2603,3.2603,3.2603,3.2479,3.2292,3.223,3.2168,3.1982,3.1806,3.1609,3.1309,3.1246,3.0925,3.0239,2.9927,2.9553,2.9178,2.8875,2.8624,2.8624,2.8624,2.8624,2.8624,2.8624,2.8624,2.8624,2.8624,2.8624,2.8624,2.8624,2.8624,2.8624,2.8624,2.8624,2.8624,2.8624,2.8624,2.8624,2.8624,2.8624,2.8624,2.8624,2.8624,2.8624,2.8624,2.8624,2.8624,2.8624,2.8624,2.8624,2.8624,2.8624,2.8624,2.8615,2.8596,2.8473,2.8312,2.8095,2.7906,2.7717,2.7556,2.7415,2.7386,2.7377,2.7377,2.7377,2.7377,2.7377,2.7377,2.7377,2.7377,2.7377,2.7377,2.7377,2.7377,2.7377,2.7377,2.7377,2.7616,2.7975,2.8931,2.9468,2.9646,3.0539,3.1192,3.1192,3.1192,3.1192,3.1149,3.1052,3.0907,3.0821,3.0724,3.0665,3.0535,3.0449,3.0395,3.0363,3.0288,3.0202,3.004,2.9889,2.9792,2.976,2.976,2.976,2.976,2.976,2.9749,3.2603,3.2603,3.2603,3.2603,3.2603,3.2603,3.2603,3.2603,3.2603,3.2603,3.2603,3.2603,3.2541,3.2541,3.2541,3.2479,3.1982,3.192,3.162,3.0935,3.0551,3.0052,2.9615,2.9178,2.8875,2.8687,2.8624,2.8624,2.8624,2.8624,2.8624,2.8624,2.8624,2.8624,2.8624,2.8624,2.8624,2.8624,2.8624,2.8624,2.8624,2.8624,2.8624,2.8624,2.8624,2.8624,2.8624,2.8624,2.8624,2.8624,2.8624,2.8624,2.8624,2.8624,2.8624,2.8624,2.8624,2.8624,2.8624,2.8624,2.8615,2.8596,2.8435,2.8227,2.8019,2.7793,2.7585,2.7452,2.7396,2.7377,2.7377,2.7377,2.7377,2.7377,2.7377,2.7377,2.7377,2.7377,2.7377,2.7377,2.7377,2.7377,2.7377,2.7377,2.7497,2.7856,2.8274,2.8752,2.9289,3.0182,3.1073,3.1192,3.1192,3.1192,3.1192,3.1171,3.1074,3.0988,3.0912,3.0848,3.0815,3.074,3.0675,3.0578,3.046,3.0331,3.0159,3.0019,2.9911,2.9814,2.976,2.976,2.976,2.976,2.976,3.2603,3.2603,3.2603,3.2603,3.2603,3.2603,3.2603,3.2603,3.2603,3.2603,3.2603,3.2603,3.2603,3.2603,3.2603,3.2541,3.2479,3.2479,3.2168,3.1744,3.136,3.0676,3.0115,2.9678,2.9303,2.8865,2.8687,2.8812,2.8624,2.8624,2.8624,2.8624,2.8624,2.8624,2.8624,2.8624,2.8624,2.8624,2.8624,2.8624,2.8624,2.8624,2.8624,2.8624,2.8624,2.8624,2.8624,2.8624,2.8624,2.8624,2.8624,2.8624,2.8624,2.8624,2.8624,2.8624,2.8624,2.8624,2.8624,2.8624,2.8624,2.8605,2.8401,2.8246,2.8038,2.784,2.766,2.7481,2.7377,2.7377,2.7377,2.7377,2.7377,2.7377,2.7377,2.7377,2.7377,2.7377,2.7377,2.7377,2.7377,2.7377,2.7377,2.7377,2.7437,2.7676,2.8095,2.8692,2.9229,2.9874,3.0658,3.1192,3.1192,3.1192,3.1192,3.1192,3.1171,3.1074,3.1106,3.1063,3.1041,3.0988,3.0912,3.0794,3.0632,3.0471,3.0299,3.0148,3.0008,2.9911,2.9782,2.976,2.976,2.976,2.976,3.2603,3.2603,3.2603,3.2603,3.2603,3.2603,3.2603,3.2603,3.2603,3.2603,3.2603,3.2603,3.2603,3.2603,3.2603,3.2603,3.2603,3.2541,3.2479,3.223,3.1858,3.1423,3.0987,3.0489,2.9927,2.9553,2.9303,2.9115,2.8687,2.8624,2.8624,2.8624,2.8624,2.8624,2.8624,2.8624,2.8624,2.8624,2.8624,2.8624,2.8624,2.8624,2.8624,2.8624,2.8624,2.8624,2.8624,2.8624,2.8624,2.8624,2.8624,2.8624,2.8624,2.8624,2.8624,2.8624,2.8624,2.8624,2.8624,2.8624,2.8624,2.8624,2.8549,2.8331,2.8114,2.7906,2.7726,2.7556,2.7396,2.7377,2.7377,2.7377,2.7377,2.7377,2.7377,2.7377,2.7377,2.7377,2.7377,2.7377,2.7377,2.7377,2.7377,2.7377,2.7437,2.7556,2.7915,2.8573,2.9229,2.9874,3.041,3.1014,3.1192,3.1192,3.1192,3.1192,3.1192,3.1181,3.1192,3.1192,3.1149,3.1106,3.1095,3.1009,3.0848,3.0643,3.0438,3.0309,3.0202,2.9922,2.9838,2.9771,2.976,2.976,2.976,3.2851,3.2603,3.2603,3.2603,3.2603,3.2603,3.2603,3.2603,3.2603,3.2603,3.2603,3.2603,3.2603,3.2603,3.2603,3.2603,3.2603,3.2603,3.2541,3.2417,3.2168,3.1858,3.1485,3.1174,3.0623,3.0239,2.9927,2.9687,2.9053,2.8687,2.8624,2.8624,2.8624,2.8624,2.8624,2.8624,2.8624,2.8624,2.8624,2.8624,2.8624,2.8624,2.8624,2.8624,2.8624,2.8624,2.8624,2.8624,2.8624,2.8624,2.8624,2.8624,2.8624,2.8624,2.8624,2.8624,2.8624,2.8624,2.8624,2.8624,2.8624,2.8624,2.8615,2.8379,2.8171,2.7963,2.7783,2.7604,2.7471,2.7377,2.7377,2.7377,2.7377,2.7377,2.7377,2.7377,2.7377,2.7377,2.7377,2.7377,2.7377,2.7377,2.7377,2.7377,2.7556,2.7865,2.8214,2.8752,2.9398,2.9934,3.0528,3.1073,3.1144,3.1192,3.1192,3.1192,3.1192,3.1192,3.1192,3.1192,3.1192,3.1181,3.1149,3.1117,3.1063,3.0858,3.0632,3.0546,3.0417,3.0115,2.9889,2.9879,2.9846,2.976,2.976,3.3284,3.2727,3.2603,3.2603,3.2603,3.2603,3.2603,3.2603,3.2603,3.2603,3.2603,3.2603,3.2603,3.2603,3.2603,3.2603,3.2603,3.2603,3.2603,3.2603,3.2479,3.223,3.192,3.1609,3.1298,3.0873,3.0561,3.0239,2.9553,2.899,2.8624,2.8624,2.8624,2.8624,2.8624,2.8624,2.8624,2.8624,2.8624,2.8624,2.8624,2.8624,2.8624,2.8624,2.8624,2.8624,2.8624,2.8624,2.8624,2.8624,2.8624,2.8624,2.8624,2.8624,2.8624,2.8624,2.8624,2.8624,2.8624,2.8624,2.8624,2.8624,2.8615,2.8454,2.8275,2.8038,2.7859,2.7594,2.7434,2.7386,2.7377,2.7377,2.7377,2.7377,2.7377,2.7377,2.7377,2.7377,2.7377,2.7377,2.7377,2.7377,2.7377,2.7437,2.7616,2.8045,2.8573,2.905,2.9646,3.0172,3.0609,3.1154,3.1133,3.1192,3.1192,3.1192,3.1192,3.1192,3.1192,3.1192,3.1192,3.1192,3.1192,3.116,3.1128,3.102,3.0858,3.0681,3.051,3.0309,3.0115,3.0051,2.9965,2.9889,2.9782,3.3965,3.3346,3.2789,3.2603,3.2603,3.2603,3.2603,3.2603,3.2603,3.2603,3.2603,3.2603,3.2603,3.2603,3.2603,3.2603,3.2603,3.2603,3.2603,3.2603,3.2603,3.2541,3.2355,3.223,3.193,3.1557,3.1184,3.0551,2.9678,2.899,2.8624,2.8624,2.8624,2.8624,2.8624,2.8624,2.8624,2.8624,2.8624,2.8624,2.8624,2.8624,2.8624,2.8624,2.8624,2.8624,2.8624,2.8624,2.8624,2.8624,2.8624,2.8624,2.8624,2.8624,2.8624,2.8624,2.8624,2.8624,2.8624,2.8624,2.8624,2.8624,2.8615,2.8568,2.8416,2.8161,2.7887,2.7613,2.7424,2.7396,2.7377,2.7377,2.7377,2.7377,2.7377,2.7377,2.7377,2.7377,2.7377,2.7377,2.7377,2.7377,2.7377,2.7556,2.7796,2.8214,2.8812,2.9408,3.0014,3.0609,3.084,3.1197,3.1203,3.1192,3.1192,3.1192,3.1192,3.1192,3.1192,3.1192,3.1192,3.1192,3.1192,3.1192,3.116,3.1063,3.0977,3.081,3.0628,3.0471,3.0385,3.032,3.0245,3.0159,2.9965,3.4312,3.365,3.3086,3.2764,3.2592,3.2603,3.2603,3.2603,3.2603,3.2603,3.2603,3.2603,3.2603,3.2603,3.2603,3.2603,3.2603,3.2603,3.2603,3.2603,3.2603,3.2603,3.2603,3.2541,3.2106,3.1744,3.0863,3.0115,2.9553,2.899,2.8624,2.8624,2.8624,2.8624,2.8624,2.8624,2.8624,2.8624,2.8624,2.8624,2.8624,2.8624,2.8624,2.8624,2.8624,2.8624,2.8624,2.8624,2.8624,2.8624,2.8624,2.8624,2.8624,2.8624,2.8624,2.8624,2.8624,2.8624,2.8624,2.8624,2.8624,2.8624,2.8624,2.8586,2.8397,2.8142,2.8001,2.7736,2.7452,2.7386,2.7377,2.7377,2.7377,2.7377,2.7377,2.7377,2.7377,2.7377,2.7377,2.7377,2.7377,2.7377,2.7377,2.7437,2.7796,2.8633,2.9229,2.9766,3.0431,3.0911,3.1191,3.1311,3.1278,3.1214,3.1192,3.1192,3.1192,3.1192,3.1192,3.1192,3.1192,3.1192,3.1192,3.1192,3.1192,3.1149,3.1063,3.0929,3.0821,3.0649,3.0643,3.06,3.0514,3.0475,3.0338,3.4526,3.3813,3.3383,3.2919,3.2611,3.2592,3.2603,3.2603,3.2603,3.2603,3.2603,3.2603,3.2603,3.2603,3.2603,3.2603,3.2603,3.2603,3.2603,3.2603,3.2603,3.2603,3.2541,3.2417,3.192,3.1174,3.0364,2.999,2.9615,2.899,2.8624,2.8624,2.8624,2.8624,2.8624,2.8624,2.8624,2.8624,2.8624,2.8624,2.8624,2.8624,2.8624,2.8624,2.8624,2.8624,2.8624,2.8624,2.8624,2.8624,2.8624,2.8624,2.8624,2.8624,2.8624,2.8624,2.8624,2.8624,2.8624,2.8624,2.8624,2.8624,2.8624,2.8539,2.836,2.8218,2.8076,2.7887,2.7613,2.7405,2.7396,2.7377,2.7377,2.7386,2.7386,2.7386,2.7386,2.7386,2.7377,2.7377,2.7377,2.7377,2.7377,2.7377,2.7975,2.8871,2.9587,3.0182,3.0749,3.1055,3.1369,3.1418,3.1386,3.1321,3.1268,3.1192,3.1192,3.1192,3.1192,3.1192,3.1192,3.1192,3.1192,3.1192,3.1181,3.1171,3.1171,3.1128,3.102,3.096,3.0901,3.0848,3.082,3.077,3.0713,3.4864,3.3742,3.3372,3.2893,3.2417,3.2578,3.2603,3.2603,3.2603,3.2603,3.2603,3.2603,3.2603,3.2603,3.2603,3.2603,3.2603,3.2603,3.2603,3.2603,3.2603,3.2603,3.2417,3.2044,3.1423,3.0676,2.999,2.9678,2.9365,2.8865,2.8624,2.8624,2.8624,2.8624,2.8624,2.8624,2.8624,2.8624,2.8624,2.8624,2.8624,2.8624,2.8624,2.8624,2.8624,2.8624,2.8624,2.8624,2.8624,2.8624,2.8624,2.8624,2.8624,2.8624,2.8624,2.8624,2.8624,2.8624,2.8624,2.8624,2.8624,2.8624,2.8624,2.8615,2.8464,2.835,2.8227,2.8133,2.784,2.75,2.7434,2.7386,2.7377,2.7396,2.7396,2.7405,2.7405,2.7396,2.7377,2.7377,2.7377,2.7377,2.7377,2.7556,2.7915,2.8692,2.9289,2.9885,3.0798,3.1196,3.1597,3.1575,3.1532,3.1564,3.1532,3.1246,3.1192,3.1192,3.1192,3.1192,3.1192,3.1192,3.1192,3.1192,3.1203,3.1192,3.1203,3.137,3.1397,3.1369,3.1176,3.1095,3.1175,3.1291,3.1361]},{"header":{"parameterUnit":"m.s-1","parameterCategory":1,"la1":31.0,"la2":29.5877,"lo1":-88.7671,"lo2":-86.6584,"dy":0.0162,"dx":0.0185,"nx":115,"ny":88,"refTime":"2023-09-30T18:00:00:Z","depth":0,"parameterNumber":3,"parameterNumberName":"V-component_of_WINDS"},"data":[0.0,0.0,0.0,0.0,0.0,0.0,0.0,0.0,0.0,0.0,0.0,0.0,0.0,0.0,0.0,0.0,0.0,0.0,0.0,0.0,0.0,0.0,0.0,0.0,0.0,0.0,0.0,0.0,0.0,0.0,0.0,0.0,0.0,0.0,0.0,0.0,0.0,0.0,0.0,0.0,0.0,0.0,0.0,0.0,0.0,0.0,0.0,0.0,0.0,0.0,0.0,0.0,0.0,0.0,0.0,0.0,0.0,0.0,0.0,0.0,0.0,0.0,0.0,0.0,0.0,0.0,0.0,0.0,0.0,0.0,0.0,0.0,0.0,0.0,0.0,0.0,0.0,0.0,0.0,0.0,0.0,0.0,0.0,0.0,0.0,0.0,0.0,0.0,0.0,0.0,0.0,0.0,0.0,0.0,0.0,0.0,0.0,0.0,0.0,0.0,0.0,0.0,0.0,0.0,0.0,0.0,0.0,0.0,0.0,0.0,0.0,0.0,0.0,0.0,0.0,0.0,0.0,0.0,0.0,0.0,0.0,0.0,0.0,0.0,0.0,0.0,0.0,0.0,0.0,0.0,0.0,0.0,0.0,0.0,0.0,0.0,0.0,0.0,0.0,0.0,0.0,0.0,0.0,0.0,0.0,0.0,0.0,0.0,0.0,0.0,0.0,0.0,0.0,0.0,0.0,0.0,0.0,0.0,0.0,0.0,0.0,0.0,0.0,0.0,0.0,0.0,0.0,0.0,0.0,0.0,0.0,0.0,0.0,0.0,0.0,0.0,0.0,0.0,0.0,0.0,0.0,0.0,0.0,0.0,0.0,0.0,0.0,0.0,0.0,0.0,0.0,0.0,0.0,0.0,0.0,0.0,0.0,0.0,0.0,0.0,0.0,0.0,0.0,0.0,0.0,0.0,0.0,0.0,0.0,0.0,0.0,0.0,0.0,0.0,0.0,0.0,0.0,0.0,0.0,0.0,0.0,0.0,0.0,0.0,0.0,0.0,0.0,0.0,0.0,0.0,0.0,0.0,0.0,0.0,0.0,0.0,0.0,0.0,0.0,0.0,0.0,0.0,0.0,0.0,0.0,0.0,0.0,0.0,0.0,0.0,0.0,0.0,0.0,0.0,0.0,0.0,0.0,0.0,0.0,0.0,0.0,0.0,0.0,0.0,0.0,0.0,0.0,0.0,0.0,0.0,0.0,0.0,0.0,0.0,0.0,0.0,0.0,0.0,0.0,0.0,0.0,0.0,0.0,0.0,0.0,0.0,0.0,0.0,0.0,0.0,0.0,0.0,0.0,0.0,0.0,0.0,0.0,0.0,0.0,0.0,0.0,0.0,0.0,0.0,0.0,0.0,0.0,0.0,0.0,0.0,0.0,0.0,0.0,0.0,0.0,0.0,0.0,0.0,0.0,0.0,0.0,0.0,0.0,0.0,0.0,0.0,0.0,0.0,0.0,0.0,0.0,0.0,0.0,0.0,0.0,0.0,0.0,0.0,0.0,0.0,0.0,0.0,0.0,0.0,0.0,0.0,0.0,0.0,0.0,0.0,0.0,0.0,0.0,0.0,0.0,0.0,0.0,0.0,0.0,0.0,0.0,0.0,0.0,0.0,0.0,0.0,0.0,0.0,0.0,0.0,0.0,0.0,0.0,0.0,0.0,0.0,0.0,0.0,0.0,0.0,0.0,0.0,0.0,0.0,0.0,0.0,0.0,0.0,0.0,0.0,0.0,0.0,0.0,0.0,0.0,0.0,0.0,0.0,0.0,0.0,0.0,0.0,0.0,0.0,0.0,0.0,0.0,0.0,0.0,0.0,0.0,0.0,0.0,0.0,0.0,0.0,0.0,0.0,0.0,0.0,0.0,0.0,0.0,0.0,0.0,0.0,0.0,0.0,0.0,0.0,0.0,0.0,0.0,0.0,0.0,0.0,0.0,0.0,0.0,0.0,0.0,0.0,0.0,0.0,0.0,0.0,0.0,0.0,0.0,0.0,0.0,0.0,0.0,0.0,0.0,0.0,0.0,0.0,0.0,0.0,0.0,0.0,0.0,0.0,0.0,0.0,0.0,0.0,0.0,0.0,0.0,0.0,0.0,0.0,0.0,0.0,0.0,0.0,0.0,0.0,0.0,0.0,0.0,0.0,0.0,0.0,0.0,0.0,0.0,0.0,0.0,0.0,0.0,0.0,0.0,0.0,0.0,0.0,0.0,0.0,0.0,0.0,0.0,0.0,0.0,0.0,0.0,0.0,0.0,0.0,0.0,0.0,0.0,0.0,0.0,0.0,0.0,0.0,0.0,0.0,0.0,0.0,0.0,0.0,0.0,0.0,0.0,0.0,0.0,0.0,0.0,0.0,0.0,0.0,0.0,0.0,0.0,0.0,0.0,0.0,0.0,0.0,0.0,0.0,0.0,0.0,0.0,0.0,0.0,0.0,0.0,0.0,0.0,0.0,0.0,0.0,0.0,0.0,0.0,0.0,0.0,0.0,0.0,0.0,0.0,0.0,0.0,0.0,0.0,0.0,0.0,0.0,0.0,0.0,0.0,0.0,0.0,0.0,0.0,0.0,0.0,0.0,0.0,0.0,0.0,0.0,0.0,0.0,0.0,0.0,0.0,0.0,0.0,0.0,0.0,0.0,0.0,0.0,0.0,0.0,0.0,0.0,0.0,0.0,0.0,0.0,0.0,0.0,0.0,0.0,0.0,0.0,0.0,0.0,0.0,0.0,0.0,0.0,0.0,0.0,0.0,0.0,0.0,0.0,0.0,0.0,0.0,0.0,0.0,0.0,0.0,0.0,0.0,0.0,0.0,0.0,0.0,0.0,0.0,0.0,0.0,0.0,0.0,0.0,0.0,0.0,0.0,0.0,0.0,0.0,0.0,0.0,0.0,0.0,0.0,0.0,0.0,0.0,0.0,0.0,0.0,0.0,0.0,0.0,0.0,0.0,0.0,0.0,0.0,0.0,0.0,0.0,0.0,0.0,0.0,0.0,0.0,0.0,0.0,0.0,0.0,0.0,0.0,0.0,0.0,0.0,0.0,0.0,0.0,0.0,0.0,0.0,0.0,0.0,0.0,0.0,0.0,0.0,0.0,0.0,0.0,0.0,0.0,0.0,0.0,0.0,0.0,0.0,0.0,0.0,0.0,0.0,0.0,0.0,0.0,0.0,0.0,0.0,0.0,0.0,0.0,0.0,0.0,0.0,0.0,0.0,0.0,0.0,0.0,0.0,0.0,0.0,0.0,0.0,0.0,0.0,0.0,0.0,0.0,0.0,0.0,0.0,0.0,0.0,0.0,0.0,0.0,0.0,0.0,0.0,0.0,0.0,0.0,0.0,0.0,0.0,0.0,0.0,0.0,0.0,0.0,0.0,0.0,0.0,0.0,0.0,0.0,0.0,0.0,0.0,0.0,0.0,0.0,0.0,0.0,0.0,0.0,0.0,0.0,0.0,0.0,0.0,0.0,0.0,0.0,0.0,0.0,0.0,0.0,0.0,0.0,0.0,0.0,0.0,0.0,0.0,0.0,0.0,0.0,0.0,0.0,0.0,0.0,0.0,0.0,0.0,0.0,0.0,0.0,0.0,0.0,0.0,0.0,0.0,0.0,0.0,0.0,0.0,0.0,0.0,0.0,0.0,0.0,0.0,0.0,0.0,0.0,0.0,0.0,0.0,0.0,0.0,0.0,0.0,0.0,0.0,0.0,0.0,0.0,0.0,0.0,0.0,0.0,0.0,0.0,0.0,0.0,0.0,0.0,0.0,0.0,0.0,0.0,0.0,0.0,0.0,0.0,0.0,0.0,0.0,0.0,0.0,0.0,0.0,0.0,0.0,0.0,0.0,0.0,0.0,0.0,0.0,0.0,0.0,0.0,0.0,0.0,0.0,0.0,0.0,0.0,0.0,0.0,0.0,0.0,0.0,0.0,0.0,0.0,0.0,0.0,0.0,0.0,0.0,0.0,0.0,0.0,0.0,0.0,0.0,0.0,0.0,0.0,0.0,0.0,0.0,0.0,0.0,0.0,0.0,0.0,0.0,0.0,0.0,0.0,0.0,0.0,0.0,0.0,0.0,0.0,0.0,0.0,0.0,0.0,0.0,0.0,0.0,0.0,0.0,0.0,0.0,0.0,0.0,0.0,0.0,0.0,0.0,0.0,0.0,0.0,0.0,0.0,0.0,0.0,0.0,0.0,0.0,0.0,0.0,0.0,0.0,0.0,0.0,0.0,0.0,0.0,0.0,0.0,0.0,0.0,0.0,0.0,0.0,0.0,0.0,5.3321,0.0,0.0,0.0,0.0,0.0,0.0,0.0,0.0,0.0,0.0,0.0,0.0,0.0,0.0,0.0,0.0,0.0,0.0,0.0,0.0,0.0,0.0,0.0,0.0,0.0,0.0,0.0,0.0,0.0,0.0,0.0,0.0,0.0,0.0,0.0,0.0,0.0,0.0,0.0,0.0,0.0,0.0,0.0,0.0,0.0,0.0,0.0,0.0,0.0,0.0,0.0,0.0,0.0,0.0,0.0,0.0,0.0,0.0,0.0,0.0,0.0,0.0,0.0,0.0,0.0,0.0,0.0,0.0,0.0,0.0,0.0,0.0,0.0,0.0,0.0,0.0,0.0,0.0,0.0,0.0,0.0,0.0,0.0,0.0,0.0,0.0,0.0,0.0,0.0,0.0,0.0,0.0,0.0,0.0,0.0,0.0,0.0,0.0,0.0,0.0,0.0,0.0,0.0,0.0,0.0,0.0,0.0,0.0,0.0,0.0,5.4673,5.4783,5.4458,5.3997,5.3543,0.0,0.0,0.0,0.0,0.0,0.0,0.0,0.0,0.0,0.0,0.0,0.0,0.0,0.0,0.0,0.0,0.0,0.0,0.0,0.0,0.0,0.0,0.0,0.0,0.0,0.0,0.0,0.0,0.0,0.0,0.0,0.0,0.0,0.0,0.0,0.0,0.0,0.0,0.0,0.0,0.0,0.0,0.0,0.0,0.0,0.0,0.0,0.0,0.0,0.0,0.0,0.0,0.0,0.0,0.0,0.0,0.0,0.0,0.0,0.0,0.0,0.0,0.0,0.0,0.0,0.0,0.0,0.0,0.0,0.0,0.0,0.0,0.0,0.0,0.0,0.0,0.0,0.0,0.0,0.0,0.0,0.0,0.0,0.0,0.0,0.0,0.0,0.0,0.0,0.0,0.0,0.0,0.0,0.0,0.0,0.0,0.0,0.0,0.0,0.0,0.0,0.0,0.0,0.0,0.0,0.0,0.0,0.0,0.0,0.0,0.0,0.0,5.4689,5.4303,5.339,0.0,0.0,0.0,0.0,0.0,0.0,0.0,0.0,0.0,0.0,0.0,0.0,0.0,0.0,0.0,0.0,0.0,0.0,0.0,0.0,0.0,0.0,0.0,0.0,0.0,0.0,0.0,0.0,0.0,0.0,0.0,0.0,0.0,0.0,0.0,0.0,0.0,0.0,0.0,0.0,0.0,0.0,0.0,0.0,0.0,0.0,0.0,0.0,0.0,0.0,0.0,0.0,0.0,0.0,0.0,0.0,0.0,0.0,0.0,0.0,0.0,0.0,0.0,0.0,0.0,0.0,0.0,0.0,0.0,0.0,0.0,0.0,0.0,0.0,0.0,0.0,0.0,0.0,0.0,0.0,0.0,0.0,0.0,0.0,0.0,0.0,0.0,0.0,0.0,0.0,0.0,0.0,0.0,0.0,0.0,0.0,0.0,0.0,0.0,0.0,0.0,0.0,0.0,0.0,0.0,0.0,0.0,0.0,0.0,0.0,5.4554,5.4689,5.4689,0.0,5.3435,0.0,0.0,0.0,0.0,0.0,0.0,0.0,0.0,0.0,0.0,0.0,0.0,0.0,0.0,0.0,0.0,0.0,0.0,0.0,0.0,0.0,0.0,0.0,0.0,0.0,0.0,0.0,0.0,0.0,0.0,0.0,0.0,0.0,0.0,0.0,0.0,0.0,0.0,0.0,0.0,0.0,0.0,0.0,0.0,0.0,0.0,0.0,0.0,0.0,0.0,0.0,0.0,0.0,0.0,0.0,0.0,0.0,0.0,0.0,0.0,0.0,0.0,0.0,0.0,0.0,0.0,0.0,0.0,0.0,0.0,0.0,0.0,0.0,0.0,0.0,0.0,0.0,0.0,0.0,0.0,0.0,0.0,0.0,0.0,0.0,0.0,0.0,0.0,0.0,0.0,0.0,0.0,0.0,0.0,0.0,0.0,0.0,0.0,0.0,0.0,0.0,0.0,0.0,0.0,0.0,0.0,0.0,0.0,0.0,0.0,5.4447,5.4526,5.4526,5.415,0.0,0.0,0.0,0.0,0.0,0.0,0.0,0.0,0.0,0.0,0.0,0.0,0.0,0.0,0.0,0.0,0.0,0.0,0.0,0.0,0.0,0.0,0.0,0.0,0.0,0.0,0.0,0.0,0.0,0.0,0.0,0.0,0.0,0.0,0.0,0.0,0.0,0.0,0.0,0.0,0.0,0.0,0.0,0.0,0.0,0.0,0.0,0.0,0.0,0.0,0.0,0.0,0.0,0.0,0.0,0.0,0.0,0.0,0.0,0.0,0.0,0.0,0.0,0.0,0.0,0.0,0.0,0.0,0.0,0.0,0.0,0.0,0.0,0.0,0.0,0.0,0.0,0.0,0.0,0.0,0.0,0.0,0.0,0.0,0.0,0.0,0.0,0.0,0.0,0.0,0.0,0.0,0.0,0.0,0.0,0.0,0.0,0.0,0.0,0.0,0.0,0.0,0.0,0.0,0.0,0.0,0.0,0.0,0.0,0.0,5.4409,5.4409,5.4409,5.4409,5.4108,5.3524,0.0,0.0,0.0,0.0,0.0,0.0,0.0,0.0,0.0,0.0,0.0,0.0,0.0,0.0,0.0,0.0,0.0,0.0,0.0,0.0,0.0,0.0,0.0,0.0,0.0,0.0,0.0,0.0,0.0,0.0,0.0,0.0,0.0,0.0,0.0,0.0,0.0,0.0,0.0,0.0,0.0,0.0,0.0,0.0,0.0,0.0,0.0,0.0,0.0,0.0,0.0,0.0,0.0,0.0,0.0,0.0,0.0,0.0,0.0,0.0,0.0,0.0,0.0,0.0,0.0,0.0,0.0,0.0,0.0,0.0,0.0,0.0,0.0,0.0,0.0,0.0,0.0,0.0,0.0,0.0,0.0,0.0,0.0,0.0,0.0,0.0,0.0,0.0,0.0,0.0,0.0,0.0,0.0,0.0,0.0,0.0,0.0,0.0,0.0,0.0,0.0,0.0,0.0,0.0,0.0,0.0,0.0,0.0,5.4409,5.4409,5.4409,5.4409,5.4409,5.4371,0.0,0.0,0.0,0.0,0.0,0.0,0.0,0.0,0.0,0.0,0.0,0.0,0.0,0.0,0.0,0.0,0.0,0.0,0.0,0.0,0.0,0.0,0.0,0.0,0.0,0.0,0.0,0.0,0.0,0.0,0.0,0.0,0.0,0.0,0.0,0.0,0.0,0.0,0.0,0.0,0.0,0.0,0.0,0.0,0.0,0.0,0.0,0.0,0.0,0.0,0.0,0.0,0.0,0.0,0.0,0.0,0.0,0.0,0.0,0.0,0.0,0.0,0.0,0.0,0.0,0.0,0.0,0.0,0.0,0.0,0.0,0.0,0.0,0.0,0.0,0.0,0.0,0.0,0.0,0.0,0.0,0.0,0.0,0.0,0.0,0.0,0.0,0.0,0.0,0.0,0.0,0.0,0.0,0.0,0.0,0.0,0.0,0.0,0.0,0.0,0.0,0.0,0.0,0.0,0.0,0.0,0.0,0.0,0.0,5.4409,5.4409,5.4409,5.4409,5.4409,5.4409,0.0,0.0,0.0,0.0,0.0,0.0,0.0,0.0,0.0,0.0,0.0,0.0,0.0,0.0,0.0,0.0,0.0,0.0,0.0,0.0,0.0,0.0,0.0,0.0,0.0,0.0,0.0,0.0,0.0,0.0,0.0,0.0,0.0,0.0,0.0,0.0,0.0,0.0,0.0,0.0,0.0,0.0,0.0,0.0,0.0,0.0,0.0,0.0,0.0,0.0,0.0,0.0,0.0,0.0,0.0,0.0,0.0,0.0,0.0,0.0,0.0,0.0,0.0,0.0,0.0,0.0,0.0,0.0,0.0,0.0,0.0,0.0,0.0,0.0,0.0,0.0,0.0,0.0,0.0,0.0,0.0,0.0,0.0,0.0,0.0,0.0,0.0,0.0,0.0,0.0,0.0,0.0,0.0,0.0,0.0,0.0,0.0,0.0,0.0,0.0,0.0,0.0,0.0,0.0,0.0,0.0,0.0,0.0,0.0,5.4414,0.0,5.4422,5.4451,5.4451,5.4405,0.0,0.0,0.0,0.0,0.0,0.0,0.0,0.0,0.0,0.0,0.0,0.0,0.0,0.0,0.0,0.0,0.0,0.0,0.0,0.0,0.0,0.0,0.0,0.0,0.0,0.0,0.0,0.0,0.0,0.0,0.0,0.0,0.0,0.0,0.0,0.0,0.0,0.0,0.0,0.0,0.0,0.0,0.0,0.0,0.0,0.0,0.0,0.0,0.0,0.0,0.0,0.0,0.0,0.0,0.0,0.0,0.0,0.0,0.0,0.0,0.0,0.0,0.0,0.0,0.0,0.0,0.0,0.0,0.0,0.0,0.0,0.0,0.0,0.0,0.0,0.0,0.0,0.0,0.0,0.0,0.0,0.0,0.0,0.0,0.0,0.0,0.0,0.0,0.0,0.0,0.0,0.0,0.0,0.0,0.0,0.0,0.0,0.0,0.0,0.0,0.0,0.0,0.0,0.0,0.0,0.0,0.0,0.0,5.446,5.4543,5.4551,5.4597,5.4551,5.4589,5.451,0.0,0.0,0.0,0.0,0.0,0.0,0.0,0.0,0.0,0.0,0.0,0.0,0.0,0.0,0.0,0.0,0.0,0.0,0.0,0.0,0.0,0.0,0.0,0.0,0.0,0.0,0.0,0.0,0.0,0.0,0.0,0.0,0.0,0.0,0.0,0.0,0.0,0.0,0.0,0.0,0.0,0.0,0.0,0.0,0.0,0.0,0.0,0.0,0.0,0.0,0.0,0.0,0.0,0.0,0.0,0.0,0.0,0.0,0.0,0.0,0.0,0.0,0.0,0.0,0.0,0.0,0.0,0.0,0.0,0.0,0.0,0.0,0.0,0.0,0.0,0.0,0.0,0.0,0.0,0.0,0.0,0.0,0.0,0.0,0.0,0.0,0.0,0.0,0.0,0.0,0.0,0.0,0.0,0.0,0.0,0.0,0.0,0.0,0.0,0.0,0.0,0.0,0.0,0.0,0.0,0.0,0.0,0.0,0.0,5.5567,5.5529,5.5832,5.6369,5.5832,5.5527,0.0,0.0,0.0,0.0,0.0,0.0,0.0,0.0,0.0,0.0,0.0,0.0,0.0,0.0,0.0,0.0,0.0,0.0,0.0,0.0,0.0,0.0,0.0,0.0,0.0,0.0,0.0,0.0,0.0,0.0,0.0,0.0,0.0,0.0,0.0,0.0,0.0,0.0,0.0,0.0,0.0,0.0,0.0,0.0,0.0,0.0,0.0,0.0,0.0,0.0,0.0,0.0,0.0,0.0,0.0,0.0,0.0,0.0,0.0,0.0,0.0,0.0,0.0,0.0,0.0,0.0,0.0,0.0,0.0,0.0,0.0,0.0,0.0,0.0,0.0,0.0,0.0,0.0,0.0,0.0,0.0,0.0,0.0,0.0,0.0,0.0,0.0,0.0,0.0,0.0,0.0,0.0,0.0,0.0,0.0,0.0,0.0,0.0,0.0,0.0,0.0,0.0,0.0,0.0,0.0,0.0,0.0,0.0,0.0,5.7208,5.683,5.6899,5.7431,5.6876,5.6366,5.5937,0.0,0.0,0.0,0.0,0.0,0.0,0.0,0.0,0.0,0.0,0.0,0.0,0.0,0.0,0.0,0.0,0.0,0.0,0.0,0.0,0.0,0.0,0.0,0.0,0.0,0.0,0.0,0.0,0.0,0.0,0.0,0.0,0.0,0.0,0.0,0.0,0.0,0.0,0.0,0.0,0.0,0.0,0.0,0.0,0.0,0.0,0.0,0.0,0.0,0.0,0.0,0.0,0.0,0.0,0.0,0.0,0.0,0.0,0.0,0.0,0.0,0.0,0.0,0.0,0.0,0.0,0.0,0.0,0.0,0.0,0.0,0.0,0.0,0.0,0.0,0.0,0.0,0.0,0.0,0.0,0.0,0.0,0.0,0.0,0.0,0.0,0.0,0.0,0.0,0.0,0.0,0.0,0.0,0.0,0.0,0.0,0.0,0.0,0.0,0.0,0.0,0.0,0.0,0.0,0.0,0.0,0.0,0.0,5.9376,5.8405,5.7884,5.7902,5.7723,5.715,0.0,0.0,0.0,0.0,0.0,0.0,0.0,0.0,0.0,0.0,0.0,0.0,0.0,0.0,0.0,0.0,0.0,0.0,0.0,0.0,0.0,0.0,0.0,0.0,0.0,0.0,0.0,0.0,0.0,0.0,0.0,0.0,0.0,0.0,0.0,0.0,0.0,0.0,0.0,0.0,0.0,0.0,0.0,0.0,0.0,0.0,0.0,0.0,0.0,0.0,0.0,0.0,0.0,0.0,0.0,0.0,0.0,0.0,0.0,0.0,0.0,0.0,0.0,0.0,0.0,0.0,0.0,0.0,0.0,0.0,0.0,0.0,0.0,0.0,0.0,0.0,0.0,0.0,0.0,0.0,0.0,0.0,0.0,0.0,0.0,0.0,0.0,0.0,0.0,0.0,0.0,0.0,0.0,0.0,0.0,0.0,0.0,0.0,0.0,0.0,0.0,0.0,0.0,0.0,0.0,0.0,0.0,0.0,0.0,6.0364,6.0234,6.0079,5.9899,5.9192,5.8644,0.0,0.0,0.0,0.0,0.0,0.0,0.0,0.0,0.0,0.0,0.0,0.0,0.0,0.0,0.0,0.0,0.0,0.0,0.0,0.0,0.0,0.0,0.0,0.0,0.0,0.0,0.0,0.0,0.0,0.0,0.0,0.0,0.0,0.0,0.0,0.0,0.0,0.0,0.0,0.0,0.0,0.0,0.0,0.0,0.0,0.0,0.0,0.0,0.0,0.0,0.0,0.0,0.0,0.0,0.0,0.0,0.0,0.0,0.0,0.0,0.0,0.0,0.0,0.0,0.0,0.0,0.0,0.0,0.0,0.0,0.0,0.0,0.0,0.0,0.0,0.0,0.0,0.0,0.0,0.0,0.0,0.0,0.0,0.0,0.0,0.0,0.0,0.0,0.0,0.0,0.0,0.0,0.0,0.0,0.0,0.0,0.0,0.0,0.0,0.0,0.0,0.0,0.0,0.0,0.0,0.0,0.0,0.0,6.0768,6.1406,6.1602,6.178,6.2014,6.0583,5.9581,0.0,0.0,0.0,0.0,0.0,0.0,0.0,0.0,0.0,0.0,0.0,0.0,0.0,0.0,0.0,0.0,0.0,0.0,0.0,0.0,0.0,0.0,0.0,0.0,0.0,0.0,0.0,0.0,0.0,0.0,0.0,0.0,0.0,0.0,0.0,0.0,0.0,0.0,0.0,0.0,0.0,0.0,0.0,0.0,0.0,0.0,0.0,0.0,0.0,0.0,0.0,0.0,0.0,0.0,0.0,0.0,0.0,0.0,0.0,0.0,0.0,0.0,0.0,0.0,0.0,0.0,0.0,0.0,0.0,0.0,0.0,0.0,0.0,0.0,0.0,0.0,0.0,0.0,0.0,0.0,0.0,0.0,0.0,0.0,0.0,0.0,0.0,0.0,0.0,0.0,0.0,0.0,0.0,0.0,0.0,0.0,0.0,0.0,0.0,0.0,0.0,0.0,0.0,0.0,0.0,0.0,0.0,0.0,6.1296,6.2248,6.2586,6.3036,6.3693,6.183,6.0328,0.0,0.0,0.0,0.0,0.0,0.0,0.0,0.0,0.0,0.0,0.0,0.0,0.0,0.0,0.0,0.0,0.0,0.0,0.0,0.0,0.0,0.0,0.0,0.0,0.0,0.0,0.0,0.0,0.0,0.0,0.0,0.0,0.0,0.0,0.0,0.0,0.0,0.0,0.0,0.0,0.0,0.0,0.0,0.0,0.0,0.0,0.0,0.0,0.0,0.0,0.0,0.0,0.0,0.0,0.0,0.0,0.0,0.0,0.0,0.0,0.0,0.0,0.0,0.0,0.0,0.0,0.0,0.0,0.0,0.0,0.0,0.0,0.0,0.0,0.0,0.0,0.0,0.0,0.0,0.0,0.0,0.0,0.0,0.0,0.0,0.0,0.0,0.0,0.0,0.0,0.0,0.0,0.0,0.0,0.0,0.0,0.0,0.0,0.0,0.0,0.0,0.0,0.0,0.0,0.0,0.0,0.0,0.0,6.1872,6.2316,6.3061,6.3537,6.3722,6.2578,6.1708,0.0,0.0,0.0,0.0,0.0,0.0,0.0,0.0,0.0,0.0,0.0,0.0,0.0,0.0,0.0,0.0,0.0,0.0,0.0,0.0,0.0,0.0,0.0,0.0,0.0,0.0,0.0,0.0,0.0,0.0,0.0,0.0,0.0,0.0,0.0,0.0,0.0,0.0,0.0,0.0,0.0,0.0,0.0,0.0,0.0,0.0,0.0,0.0,5.8791,0.0,0.0,0.0,0.0,0.0,0.0,0.0,0.0,0.0,0.0,0.0,0.0,0.0,0.0,0.0,0.0,0.0,0.0,0.0,0.0,0.0,0.0,0.0,0.0,0.0,0.0,0.0,0.0,0.0,0.0,0.0,0.0,0.0,0.0,0.0,0.0,0.0,0.0,0.0,0.0,0.0,0.0,0.0,0.0,0.0,0.0,0.0,0.0,0.0,0.0,0.0,0.0,0.0,0.0,0.0,0.0,0.0,0.0,0.0,6.249,6.3431,6.4067,6.4544,6.487,6.3961,6.2976,0.0,0.0,0.0,0.0,0.0,0.0,0.0,0.0,0.0,0.0,0.0,0.0,0.0,0.0,0.0,0.0,0.0,0.0,0.0,0.0,0.0,0.0,0.0,0.0,0.0,0.0,0.0,0.0,0.0,0.0,0.0,0.0,0.0,0.0,0.0,0.0,0.0,0.0,0.0,0.0,0.0,0.0,0.0,0.0,0.0,0.0,0.0,0.0,0.0,0.0,0.0,0.0,0.0,0.0,0.0,0.0,0.0,0.0,0.0,0.0,0.0,0.0,0.0,0.0,0.0,0.0,0.0,0.0,0.0,0.0,0.0,0.0,0.0,0.0,0.0,0.0,0.0,0.0,0.0,0.0,0.0,0.0,0.0,0.0,0.0,0.0,0.0,0.0,0.0,0.0,0.0,0.0,0.0,0.0,0.0,0.0,0.0,0.0,0.0,0.0,0.0,0.0,0.0,0.0,0.0,0.0,0.0,6.2042,6.3069,6.4734,6.5112,6.5586,6.6206,6.5438,6.4083,6.2163,0.0,0.0,0.0,0.0,0.0,0.0,0.0,0.0,0.0,0.0,0.0,0.0,0.0,0.0,0.0,0.0,0.0,0.0,0.0,0.0,0.0,0.0,0.0,0.0,0.0,0.0,0.0,0.0,0.0,0.0,0.0,0.0,0.0,0.0,0.0,0.0,0.0,0.0,5.7377,5.8785,0.0,0.0,0.0,0.0,0.0,0.0,0.0,0.0,6.0716,0.0,0.0,0.0,0.0,0.0,0.0,0.0,0.0,0.0,0.0,0.0,0.0,0.0,0.0,0.0,0.0,0.0,0.0,0.0,0.0,0.0,0.0,0.0,0.0,0.0,0.0,0.0,0.0,0.0,0.0,0.0,0.0,0.0,0.0,0.0,0.0,0.0,0.0,0.0,0.0,0.0,0.0,0.0,0.0,0.0,0.0,0.0,0.0,0.0,0.0,0.0,0.0,0.0,0.0,0.0,0.0,6.1593,6.2535,6.3587,6.4756,6.5522,6.6018,6.6123,6.5864,6.4888,6.3085,0.0,0.0,0.0,0.0,0.0,0.0,0.0,0.0,0.0,0.0,0.0,0.0,0.0,0.0,0.0,0.0,0.0,0.0,0.0,0.0,0.0,0.0,0.0,0.0,0.0,0.0,0.0,0.0,0.0,0.0,0.0,0.0,0.0,0.0,0.0,0.0,0.0,0.0,0.0,6.0613,6.134,0.0,0.0,0.0,0.0,0.0,0.0,0.0,0.0,6.0832,0.0,0.0,0.0,0.0,0.0,0.0,0.0,0.0,0.0,0.0,0.0,0.0,0.0,0.0,0.0,0.0,0.0,0.0,0.0,0.0,0.0,0.0,0.0,0.0,0.0,0.0,0.0,0.0,0.0,0.0,0.0,0.0,0.0,0.0,0.0,0.0,0.0,0.0,0.0,0.0,0.0,0.0,0.0,0.0,0.0,0.0,0.0,0.0,0.0,0.0,0.0,0.0,0.0,0.0,0.0,6.2313,6.3406,6.4431,6.5396,6.5908,6.6128,6.6096,6.5984,6.5044,0.0,0.0,0.0,0.0,0.0,0.0,0.0,0.0,0.0,0.0,0.0,0.0,0.0,0.0,0.0,0.0,0.0,0.0,0.0,0.0,0.0,0.0,0.0,0.0,0.0,0.0,0.0,0.0,0.0,0.0,0.0,0.0,0.0,0.0,0.0,0.0,0.0,0.0,0.0,0.0,6.1157,6.2188,6.2056,0.0,0.0,0.0,0.0,0.0,0.0,6.2745,6.2356,0.0,0.0,0.0,0.0,0.0,0.0,0.0,0.0,0.0,0.0,0.0,0.0,0.0,0.0,0.0,0.0,0.0,0.0,0.0,0.0,0.0,0.0,0.0,0.0,0.0,0.0,0.0,0.0,0.0,0.0,0.0,0.0,0.0,0.0,0.0,0.0,0.0,0.0,0.0,0.0,0.0,0.0,0.0,0.0,0.0,0.0,0.0,0.0,0.0,0.0,0.0,0.0,0.0,0.0,0.0,6.3246,6.4212,6.514,6.5986,6.6278,6.6337,6.6102,6.6144,6.5301,0.0,0.0,0.0,0.0,0.0,0.0,0.0,0.0,0.0,0.0,0.0,0.0,0.0,0.0,0.0,0.0,0.0,0.0,0.0,0.0,0.0,0.0,0.0,0.0,0.0,0.0,0.0,0.0,0.0,0.0,0.0,0.0,0.0,0.0,0.0,0.0,0.0,0.0,0.0,0.0,0.0,6.3111,6.383,6.383,0.0,0.0,0.0,0.0,6.5022,6.4516,0.0,0.0,0.0,0.0,0.0,0.0,0.0,0.0,0.0,0.0,0.0,0.0,0.0,0.0,0.0,0.0,0.0,0.0,0.0,0.0,0.0,0.0,0.0,0.0,0.0,0.0,0.0,0.0,0.0,0.0,0.0,0.0,0.0,0.0,0.0,0.0,0.0,0.0,0.0,0.0,0.0,0.0,0.0,0.0,0.0,0.0,0.0,0.0,0.0,0.0,0.0,0.0,0.0,0.0,0.0,0.0,6.4158,6.4501,6.5083,6.608,6.6874,6.688,6.6135,6.6723,6.6211,0.0,0.0,0.0,0.0,0.0,0.0,0.0,0.0,0.0,0.0,0.0,0.0,0.0,0.0,0.0,0.0,0.0,0.0,0.0,0.0,0.0,0.0,0.0,0.0,0.0,0.0,0.0,0.0,0.0,0.0,0.0,0.0,0.0,0.0,0.0,0.0,0.0,0.0,0.0,0.0,0.0,6.4961,6.5677,6.5649,6.5311,0.0,0.0,6.5328,6.5345,6.5174,0.0,0.0,0.0,0.0,0.0,0.0,0.0,0.0,0.0,0.0,0.0,0.0,0.0,0.0,0.0,0.0,0.0,0.0,0.0,0.0,0.0,0.0,0.0,0.0,0.0,0.0,0.0,0.0,0.0,0.0,0.0,0.0,0.0,0.0,0.0,0.0,0.0,0.0,0.0,0.0,0.0,0.0,0.0,0.0,0.0,0.0,0.0,0.0,0.0,0.0,0.0,0.0,0.0,0.0,0.0,6.3666,6.4532,6.5196,6.598,6.6925,6.7309,6.7565,6.7624,6.7392,6.6582,0.0,0.0,0.0,0.0,0.0,0.0,0.0,0.0,0.0,0.0,0.0,0.0,0.0,0.0,0.0,0.0,0.0,0.0,0.0,0.0,0.0,0.0,0.0,0.0,0.0,0.0,0.0,0.0,0.0,0.0,0.0,0.0,0.0,0.0,0.0,0.0,0.0,0.0,0.0,0.0,0.0,0.0,6.6747,6.7299,0.0,0.0,0.0,6.7247,6.7577,0.0,0.0,0.0,0.0,0.0,0.0,0.0,0.0,0.0,0.0,0.0,0.0,0.0,0.0,0.0,0.0,0.0,0.0,0.0,0.0,0.0,0.0,0.0,0.0,0.0,0.0,0.0,0.0,0.0,0.0,0.0,0.0,0.0,0.0,0.0,0.0,0.0,0.0,0.0,0.0,0.0,0.0,0.0,0.0,0.0,0.0,0.0,0.0,0.0,0.0,0.0,0.0,0.0,0.0,0.0,0.0,0.0,6.5031,6.6039,6.6918,6.7638,6.8066,6.847,6.881,6.8314,0.0,0.0,0.0,0.0,0.0,0.0,0.0,0.0,0.0,0.0,0.0,0.0,0.0,0.0,0.0,0.0,0.0,0.0,0.0,0.0,0.0,0.0,0.0,0.0,0.0,0.0,0.0,6.3705,0.0,0.0,0.0,0.0,0.0,0.0,0.0,0.0,0.0,0.0,0.0,0.0,0.0,0.0,6.6365,6.8302,6.8878,6.9143,0.0,0.0,6.9129,6.9356,6.8962,6.8127,0.0,0.0,0.0,0.0,0.0,0.0,0.0,0.0,0.0,0.0,0.0,0.0,0.0,0.0,0.0,0.0,0.0,0.0,0.0,0.0,0.0,0.0,0.0,0.0,0.0,0.0,0.0,0.0,0.0,0.0,0.0,0.0,0.0,0.0,0.0,0.0,0.0,0.0,0.0,0.0,0.0,0.0,0.0,0.0,0.0,0.0,0.0,0.0,0.0,0.0,0.0,0.0,0.0,0.0,0.0,6.601,6.7019,6.7623,6.7818,6.9302,6.9747,6.9037,6.96,6.9043,0.0,0.0,0.0,0.0,0.0,0.0,0.0,0.0,0.0,0.0,0.0,0.0,0.0,0.0,0.0,0.0,0.0,0.0,0.0,0.0,0.0,0.0,0.0,0.0,0.0,0.0,0.0,0.0,0.0,0.0,0.0,0.0,0.0,0.0,0.0,0.0,0.0,0.0,0.0,0.0,0.0,6.8354,7.0879,7.052,7.0271,0.0,0.0,7.065,6.9791,7.0155,6.9718,6.725,0.0,0.0,0.0,0.0,0.0,0.0,0.0,0.0,0.0,0.0,0.0,0.0,0.0,0.0,0.0,0.0,0.0,0.0,0.0,0.0,0.0,0.0,0.0,0.0,0.0,0.0,0.0,0.0,0.0,0.0,0.0,0.0,0.0,0.0,0.0,0.0,0.0,0.0,0.0,0.0,0.0,0.0,0.0,0.0,0.0,0.0,0.0,0.0,0.0,0.0,0.0,0.0,0.0,6.6492,6.7075,6.802,6.8836,6.9448,7.0113,7.0486,7.0682,7.0409,6.9834,0.0,0.0,0.0,0.0,0.0,0.0,0.0,0.0,0.0,0.0,0.0,0.0,0.0,0.0,0.0,0.0,0.0,0.0,0.0,0.0,0.0,0.0,0.0,0.0,0.0,0.0,0.0,0.0,6.7107,6.7099,6.7106,0.0,0.0,0.0,0.0,0.0,0.0,0.0,0.0,0.0,0.0,6.9998,7.206,7.2508,0.0,0.0,7.2408,7.1903,7.149,7.1114,7.0353,6.8859,6.7138,0.0,0.0,0.0,0.0,0.0,0.0,0.0,0.0,0.0,0.0,0.0,0.0,0.0,0.0,0.0,0.0,0.0,0.0,0.0,0.0,0.0,0.0,0.0,0.0,0.0,0.0,0.0,0.0,0.0,0.0,0.0,0.0,0.0,0.0,0.0,0.0,0.0,0.0,0.0,0.0,0.0,0.0,0.0,0.0,0.0,0.0,0.0,0.0,0.0,0.0,0.0,0.0,6.7898,6.816,6.9053,6.9891,7.0522,7.1031,7.1564,7.2113,7.1758,7.1329,0.0,0.0,0.0,0.0,0.0,0.0,0.0,0.0,0.0,0.0,0.0,0.0,0.0,0.0,0.0,0.0,0.0,0.0,0.0,0.0,0.0,0.0,0.0,0.0,0.0,0.0,0.0,0.0,6.9092,6.9111,6.9109,0.0,0.0,0.0,0.0,0.0,0.0,0.0,0.0,0.0,0.0,7.1719,7.3448,7.4001,7.427,7.4319,7.3615,7.2953,7.2628,7.1956,7.1201,7.0364,0.0,0.0,0.0,0.0,0.0,0.0,0.0,0.0,0.0,0.0,0.0,0.0,0.0,0.0,0.0,0.0,0.0,0.0,0.0,0.0,0.0,0.0,0.0,0.0,0.0,0.0,0.0,0.0,0.0,0.0,6.8249,0.0,0.0,0.0,0.0,0.0,0.0,0.0,0.0,0.0,0.0,0.0,0.0,0.0,0.0,0.0,0.0,0.0,0.0,0.0,0.0,0.0,0.0,6.8907,6.917,7.0128,7.0593,7.0691,7.2254,7.3145,7.3199,7.3887,7.3842,7.284,0.0,0.0,0.0,0.0,0.0,0.0,0.0,0.0,0.0,0.0,0.0,0.0,0.0,0.0,0.0,0.0,0.0,0.0,0.0,0.0,0.0,0.0,0.0,0.0,0.0,0.0,6.924,6.9154,6.9229,0.0,0.0,0.0,0.0,0.0,0.0,0.0,0.0,0.0,0.0,7.1881,7.3536,7.5203,7.4802,7.4627,7.5274,7.4709,7.3837,7.2879,7.2693,7.2378,0.0,0.0,0.0,0.0,0.0,0.0,0.0,0.0,0.0,0.0,0.0,0.0,0.0,0.0,0.0,0.0,0.0,0.0,0.0,0.0,0.0,0.0,0.0,0.0,0.0,0.0,0.0,6.8648,6.8886,0.0,0.0,0.0,0.0,0.0,0.0,0.0,0.0,0.0,0.0,0.0,7.295,7.3167,0.0,0.0,0.0,0.0,0.0,0.0,0.0,0.0,0.0,0.0,0.0,0.0,7.0175,7.1007,7.1902,7.2616,7.3162,7.3748,7.4061,7.4062,7.4257,7.4207,7.3848,0.0,0.0,0.0,0.0,0.0,0.0,0.0,0.0,0.0,0.0,0.0,0.0,0.0,0.0,0.0,0.0,0.0,0.0,0.0,0.0,0.0,0.0,0.0,0.0,0.0,7.2524,0.0,0.0,0.0,0.0,0.0,0.0,0.0,0.0,0.0,0.0,0.0,7.2085,7.2965,7.4055,7.5138,7.6289,7.6222,7.613,0.0,0.0,0.0,0.0,0.0,0.0,0.0,0.0,0.0,0.0,0.0,0.0,0.0,0.0,6.9381,6.675,6.6699,6.6994,6.6712,0.0,0.0,0.0,0.0,0.0,0.0,0.0,0.0,0.0,0.0,0.0,0.0,0.0,0.0,7.0567,0.0,7.0787,0.0,0.0,0.0,0.0,0.0,0.0,0.0,0.0,7.5139,7.5661,7.5702,7.5937,7.5898,0.0,7.5572,7.4148,0.0,0.0,0.0,0.0,0.0,0.0,0.0,0.0,7.2041,7.277,7.3355,7.4038,7.4872,7.5182,7.5496,7.5775,7.607,7.6049,7.5663,7.5682,7.5358,0.0,0.0,0.0,0.0,0.0,0.0,0.0,0.0,0.0,0.0,0.0,0.0,0.0,0.0,0.0,0.0,0.0,0.0,0.0,0.0,0.0,0.0,0.0,7.5216,0.0,0.0,0.0,0.0,0.0,0.0,0.0,0.0,0.0,7.3393,7.4136,7.5077,7.5683,7.6462,7.716,7.7728,0.0,0.0,0.0,0.0,0.0,0.0,0.0,7.5819,7.6672,7.6867,7.7201,7.8085,7.7637,7.7341,7.784,0.0,0.0,7.2434,7.2096,7.2328,7.209,7.2397,7.2517,7.1872,7.1605,7.1606,0.0,0.0,0.0,0.0,0.0,0.0,0.0,0.0,7.3164,7.3632,0.0,7.4345,0.0,0.0,0.0,0.0,0.0,7.5308,0.0,0.0,7.7568,7.8355,7.8455,7.9184,7.9115,7.8362,7.8295,7.7879,7.7031,7.5172,0.0,0.0,0.0,0.0,0.0,0.0,7.4444,7.4518,7.4543,7.4943,7.5747,7.6559,7.7353,7.8163,7.909,7.9128,7.8284,7.8278,7.7535,7.5831,7.5705,0.0,0.0,0.0,0.0,0.0,0.0,0.0,0.0,0.0,0.0,0.0,0.0,0.0,0.0,0.0,0.0,0.0,0.0,0.0,0.0,7.6565,0.0,0.0,0.0,0.0,0.0,0.0,0.0,0.0,0.0,0.0,7.6403,7.7422,7.8399,7.8399,0.0,0.0,0.0,0.0,7.9585,7.9562,7.8879,7.837,7.8338,7.84,7.8695,7.9516,0.0,0.0,8.326,8.3256,8.3136,8.3247,8.3065,8.2005,7.8796,7.7989,7.802,7.8664,7.8693,7.8676,7.8404,7.7938,7.7934,7.9856,0.0,0.0,0.0,0.0,7.7129,7.7285,7.7519,7.6903,7.6814,7.7122,7.6519,0.0,0.0,0.0,0.0,0.0,0.0,7.8788,7.9472,8.0563,8.1024,8.1023,8.1249,8.1226,8.098,8.0985,8.0893,8.0658,7.9528,7.7996,7.6175,0.0,0.0,0.0,0.0,7.6521,7.7133,7.7139,7.7494,7.8285,7.8489,7.875,7.8995,7.9831,7.9952,7.9169,7.9739,7.9558,7.8424,7.7773,0.0,0.0,0.0,0.0,0.0,0.0,0.0,0.0,0.0,0.0,0.0,0.0,0.0,0.0,0.0,0.0,0.0,0.0,0.0,7.8408,7.9254,7.9786,0.0,0.0,0.0,0.0,0.0,0.0,0.0,0.0,0.0,8.2132,8.1426,8.1016,0.0,0.0,8.137,8.1424,8.1376,8.1562,8.2191,8.2004,0.0,0.0,8.2776,8.3063,8.3906,8.5007,8.5825,8.6048,8.5956,8.6049,8.6617,8.6627,8.6341,8.5983,8.4321,8.2991,8.2585,8.2738,8.253,8.1257,8.0832,8.0612,8.5165,8.294,8.1739,8.124,8.1332,8.1317,8.1364,8.1385,8.0507,8.0207,8.0229,7.9427,7.9039,7.906,7.9098,0.0,0.0,0.0,8.1426,8.1976,8.2788,8.3173,8.3142,8.3088,8.31,8.3123,8.3126,8.3142,8.3211,8.27,8.1648,8.0035,0.0,0.0,7.8079,7.8398,7.8802,7.9268,7.9574,8.0072,8.085,8.1152,8.128,8.128,8.183,8.1904,8.1466,8.1983,8.1903,8.1065,8.0535,8.0109,0.0,0.0,0.0,0.0,0.0,0.0,0.0,0.0,0.0,0.0,0.0,7.5581,7.6284,0.0,0.0,0.0,7.9615,8.0852,8.207,8.2635,0.0,0.0,0.0,0.0,0.0,0.0,0.0,8.4453,8.5706,8.67,8.7086,8.6593,8.5689,8.4325,8.4134,8.414,8.4158,0.0,8.4838,8.5367,8.5686,8.6048,8.6593,8.6944,8.7571,8.8782,8.9333,8.9777,9.0123,8.978,8.9631,8.9965,8.9713,8.9493,8.9993,8.8567,8.7056,8.606,8.6005,8.576,8.4574,8.3945,8.3465,8.9437,8.9358,8.6395,8.5009,8.4815,8.4816,8.4869,8.4846,8.4037,8.3692,8.3662,8.2934,8.2616,8.2628,8.2651,0.0,8.2729,8.3573,8.3906,8.3928,8.4769,8.5125,8.5081,8.5058,8.5058,8.5123,8.5123,8.512,8.5159,8.511,8.5081,8.4927,8.1865,8.0234,8.0155,8.0844,8.1187,8.1135,8.1899,8.2651,8.3369,8.413,8.4492,8.4492,8.4621,8.4651,8.4622,8.4785,8.4515,8.3653,8.3615,8.3263,8.2454,0.0,0.0,0.0,0.0,0.0,0.0,0.0,0.0,0.0,0.0,0.0,0.0,0.0,0.0,0.0,8.2803,0.0,8.6129,8.6302,0.0,0.0,0.0,8.7592,8.7631,8.7554,8.7781,8.8549,0.0,0.0,9.1179,9.2098,9.152,8.8406,8.779,8.7598,8.7602,8.8264,8.8845,8.8891,8.9582,9.0085,9.0195,9.0772,9.165,9.3016,9.3556,9.3565,9.4094,9.3535,9.3071,9.2813,9.213,9.1291,9.1321,9.0802,9.0388,8.8932,8.8581,8.8337,8.7822,8.6964,8.6126,9.3184,9.3159,9.2485,9.0674,8.8284,8.8274,8.8318,8.8321,8.7482,8.7156,8.7205,8.6428,8.6103,8.6155,8.6162,8.6205,8.6246,8.7052,8.7463,8.7523,8.8275,8.8641,8.8659,8.8651,8.8654,8.8659,8.8659,8.8659,8.862,8.8021,8.7681,8.7605,8.6243,8.4893,8.3639,8.3786,8.383,8.3789,8.4571,8.5309,8.5955,8.6166,8.6278,8.6278,8.6918,8.7006,8.6422,8.7111,8.7141,8.6312,8.5696,8.5305,8.5143,8.3711,0.0,0.0,0.0,0.0,0.0,0.0,0.0,0.0,0.0,8.009,8.0534,0.0,8.3865,0.0,8.5471,8.6913,8.7983,8.8555,0.0,0.0,9.0765,9.1169,9.1169,9.1069,9.1054,9.1235,9.2006,9.2842,9.3722,9.4601,9.5092,9.4855,9.2737,9.1151,9.1178,9.1314,9.1697,9.2337,9.2611,9.2927,9.3504,9.3765,9.3984,9.4363,9.4269,9.4237,9.4464,9.3606,9.2857,9.2751,9.1892,9.1198,9.0969,9.0732,9.0416,8.995,8.988,8.9598,8.871,8.7752,8.6822,9.465,9.4734,9.4758,9.3687,9.1945,9.1495,9.1071,9.0722,8.9922,8.9583,8.9606,8.886,8.8507,8.8535,8.8579,8.8545,8.8587,8.9047,8.9273,8.9304,8.9725,8.995,8.994,8.993,8.9926,8.9926,8.9955,8.9944,8.9896,8.9791,8.9754,8.9745,8.9686,8.9194,8.8227,8.7095,8.649,8.6441,8.7559,8.8191,8.8143,8.8507,8.8507,8.8138,8.8584,8.8633,8.8211,8.8736,8.882,8.8389,8.7952,8.7776,8.7758,8.6484,8.5763,0.0,0.0,0.0,0.0,0.0,0.0,0.0,0.0,0.0,0.0,0.0,8.7404,8.8158,8.9123,9.0167,9.1379,9.1829,9.2561,9.3794,9.4302,9.459,9.459,9.4509,9.4625,9.4995,9.5428,9.6035,9.6856,9.7421,9.7908,9.8403,9.6875,9.5434,9.4809,9.4918,9.5338,9.5786,9.5815,9.5762,9.5899,9.5765,9.5683,9.5672,9.5526,9.5371,9.5328,9.4466,9.3632,9.3071,9.216,9.1241,9.0727,9.0361,9.0167,9.0052,8.997,8.9721,8.922,8.8304,8.7298,9.5209,9.5364,9.5325,9.5313,9.5188,9.4262,9.3409,9.2596,9.1918,9.1631,9.1581,9.0829,9.0566,9.0645,9.0537,9.054,9.0657,9.0657,9.0655,9.0654,9.0653,9.0653,9.0651,9.0641,9.0676,9.0673,9.0659,9.0603,9.0584,9.1325,9.1746,9.1881,9.2644,9.3053,9.3075,9.0965,8.9663,8.9283,9.0622,9.1,9.0401,9.1036,9.1041,9.0301,9.0166,9.0131,9.0206,9.0186,9.0137,9.0142,9.02,9.0231,9.0225,8.9531,8.908,0.0,8.8314,0.0,0.0,0.0,0.0,0.0,0.0,0.0,0.0,8.966,9.1393,9.2989,9.314,9.3788,9.5352,9.5392,9.6016,9.7502,9.7653,9.7625,9.763,9.7621,9.7913,9.8679,9.8743,9.906,9.9707,9.9978,9.9998,10.0105,9.999,9.9324,9.8354,9.8297,9.8501,9.8734,9.8572,9.7809,9.7126,9.6863,9.6766,9.6777,9.6536,9.6503,9.6318,9.5496,9.458,9.3618,9.2505,9.1484,9.0639,9.0155,8.9802,8.9741,8.9566,8.9438,8.9376,8.8656,8.7756,9.7128,9.7198,9.72,9.6783,9.613,9.593,9.5374,9.4579,9.4387,9.436,9.4295,9.3437,9.3476,9.4062,9.3433,9.3509,9.4134,9.4177,9.4179,9.414,9.4177,9.4173,9.4127,9.4125,9.4158,9.4147,9.4144,9.4136,9.4117,9.4273,9.4739,9.5399,9.5598,9.6,9.6641,0.0,0.0,0.0,9.2997,9.3325,9.3834,9.3973,9.401,9.3897,9.3245,0.0,9.2932,9.2343,9.1971,9.1979,9.2021,0.0,0.0,0.0,0.0,0.0,0.0,0.0,0.0,0.0,0.0,0.0,9.4267,9.3227,9.1655,9.3677,9.5477,9.6463,9.6554,9.6951,9.7882,9.7952,9.8315,9.9278,9.9425,9.942,9.942,9.9386,9.9379,9.9475,9.9512,9.977,10.0496,10.0645,10.0884,10.1479,10.1654,10.157,10.1194,10.0149,9.9513,9.943,9.8793,9.7969,9.7082,9.6757,9.663,9.6552,9.6433,9.6239,9.5992,9.5169,9.4407,9.3939,9.2649,9.1534,9.1152,9.0404,8.9754,8.9502,8.9371,8.9227,8.9254,8.8573,8.7716,9.8903,0.0,9.8476,9.8042,0.0,9.7172,9.6745,9.6281,9.5468,9.5115,9.5063,9.4632,9.4671,9.5062,9.4672,9.4711,9.5102,9.5146,9.511,9.5113,9.5195,9.5195,9.5155,9.5542,9.5732,9.5766,9.6191,9.6377,9.6402,9.6792,9.7254,9.7673,9.8104,9.8738,9.9613,10.0003,9.8734,9.5712,9.6034,9.6194,9.6182,9.6603,9.6638,9.6282,9.592,0.0,0.0,0.0,0.0,0.0,0.0,0.0,0.0,9.5086,0.0,9.4989,9.4973,9.5323,9.611,9.6569,9.7337,9.8597,9.9432,9.8813,9.6285,9.7321,9.8607,9.9834,9.9968,10.0336,10.1092,10.1136,10.1395,10.2211,10.2278,10.2127,10.1699,10.1598,10.1412,10.0954,10.0878,10.1039,10.1394,10.1464,10.1606,10.1959,10.2039,10.1964,10.1864,10.1307,10.0599,9.964,9.9106,9.8198,9.6955,9.6517,9.636,9.6293,9.6117,9.5931,9.5776,9.5249,9.4662,9.4058,9.3203,9.2397,9.1353,9.0738,9.0184,8.9653,8.941,8.9318,8.9267,8.8872,8.8224,10.0177,10.0126,9.9407,9.9115,9.9014,9.8353,9.8027,9.789,0.0,0.0,0.0,9.5375,9.5382,9.5538,9.5358,9.5481,9.5757,9.5758,9.5839,9.6037,9.6085,9.6088,9.6127,9.6758,9.7108,9.7107,9.7845,9.8228,9.8409,9.9111,9.9611,9.995,10.0613,10.1401,10.2272,10.2937,10.1877,9.9208,9.9415,9.9234,9.8553,9.9241,9.9265,9.8626,9.8467,9.8398,9.8397,9.8231,9.814,9.8138,9.8294,9.836,9.8366,9.8478,9.8527,9.8406,9.8396,9.8754,9.9566,10.0263,10.101,10.1803,10.3164,10.3019,10.0743,10.0694,10.1385,10.277,10.2915,10.3182,10.3877,10.3865,10.4032,10.4731,10.4751,10.4372,10.3713,10.3636,10.3209,10.2483,10.2237,10.2191,10.1962,10.1955,10.1986,10.1958,10.1889,10.1801,10.1697,10.1726,10.1131,9.9528,9.9054,9.8468,9.6856,9.6229,9.6117,9.6039,9.5828,9.5659,9.5504,9.5391,9.4972,9.4223,9.3908,9.3061,9.1672,9.1054,9.0612,8.978,8.9514,8.9373,8.9359,8.92,8.8801,10.0141,10.0116,9.9929,9.9856,9.9821,9.9704,9.9682,9.9542,9.7934,9.7268,9.7224,9.6443,9.6563,9.7229,9.6451,9.6932,9.832,9.8375,9.8783,9.954,9.9591,9.9595,9.9595,9.9676,9.9762,9.9765,9.9882,10.0348,10.1001,10.1155,10.1935,10.3222,10.3495,10.4004,10.4825,10.4983,10.4786,10.4316,10.2945,10.2209,10.2051,10.2191,10.2219,10.2053,10.1406,10.105,10.1043,10.0356,9.99,9.9881,10.0541,10.0958,10.0888,10.1546,10.1945,10.1911,10.1899,10.2214,10.3019,10.3209,10.3553,10.4221,10.452,10.4255,10.3379,10.3849,10.4266,10.4487,10.4433,10.4409,10.4557,10.4608,10.4671,10.4749,10.4728,10.4637,10.4506,10.4467,10.4107,10.3104,10.2965,10.26,10.1915,10.1727,10.1688,10.1654,10.162,10.1559,10.1432,10.1523,10.0899,9.9423,9.8871,9.8086,9.6655,9.602,9.588,9.5708,9.5643,9.5459,9.5179,9.5094,9.4945,9.4718,9.4162,9.3353,9.2292,9.1433,9.0751,8.9969,8.9615,8.9487,8.9449,8.9384,8.9056,10.1387,10.1326,10.0795,10.0595,10.0572,10.0105,9.9915,9.989,9.9171,9.8845,9.8813,9.846,9.852,9.8835,9.8558,9.8854,9.9609,9.9622,9.9829,10.027,10.072,10.0968,10.1056,10.1922,10.2365,10.2377,10.2846,10.3279,10.3632,10.3632,10.4062,10.4802,10.527,10.5934,10.6755,10.7262,10.7731,10.8083,10.5562,10.4219,10.4228,10.4202,10.4212,10.4218,10.386,10.3648,10.3672,10.3255,10.2992,10.2964,10.3337,10.3505,10.3471,10.38,10.3996,10.3893,10.3884,10.4231,10.5016,10.5414,10.5774,10.6097,10.6097,10.5961,10.5676,10.5502,10.5625,10.6058,10.6063,10.6074,10.6039,10.6035,10.5998,10.5914,10.5868,10.5627,10.52,10.5075,10.4695,10.3808,10.325,10.2838,10.2366,10.1894,10.1532,10.145,10.1347,10.123,10.1167,10.12,10.0827,9.9586,9.896,9.8053,9.6748,9.6034,9.5703,9.544,9.531,9.5203,9.5008,9.4946,9.487,9.4819,9.4465,9.3972,9.3163,9.2708,9.1875,9.0714,9.0373,9.0171,8.9793,8.9604,8.9251,10.2426,10.2377,10.1623,10.134,10.1262,10.0601,10.0357,10.0395,10.0628,10.0706,10.0649,10.0219,9.9963,10.0006,10.0101,10.0327,10.0684,10.0723,10.0928,10.1372,10.202,10.2317,10.2458,10.3765,10.4367,10.446,10.5048,10.5485,10.5651,10.5885,10.6162,10.6558,10.7222,10.7887,10.855,10.9215,10.9879,11.0309,10.789,10.6561,10.6562,10.6523,10.6558,10.6549,10.6568,10.6542,10.6519,10.6456,10.6422,10.6416,10.6349,10.6354,10.6347,10.6264,10.6172,10.6121,10.6105,10.6243,10.6602,10.7149,10.7382,10.7174,10.7159,10.7137,10.7044,10.6487,10.6385,10.7043,10.7059,10.7075,10.7021,10.7006,10.6973,10.6868,10.6791,10.6459,10.5809,10.5675,10.5348,10.449,10.3768,10.3364,10.3038,10.247,10.1953,10.1604,10.1221,10.1011,10.0979,10.0968,10.065,9.9983,9.9179,9.8216,9.705,9.6257,9.5696,9.5293,9.5082,9.5008,9.4946,9.4857,9.4819,9.4806,9.4806,9.4389,9.3783,9.3555,9.2898,9.1673,9.1319,9.1104,9.0334,9.0144,8.9767,10.2234,10.2222,10.2113,10.2002,10.2048,10.1925,10.1892,10.2015,10.2707,10.3049,10.2824,10.0861,10.0018,9.9901,10.0032,10.0881,10.224,10.2279,10.3099,10.4485,10.4807,10.4906,10.4856,10.5138,10.5194,10.5256,10.5412,10.6012,10.6656,10.7321,10.8455,10.9865,11.0138,11.0099,11.0255,11.0333,11.0411,11.0489,11.0181,11.0042,11.0023,11.0013,11.0037,11.0019,10.9993,11.0001,10.9735,10.9897,10.9807,10.9766,10.9636,10.9685,10.963,10.9572,10.9515,10.9455,10.9352,10.9085,10.8356,10.8334,10.8019,10.7215,10.7021,10.691,10.6873,10.6709,10.6731,10.7005,10.6948,10.6873,10.6847,10.6786,10.6742,10.6723,10.6705,10.6648,10.6553,10.6562,10.6216,10.5284,10.4879,10.4597,10.3785,10.3346,10.2905,10.2089,10.1498,10.1012,10.082,10.0787,10.0719,10.0301,9.9755,9.8632,9.7283,9.6593,9.6067,9.5311,9.5046,9.4984,9.4908,9.4832,9.4806,9.4806,9.4806,9.4503,9.401,9.3593,9.3315,9.2519,9.2102,9.1913,9.1192,9.0965,9.0637,10.2772,10.2768,10.3242,10.3489,10.3526,10.3526,10.3555,10.3674,10.3984,10.4171,10.4069,10.3128,10.2748,10.2823,10.2892,10.3326,10.3968,10.3968,10.4381,10.5118,10.5585,10.5884,10.6038,10.7012,10.7422,10.7537,10.8008,10.8444,10.8805,10.916,10.9709,11.0294,11.0372,11.0606,11.1035,11.1117,11.1312,11.1854,11.1872,11.1876,11.1751,11.0935,11.0425,11.0376,11.0397,11.0329,11.0294,11.023,11.0176,11.0115,11.0072,11.0026,10.9999,10.989,10.9882,10.9886,10.9737,10.95,10.912,10.9064,10.8611,10.7706,10.7594,10.7357,10.678,10.6735,10.6771,10.6812,10.6777,10.6733,10.6733,10.6705,10.6659,10.6603,10.6594,10.6565,10.6536,10.6438,10.6223,10.5836,10.5319,10.4812,10.4363,10.3766,10.3086,10.2297,10.1766,10.1392,10.0838,10.0615,10.0521,10.0387,9.9997,9.9289,9.8135,9.7401,9.673,9.5983,9.5629,9.5514,9.4971,9.4806,9.4806,9.4806,9.4844,9.4768,9.4465,9.4275,9.4086,9.3315,9.2519,9.2178,9.1875,9.1799,9.1609,10.342,10.348,10.406,10.4363,10.4381,10.4381,10.4466,10.462,10.4814,10.4983,10.4998,10.5485,10.575,10.5703,10.5237,10.5011,10.5244,10.5477,10.5761,10.6044,10.686,10.7277,10.7485,10.8541,10.9184,10.933,10.9802,11.0269,11.0503,11.0542,11.0659,11.0853,11.0892,11.1209,11.1715,11.1793,11.2104,11.2649,11.2726,11.27,11.251,11.1549,11.0957,11.0916,11.0916,11.0883,11.0782,11.0777,11.0766,11.0653,11.064,11.0594,11.05,11.0467,11.0445,11.0399,11.0297,11.0107,10.9789,10.9719,10.9299,10.8462,10.8318,10.7943,10.721,10.6998,10.6863,10.6632,10.6575,10.6555,10.6631,10.6613,10.6555,10.6419,10.6438,10.6397,10.6322,10.6188,10.6156,10.6068,10.5558,10.5074,10.4925,10.4232,10.3408,10.2938,10.2497,10.1941,10.1153,10.0879,10.0706,10.0403,10.0126,9.9656,9.8946,9.8262,9.7438,9.6765,9.6423,9.6246,9.5589,9.5513,9.5248,9.5551,9.5286,9.4945,9.4692,9.4654,9.473,9.4086,9.3391,9.286,9.2709,9.2671,9.2519,10.4063,10.4072,10.4102,10.4235,10.4158,10.4235,10.4288,10.4653,10.5263,10.5653,10.6006,10.7385,10.8207,10.799,10.5979,10.5207,10.599,10.678,10.7551,10.8304,10.9112,10.9611,10.9753,10.9831,10.9876,10.9894,11.0089,11.0471,11.1132,11.1164,11.1592,11.2336,11.2265,11.2375,11.2381,11.2381,11.2453,11.2498,11.2531,11.2492,11.2439,11.2322,11.2285,11.2326,11.2466,11.2329,11.2251,11.2263,11.2228,11.2149,11.2064,11.2095,11.2119,11.2042,11.189,11.1743,11.1707,11.1353,11.0574,11.0468,11.0073,10.9273,10.907,10.8674,10.7855,10.7698,10.7339,10.6569,10.6525,10.6518,10.6621,10.6543,10.6374,10.6242,10.622,10.6167,10.603,10.6057,10.5996,10.6012,10.5856,10.5663,10.5581,10.4895,10.4411,10.4028,10.3596,10.282,10.2058,10.1707,10.1241,10.0545,10.0138,9.9744,9.9009,9.8741,9.8244,9.7598,9.7257,9.7181,9.7206,9.7092,9.665,9.6309,9.612,9.5741,9.5058,9.4844,9.492,9.4692,9.4579,9.4187,9.3593,9.3555,9.3378,10.5158,10.562,10.5659,10.5696,10.579,10.5752,10.6117,10.6685,10.7003,10.7436,10.7974,10.8628,10.8916,10.8878,10.8015,10.7895,10.839,10.8715,10.9078,10.9371,10.9681,10.9812,10.9872,11.0338,11.0616,11.0687,11.1198,11.1586,11.1858,11.1897,11.2052,11.2292,11.2362,11.2362,11.2369,11.2369,11.2369,11.2369,11.2369,11.2348,11.2319,11.2326,11.2311,11.2228,11.2355,11.2384,11.2326,11.2326,11.232,11.2243,11.2157,11.21,11.2032,11.1984,11.1902,11.1837,11.1828,11.1664,11.1258,11.12,11.0823,10.9953,10.9724,10.9314,10.8562,10.8284,10.8064,10.7785,10.7686,10.7708,10.7521,10.6819,10.6134,10.6101,10.609,10.6068,10.6023,10.5967,10.5947,10.5936,10.5842,10.5734,10.566,10.5418,10.5024,10.4501,10.4157,10.3586,10.2775,10.2435,10.2004,10.1178,10.0767,10.0408,9.956,9.942,9.9114,9.8508,9.8091,9.7749,9.766,9.7547,9.713,9.7016,9.6902,9.6713,9.6158,9.5741,9.5703,9.5589,9.5437,9.4881,9.4427,9.4224,9.4071,10.5838,10.6338,10.6677,10.6891,10.6998,10.7297,10.776,10.8319,10.8357,10.8656,10.9176,10.9494,10.961,10.9687,10.9919,11.0164,11.0397,11.0181,11.0026,11.0064,11.0335,11.0452,11.0529,11.0985,11.1265,11.1334,11.1845,11.2155,11.2116,11.2155,11.2155,11.2155,11.2387,11.2542,11.2503,11.2542,11.2542,11.2503,11.2271,11.2155,11.2155,11.2155,11.2105,11.1972,11.2058,11.2155,11.2155,11.2155,11.213,11.2062,11.1972,11.1909,11.1875,11.1809,11.1751,11.1722,11.176,11.1711,11.1571,11.1529,11.1207,11.0632,11.0397,10.9972,10.9155,10.8972,10.8784,10.8581,10.8469,10.8446,10.8254,10.7388,10.661,10.6415,10.635,10.6212,10.5947,10.5866,10.5869,10.5845,10.5785,10.5686,10.5686,10.5686,10.5406,10.4883,10.4795,10.4402,10.3566,10.316,10.2751,10.1897,10.1573,10.1112,10.0492,10.0265,9.991,9.9303,9.8887,9.8494,9.8229,9.8077,9.7888,9.7774,9.766,9.7547,9.7281,9.6827,9.6599,9.6435,9.5902,9.5333,9.503,9.479,9.4496,10.6034,10.6298,10.7077,10.7527,10.7625,10.8325,10.8881,10.9068,10.9078,10.9185,10.9514,11.0112,11.042,11.0613,11.1114,11.1635,11.1414,11.0806,11.0526,11.0631,11.1317,11.1625,11.1635,11.1644,11.1722,11.1712,11.1799,11.1799,11.1828,11.1953,11.1982,11.2031,11.2754,11.3082,11.3025,11.3063,11.3044,11.2938,11.2455,11.205,11.1819,11.205,11.2089,11.1973,11.2031,11.204,11.1944,11.1877,11.1818,11.1809,11.1828,11.1771,11.1799,11.1732,11.1741,11.1612,11.1591,11.154,11.1472,11.1374,11.1291,11.1142,11.1078,11.0625,10.9961,10.9746,10.9504,10.8906,10.8693,10.8583,10.8609,10.8383,10.79,10.7232,10.7102,10.6787,10.6155,10.5762,10.5686,10.5736,10.5686,10.5686,10.5686,10.5686,10.5597,10.5559,10.5508,10.523,10.4329,10.4035,10.3575,10.2796,10.2356,10.2008,10.154,10.1085,10.0554,10.0099,9.9758,9.9417,9.9266,9.91,9.8849,9.8721,9.8516,9.8402,9.8034,9.7618,9.7326,9.7047,9.6415,9.5831,9.544,9.5134,9.4675,10.7212,10.771,10.8051,10.8189,10.8227,10.8541,10.8958,10.9557,10.9557,10.9925,11.0457,11.0776,11.0891,11.0929,11.1237,11.1314,11.1314,11.1017,11.1092,11.1375,11.1684,11.1799,11.1799,11.1809,11.1771,11.1771,11.1771,11.1809,11.1915,11.2349,11.2619,11.2774,11.3468,11.3854,11.3883,11.3893,11.3893,11.3854,11.3661,11.3545,11.3507,11.3507,11.3467,11.3407,11.3397,11.3366,11.3293,11.2348,11.1809,11.1799,11.1741,11.1632,11.1589,11.1515,11.1423,11.138,11.1302,11.1246,11.1239,11.1205,11.1182,11.112,11.1025,11.0838,11.0584,11.0446,11.0294,10.9988,10.9977,10.999,10.9977,10.9927,10.9302,10.804,10.7849,10.776,10.7303,10.6832,10.6297,10.58,10.5686,10.5686,10.5686,10.5686,10.5673,10.5661,10.565,10.532,10.4988,10.4705,10.4315,10.3457,10.3235,10.2904,10.2298,10.1919,10.1616,10.0933,10.0441,10.0099,10.0024,9.9758,9.9607,9.9439,9.927,9.904,9.8709,9.8431,9.8049,9.7667,9.7144,9.6512,9.587,9.5361,9.4924,10.7916,10.8413,10.8767,10.8906,10.8956,10.9298,10.9781,11.0229,11.0279,11.0625,11.1008,11.1085,11.1085,11.1085,11.1085,11.1085,11.1085,11.1085,11.1246,11.1498,11.1529,11.1529,11.1617,11.1928,11.2316,11.2577,11.2616,11.2616,11.2654,11.3117,11.3387,11.3502,11.4193,11.4596,11.4596,11.4554,11.4532,11.4494,11.4175,11.4032,11.4032,11.4032,11.3999,11.3896,11.3923,11.389,11.3784,11.2956,11.232,11.2033,11.168,11.1429,11.1352,11.1285,11.1239,11.1189,11.1143,11.1085,11.1085,11.1088,11.1013,11.0989,11.0892,11.0818,11.0805,11.0729,11.0704,11.0691,11.0666,11.0691,11.0666,11.0691,11.0169,10.9277,10.8819,10.8551,10.8207,10.7405,10.6755,10.6259,10.5903,10.5711,10.5686,10.5686,10.5649,10.5611,10.5574,10.5395,10.5213,10.5016,10.4537,10.4211,10.4055,10.36,10.298,10.2715,10.2601,10.1881,10.1123,10.0744,10.0478,10.001,9.9707,9.9545,9.94,9.9316,9.9023,9.8881,9.8612,9.8215,9.7818,9.7313,9.6696,9.5705,9.5167,10.8284,10.8449,10.93,10.9655,10.9782,11.0542,11.0872,11.1011,11.1011,11.0999,11.1037,11.1025,11.1037,11.1049,11.1025,11.1025,11.1088,11.1217,11.1267,11.1315,11.1403,11.1503,11.1677,11.2306,11.2999,11.3643,11.3769,11.3846,11.3692,11.3923,11.4038,11.4104,11.4756,11.5148,11.516,11.5018,11.5006,11.4915,11.4277,11.397,11.3932,11.3882,11.392,11.392,11.3958,11.3958,11.4009,11.374,11.3238,11.2502,11.1688,11.1285,11.1135,11.1085,11.1073,11.1073,11.1061,11.1037,11.1064,11.0979,11.088,11.0867,11.078,11.0691,11.0704,11.0704,11.0691,11.0691,11.0691,11.0691,11.0691,11.0691,11.0614,11.0589,10.9889,10.9201,10.836,10.7596,10.7214,10.6794,10.622,10.5724,10.5762,10.5686,10.5624,10.5536,10.5473,10.5292,10.5119,10.501,10.4902,10.4756,10.4586,10.4278,10.362,10.3553,10.3426,10.2961,10.2044,10.1353,10.0761,10.0117,9.9725,9.9599,9.9485,9.9413,9.9318,9.9085,9.9018,9.8786,9.8455,9.8072,9.7387,9.641,9.5591,10.9468,11.0054,11.0309,11.0398,11.0449,11.0716,11.0805,11.0805,11.0805,11.0818,11.0805,11.0805,11.0818,11.0805,11.0818,11.0805,11.1009,11.1494,11.1749,11.1863,11.2399,11.2754,11.2927,11.3141,11.3457,11.3761,11.3888,11.3672,11.3749,11.4425,11.4682,11.472,11.5375,11.5812,11.5838,11.5763,11.5801,11.5789,11.5597,11.5367,11.5355,11.5329,11.5444,11.5456,11.5367,11.5367,11.5367,11.4744,11.3722,11.2489,11.217,11.1686,11.1214,11.1066,11.1018,11.0929,11.0855,11.0805,11.0805,11.078,11.0755,11.0755,11.0729,11.0704,11.0691,11.0691,11.0691,11.0691,11.0691,11.0691,11.0691,11.0691,11.0691,11.0691,11.0398,10.9952,10.9277,10.8895,10.8322,10.7176,10.6717,10.6272,10.5814,10.5649,10.5599,10.5485,10.5369,10.5226,10.5013,10.4926,10.4856,10.4842,10.4709,10.4614,10.4457,10.4352,10.4204,10.3882,10.3036,10.1999,10.1106,10.0086,9.9703,9.9442,9.9311,9.9223,9.9126,9.899,9.9066,9.9103,9.887,9.8448,9.7929,9.717,9.6396,11.0088,11.0521,11.0521,11.0548,11.06,11.06,11.0639,11.0691,11.0691,11.0691,11.0691,11.0691,11.0691,11.0691,11.0704,11.0933,11.1302,11.1761,11.2143,11.264,11.3379,11.3801,11.3991,11.4067,11.4245,11.4651,11.4639,11.4689,11.4766,11.5175,11.5379,11.5456,11.5816,11.6021,11.5982,11.5958,11.5932,11.5932,11.5932,11.5932,11.5932,11.5932,11.5894,11.5932,11.5932,11.5932,11.5843,11.5396,11.4477,11.3469,11.2869,11.2295,11.1567,11.1429,11.1188,11.0882,11.0742,11.0704,11.0691,11.0691,11.0691,11.0704,11.0691,11.0691,11.0691,11.0691,11.0691,11.0691,11.0691,11.0691,11.0678,11.0652,11.0613,11.0587,11.0548,11.037,10.9939,10.9519,10.8742,10.7699,10.6974,10.6439,10.5625,10.5511,10.5447,10.5343,10.5199,10.5078,10.4902,10.4856,10.4771,10.4756,10.4699,10.4574,10.4447,10.4365,10.4297,10.4086,10.3557,10.2584,10.1407,10.0252,9.9779,9.9493,9.9209,9.9043,9.9012,9.8982,9.8966,9.8951,9.8905,9.8776,9.8341,9.7891,9.7102,11.0288,11.0288,11.0288,11.0371,11.0493,11.0493,11.0559,11.0626,11.0626,11.0626,11.0665,11.0754,11.0881,11.0767,11.1097,11.1365,11.2091,11.232,11.2894,11.3543,11.4244,11.4667,11.4758,11.4822,11.5128,11.5663,11.602,11.5893,11.5753,11.5918,11.6008,11.5893,11.5881,11.5894,11.5868,11.5776,11.571,11.5723,11.575,11.575,11.575,11.575,11.575,11.575,11.575,11.5736,11.5736,11.5595,11.5264,11.464,11.3786,11.301,11.227,11.2105,11.1659,11.1048,11.0818,11.0691,11.0691,11.0691,11.0691,11.0691,11.0691,11.0691,11.0691,11.0691,11.0691,11.0691,11.0691,11.0639,11.06,11.0521,11.0468,11.0441,11.0384,11.0452,11.0433,10.9848,10.9019,10.818,10.7261,10.6318,10.562,10.5226,10.5161,10.5173,10.5078,10.4972,10.4846,10.4785,10.4699,10.4626,10.4567,10.4478,10.4388,10.4259,10.4228,10.4076,10.3643,10.28,10.1732,10.0715,10.0014,9.9577,9.9275,9.9079,9.8935,9.8905,9.8889,9.8889,9.8889,9.8889,9.8776,9.8379,9.7741,11.0288,11.0288,11.0288,11.0315,11.0343,11.0343,11.0371,11.0436,11.0436,11.0488,11.0588,11.1084,11.1312,11.1388,11.1936,11.2479,11.2749,11.3342,11.4238,11.5123,11.5314,11.5442,11.5469,11.5431,11.5572,11.5802,11.5789,11.5789,11.5802,11.5802,11.5789,11.5776,11.575,11.5736,11.5723,11.5683,11.5696,11.5696,11.5683,11.5683,11.5683,11.5696,11.5696,11.5683,11.5683,11.5683,11.5696,11.5696,11.562,11.5276,11.4665,11.3811,11.306,11.2372,11.1914,11.157,11.0997,11.0691,11.0691,11.0691,11.0691,11.0691,11.0691,11.0691,11.0691,11.0691,11.0691,11.0678,11.06,11.0508,11.0439,11.0371,11.0343,11.0329,11.0301,11.0301,11.0332,11.018,10.962,10.8806,10.8031,10.718,10.6292,10.5542,10.5298,10.5089,10.4996,10.4954,10.4842,10.4728,10.4626,10.4538,10.4418,10.4327,10.4204,10.4126,10.4095,10.4026,10.3684,10.3373,10.2254,10.1201,10.0531,9.9921,9.9349,9.9167,9.9002,9.8889,9.8889,9.8889,9.8889,9.8889,9.8852,9.8604,9.8454,11.0887,11.1229,11.1229,11.1273,11.1292,11.095,11.103,11.1315,11.1011,11.1087,11.1505,11.1962,11.2114,11.2114,11.2609,11.2966,11.3513,11.4307,11.4964,11.5401,11.5477,11.5491,11.5491,11.5519,11.5547,11.5656,11.5696,11.5696,11.5683,11.5629,11.5602,11.5588,11.5533,11.5529,11.5491,11.5543,11.5515,11.5543,11.5599,11.5602,11.5602,11.5669,11.5642,11.5626,11.5533,11.5529,11.5477,11.5529,11.5533,11.546,11.5182,11.4598,11.3849,11.3022,11.2449,11.1914,11.1188,11.0729,11.0691,11.0691,11.0691,11.0691,11.0691,11.0691,11.0691,11.0691,11.0652,11.06,11.0559,11.0466,11.0315,11.018,11.0165,11.0137,11.008,11.0089,11.0089,11.0109,10.9847,10.9073,10.8446,10.7506,10.6633,10.6028,10.5379,10.514,10.495,10.4908,10.4828,10.4699,10.4553,10.4433,10.4297,10.4158,10.4016,10.3936,10.392,10.3904,10.3776,10.3631,10.3121,10.2106,10.1098,10.0444,9.9806,9.928,9.9114,9.9002,9.8927,9.8889,9.8889,9.8889,9.8852,9.8739,9.8664,11.1697,11.2304,11.2304,11.2342,11.2348,11.1755,11.1889,11.2485,11.1967,11.19,11.2652,11.2804,11.2874,11.2941,11.3132,11.3541,11.414,11.4749,11.5249,11.5345,11.5345,11.5345,11.5331,11.536,11.5431,11.5653,11.5602,11.5602,11.5574,11.5519,11.5487,11.5459,11.5374,11.5345,11.5316,11.5302,11.5331,11.536,11.5431,11.5487,11.5449,11.5547,11.5533,11.5487,11.5403,11.5345,11.5345,11.5345,11.536,11.5473,11.5487,11.5176,11.4609,11.3862,11.3022,11.2257,11.1493,11.0958,11.0729,11.0691,11.0691,11.0691,11.0691,11.0691,11.0691,11.0665,11.06,11.0508,11.0428,11.0319,11.0246,11.008,11.0008,10.9941,10.9877,10.9817,10.9817,10.9883,10.9614,10.9196,10.8698,10.7933,10.7222,10.6539,10.5851,10.5254,10.5065,10.4899,10.487,10.4693,10.4569,10.4327,10.4173,10.4048,10.392,10.3872,10.384,10.384,10.3786,10.3748,10.3711,10.3073,10.2059,10.1045,10.0369,9.9843,9.9318,9.9092,9.9002,9.8964,9.8889,9.8889,9.8889,9.8889,9.8852,11.219,11.2304,11.2304,11.2319,11.235,11.2198,11.2304,11.2342,11.2334,11.2228,11.2509,11.3154,11.3472,11.3624,11.4216,11.458,11.4762,11.4982,11.5155,11.5244,11.5258,11.5244,11.5244,11.5229,11.5302,11.5345,11.5374,11.5374,11.5388,11.5345,11.5331,11.5316,11.5273,11.5258,11.5258,11.5288,11.5244,11.5229,11.5302,11.5331,11.5345,11.536,11.5374,11.5316,11.5273,11.5258,11.5258,11.5273,11.5302,11.5331,11.5331,11.5269,11.505,11.453,11.3861,11.2982,11.2091,11.1327,11.0907,11.0716,11.0691,11.0691,11.0691,11.0691,11.0678,11.06,11.0546,11.0414,11.025,11.0028,10.9891,10.9877,10.9847,10.9832,10.9832,10.9802,10.9802,10.9794,10.9824,10.9483,10.8983,10.8514,10.7869,10.7263,10.6694,10.6202,10.5898,10.5581,10.5348,10.4998,10.4599,10.4333,10.4048,10.3936,10.3786,10.3802,10.3824,10.3824,10.3786,10.3786,10.3748,10.3732,10.3073,10.2096,10.1082,10.0294,9.9843,9.9355,9.9055,9.8964,9.8927,9.8927,9.8889,9.8889,9.8889,11.3214,11.3593,11.3593,11.3593,11.3517,11.3138,11.3214,11.3479,11.3176,11.3214,11.3593,11.4009,11.4199,11.4313,11.454,11.483,11.4876,11.4891,11.4975,11.5051,11.5051,11.5051,11.5066,11.5066,11.5051,11.5051,11.5051,11.5155,11.5258,11.52,11.5132,11.5141,11.5096,11.5051,11.5051,11.5036,11.5051,11.5066,11.5126,11.517,11.517,11.5132,11.517,11.5117,11.5058,11.5051,11.5051,11.5051,11.5081,11.5103,11.517,11.5176,11.5188,11.5022,11.4524,11.3595,11.2503,11.1612,11.1105,11.0878,11.0587,11.06,11.0639,11.0691,11.0665,11.0574,11.0414,11.025,11.008,10.9891,10.9817,10.9802,10.9802,10.9802,10.9802,10.9802,10.9802,10.9802,10.9802,10.9802,10.9499,10.9044,10.8552,10.8021,10.7566,10.7149,10.677,10.6348,10.5873,10.5513,10.5133,10.4691,10.4436,10.4092,10.3936,10.3861,10.3824,10.3786,10.3786,10.3786,10.3786,10.3786,10.3711,10.3223,10.2171,10.1158,10.0256,9.9806,9.9393,9.9055,9.9002,9.9002,9.8927,9.8889,9.8889,11.4199,11.4805,11.4805,11.4805,11.4692,11.4123,11.4177,11.4578,11.4085,11.4161,11.473,11.4768,11.4768,11.4768,11.4768,11.4821,11.4805,11.4821,11.4837,11.4837,11.4852,11.4821,11.4821,11.4805,11.4837,11.4868,11.4868,11.4945,11.5096,11.5028,11.4968,11.4937,11.4868,11.4805,11.4837,11.4868,11.4821,11.4852,11.4891,11.4968,11.4968,11.4968,11.4968,11.4968,11.4845,11.4821,11.4852,11.4852,11.4861,11.4937,11.4983,11.5028,11.517,11.52,11.4857,11.4059,11.2771,11.2038,11.1395,11.1084,11.0733,11.0517,11.0548,11.0587,11.0561,11.0428,11.0277,10.9999,10.9891,10.9817,10.9802,10.9802,10.9802,10.9802,10.9802,10.9802,10.9802,10.9802,10.9802,10.9802,10.9802,10.9575,10.9082,10.8878,10.8461,10.7842,10.7463,10.6995,10.6579,10.6411,10.5998,10.5403,10.4898,10.4436,10.4161,10.392,10.3861,10.3786,10.3786,10.3786,10.3786,10.3786,10.3711,10.3636,10.3335,10.2284,10.127,10.0331,10.0031,9.9731,9.9355,9.9092,9.8964,9.8927,9.8889,11.473,11.4805,11.4805,11.4805,11.4768,11.4669,11.4692,11.4768,11.4654,11.4692,11.4805,11.4805,11.4805,11.4805,11.4805,11.4805,11.4805,11.4805,11.4805,11.4805,11.4805,11.4805,11.4805,11.4805,11.4805,11.4805,11.4805,11.4821,11.4898,11.4883,11.4852,11.4837,11.4837,11.4805,11.4805,11.4805,11.4805,11.4821,11.4837,11.4852,11.4852,11.4852,11.4852,11.4814,11.4821,11.4805,11.4805,11.4805,11.4837,11.4837,11.4852,11.4852,11.4868,11.4868,11.483,11.458,11.3994,11.308,11.1896,11.1467,11.1039,11.0672,11.0485,11.0395,11.0305,11.0222,11.0066,10.9862,10.9802,10.9802,10.9802,10.9802,10.9802,10.9802,10.9802,10.9802,10.9802,10.9802,10.9802,10.9802,10.9802,10.9802,10.9575,10.9469,10.9341,10.8682,10.8084,10.7668,10.7279,10.7084,10.6881,10.6246,10.5541,10.5004,10.4537,10.4274,10.3995,10.3899,10.3824,10.3824,10.3786,10.3786,10.3786,10.3711,10.3523,10.3335,10.2397,10.1571,10.0932,10.0444,10.0106,9.9543,9.9017,9.9002,9.9265,11.4632,11.4805,11.4805,11.4805,11.4805,11.4805,11.4805,11.4805,11.4805,11.4805,11.4805,11.4805,11.4805,11.4805,11.4805,11.4805,11.4805,11.4805,11.4805,11.4805,11.4805,11.4805,11.4805,11.4805,11.4805,11.4805,11.4805,11.4805,11.4805,11.4805,11.4805,11.4805,11.4805,11.4805,11.4805,11.4805,11.4805,11.4821,11.4821,11.4821,11.4805,11.4805,11.4805,11.4805,11.4805,11.4805,11.4805,11.4805,11.4805,11.4805,11.4805,11.4805,11.4821,11.4821,11.4821,11.4745,11.4588,11.3866,11.2894,11.2322,11.1681,11.1116,11.0864,11.0768,11.0303,11.0028,10.9927,10.9817,10.9802,10.9802,10.9802,10.9802,10.9802,10.9802,10.9802,10.9802,10.9802,10.9802,10.9802,10.9802,10.9802,10.9802,10.9772,10.9636,10.9515,10.9212,10.8786,10.8509,10.8027,10.766,10.7411,10.7103,10.6356,10.5626,10.5138,10.4762,10.4312,10.4086,10.3807,10.3807,10.3824,10.3786,10.3786,10.3786,10.3711,10.3448,10.3185,10.2622,10.1796,10.1308,10.0857,10.0407,10.0069,10.0278,10.0353,11.4454,11.4679,11.4679,11.4679,11.4679,11.4642,11.4679,11.4679,11.4679,11.4679,11.4657,11.4689,11.4721,11.4805,11.4805,11.4805,11.4805,11.4805,11.4805,11.4805,11.4805,11.4805,11.4805,11.4805,11.4805,11.4805,11.4805,11.4805,11.4805,11.4805,11.4805,11.4805,11.4805,11.4805,11.4805,11.4805,11.4805,11.4805,11.4805,11.4805,11.4805,11.4805,11.4805,11.4805,11.4805,11.4805,11.4805,11.4805,11.4805,11.4805,11.4805,11.4805,11.4805,11.4805,11.4805,11.4821,11.4738,11.4511,11.3783,11.3184,11.2394,11.1831,11.1267,11.0864,11.0122,10.9941,10.9912,10.9802,10.9802,10.9802,10.9802,10.9802,10.9802,10.9802,10.9802,10.9802,10.9802,10.9802,10.9802,10.9802,10.9802,10.9802,10.9742,10.9689,10.9575,10.9535,10.9371,10.9211,10.8763,10.8222,10.8042,10.7766,10.7182,10.649,10.6114,10.5551,10.4988,10.4312,10.4033,10.3807,10.3807,10.3824,10.3786,10.3786,10.3786,10.3711,10.3486,10.311,10.2697,10.2134,10.1646,10.1495,10.1383,10.1533,10.1329,11.4305,11.4322,11.4338,11.4338,11.4355,11.4322,11.4338,11.4371,11.4355,11.4371,11.4404,11.4503,11.461,11.4743,11.4758,11.4774,11.4805,11.4805,11.4805,11.4805,11.4805,11.4805,11.4805,11.4805,11.4805,11.4805,11.4805,11.4805,11.4805,11.4805,11.4805,11.4805,11.4805,11.4805,11.4805,11.4805,11.4805,11.4805,11.4805,11.4805,11.4805,11.4805,11.4805,11.4805,11.4805,11.4805,11.4805,11.4805,11.4805,11.4805,11.4805,11.4805,11.4805,11.4805,11.4805,11.4805,11.4805,11.4692,11.4382,11.3889,11.3115,11.2334,11.1553,11.0878,11.0203,10.9908,10.9802,10.9802,10.9802,10.9802,10.9802,10.9802,10.9802,10.9802,10.9802,10.9802,10.9802,10.9802,10.9802,10.9802,10.9802,10.9802,10.9787,10.9735,10.9613,10.9551,10.9324,10.9125,10.8998,10.8585,10.8626,10.8405,10.7933,10.7483,10.722,10.6581,10.5663,10.4875,10.4424,10.4086,10.3807,10.3807,10.3824,10.3786,10.3786,10.3786,10.3786,10.3448,10.3148,10.2735,10.2434,10.2359,10.2171,10.2134,10.1855,11.3965,11.3927,11.391,11.4086,11.4288,11.4288,11.4288,11.4288,11.4288,11.4288,11.4288,11.4371,11.4437,11.4486,11.4465,11.453,11.4594,11.461,11.4673,11.479,11.4805,11.4805,11.4805,11.4805,11.4805,11.4805,11.4805,11.4805,11.4805,11.4805,11.4805,11.4805,11.4805,11.4805,11.4805,11.4805,11.4805,11.4805,11.4805,11.4805,11.4805,11.4805,11.4805,11.4805,11.4805,11.4805,11.4805,11.4805,11.4805,11.4805,11.4805,11.4805,11.4805,11.4805,11.4805,11.4805,11.4805,11.4805,11.4805,11.4426,11.3972,11.3024,11.1963,11.0939,11.0485,11.0143,10.9878,10.9802,10.9802,10.9802,10.9802,10.9802,10.9802,10.9802,10.9802,10.9802,10.9802,10.9802,10.9802,10.9802,10.9802,10.9802,10.9772,10.9757,10.9674,10.9551,10.9308,10.9076,10.8965,10.8831,10.8835,10.878,10.8329,10.8008,10.7708,10.7032,10.6243,10.5605,10.4875,10.4575,10.4258,10.3807,10.3807,10.3807,10.3824,10.3786,10.3786,10.3786,10.3598,10.3223,10.3185,10.3244,10.3019,10.2735,10.2509,11.3699,11.3699,11.3699,11.3858,11.412,11.4099,11.4137,11.4137,11.4082,11.4171,11.4221,11.4204,11.4255,11.4272,11.4305,11.4355,11.4416,11.4449,11.4562,11.4664,11.4689,11.4758,11.479,11.4805,11.4805,11.4805,11.4805,11.4805,11.4805,11.4805,11.4805,11.4805,11.4805,11.4805,11.4805,11.4805,11.4805,11.4805,11.4805,11.4805,11.4805,11.4805,11.4805,11.4805,11.4805,11.4805,11.4805,11.4805,11.4805,11.4805,11.4805,11.4805,11.4805,11.4805,11.4805,11.4805,11.4805,11.4805,11.4805,11.473,11.4426,11.3479,11.2342,11.1546,11.0977,11.0333,10.984,10.9802,10.9802,10.9802,10.9802,10.9802,10.9802,10.9802,10.9802,10.9802,10.9802,10.9802,10.9802,10.9802,10.9802,10.9802,10.9787,10.9772,10.9682,10.9528,10.9276,10.9076,10.8994,10.8898,10.8797,10.878,10.8705,10.8367,10.8029,10.7445,10.6882,10.6581,10.5926,10.5363,10.4971,10.4483,10.4199,10.4349,10.4237,10.3936,10.3824,10.3807,10.3824,10.3748,10.3711,10.362,10.3582,10.3298,10.326,11.3699,11.3699,11.3699,11.3717,11.3752,11.3717,11.3734,11.377,11.377,11.384,11.3979,11.4034,11.4103,11.4221,11.4204,11.42,11.4288,11.4305,11.4404,11.4497,11.4562,11.4626,11.4743,11.479,11.4805,11.4805,11.4805,11.4805,11.4805,11.4805,11.4805,11.4805,11.4805,11.4805,11.4805,11.4805,11.4805,11.4805,11.4805,11.4805,11.4805,11.4805,11.4805,11.4805,11.4805,11.4805,11.4805,11.4805,11.4805,11.4805,11.4805,11.4805,11.4805,11.4805,11.4805,11.4805,11.4805,11.4805,11.4805,11.4805,11.4426,11.382,11.2835,11.2076,11.1205,11.0447,10.9878,10.9878,10.9802,10.9802,10.9802,10.9802,10.9802,10.9802,10.9802,10.9802,10.9802,10.9802,10.9802,10.9802,10.9802,10.9802,10.9802,10.9772,10.9712,10.9544,10.9222,10.9076,10.9027,10.8932,10.8797,10.878,10.878,10.8667,10.8367,10.7971,10.7558,10.7295,10.6865,10.6227,10.5776,10.5325,10.5138,10.5042,10.4837,10.4612,10.4183,10.3807,10.3807,10.3786,10.3786,10.3748,10.3786,10.3748,10.3636,11.3699,11.3699,11.3699,11.3699,11.3699,11.3699,11.3699,11.3699,11.3699,11.3734,11.3787,11.3805,11.3823,11.3875,11.3965,11.3979,11.4103,11.412,11.4167,11.435,11.4432,11.453,11.4626,11.4743,11.4805,11.4805,11.4805,11.4805,11.4805,11.4805,11.4805,11.4805,11.4805,11.4805,11.4805,11.4805,11.4805,11.4805,11.4805,11.4805,11.4805,11.4805,11.4805,11.4805,11.4805,11.4805,11.4805,11.4805,11.4805,11.4805,11.4805,11.4805,11.4805,11.4805,11.4805,11.4805,11.4805,11.4805,11.4805,11.4768,11.4692,11.4199,11.3555,11.2683,11.1925,11.1167,11.0522,10.9954,10.984,10.9802,10.9802,10.9802,10.9802,10.9802,10.9802,10.9802,10.9802,10.9802,10.9802,10.9802,10.9802,10.9802,10.9802,10.9802,10.9742,10.9651,10.9403,10.926,10.9211,10.8965,10.878,10.878,10.878,10.878,10.863,10.8292,10.8008,10.7708,10.737,10.694,10.649,10.6189,10.6001,10.5889,10.5626,10.5325,10.4762,10.4237,10.3899,10.3786,10.3786,10.3786,10.3786,10.3786,10.3748,11.3699,11.3699,11.3699,11.3699,11.3699,11.3699,11.3699,11.3699,11.3699,11.3699,11.3699,11.3699,11.3717,11.3717,11.3717,11.3734,11.3875,11.3893,11.4017,11.4204,11.4267,11.44,11.4513,11.4626,11.4743,11.479,11.4805,11.4805,11.4805,11.4805,11.4805,11.4805,11.4805,11.4805,11.4805,11.4805,11.4805,11.4805,11.4805,11.4805,11.4805,11.4805,11.4805,11.4805,11.4805,11.4805,11.4805,11.4805,11.4805,11.4805,11.4805,11.4805,11.4805,11.4805,11.4805,11.4805,11.4805,11.4805,11.4805,11.4805,11.4768,11.4692,11.4047,11.3214,11.238,11.147,11.0636,11.0106,10.9878,10.9802,10.9802,10.9802,10.9802,10.9802,10.9802,10.9802,10.9802,10.9802,10.9802,10.9802,10.9802,10.9802,10.9802,10.9802,10.9772,10.9682,10.9575,10.945,10.9308,10.9065,10.8814,10.878,10.878,10.878,10.878,10.8705,10.8367,10.8067,10.7804,10.7578,10.7466,10.7203,10.6978,10.664,10.6227,10.5776,10.5175,10.4687,10.4312,10.3974,10.3786,10.3786,10.3786,10.3786,10.3786,11.3699,11.3699,11.3699,11.3699,11.3699,11.3699,11.3699,11.3699,11.3699,11.3699,11.3699,11.3699,11.3699,11.3699,11.3699,11.3717,11.3734,11.3734,11.3823,11.3982,11.4048,11.4234,11.4383,11.4497,11.4594,11.4705,11.479,11.4758,11.4805,11.4805,11.4805,11.4805,11.4805,11.4805,11.4805,11.4805,11.4805,11.4805,11.4805,11.4805,11.4805,11.4805,11.4805,11.4805,11.4805,11.4805,11.4805,11.4805,11.4805,11.4805,11.4805,11.4805,11.4805,11.4805,11.4805,11.4805,11.4805,11.4805,11.4805,11.4805,11.4805,11.473,11.4177,11.3289,11.2455,11.166,11.0939,11.0219,10.9802,10.9802,10.9802,10.9802,10.9802,10.9802,10.9802,10.9802,10.9802,10.9802,10.9802,10.9802,10.9802,10.9802,10.9802,10.9802,10.9787,10.9727,10.9621,10.9466,10.9324,10.9109,10.8932,10.878,10.878,10.878,10.878,10.878,10.8705,10.8367,10.848,10.8329,10.8254,10.8067,10.7804,10.7391,10.6827,10.6264,10.5663,10.5138,10.465,10.4312,10.3861,10.3786,10.3786,10.3786,10.3786,11.3699,11.3699,11.3699,11.3699,11.3699,11.3699,11.3699,11.3699,11.3699,11.3699,11.3699,11.3699,11.3699,11.3699,11.3699,11.3699,11.3699,11.3717,11.3734,11.3805,11.391,11.4031,11.415,11.4284,11.4432,11.453,11.4594,11.4642,11.479,11.4805,11.4805,11.4805,11.4805,11.4805,11.4805,11.4805,11.4805,11.4805,11.4805,11.4805,11.4805,11.4805,11.4805,11.4805,11.4805,11.4805,11.4805,11.4805,11.4805,11.4805,11.4805,11.4805,11.4805,11.4805,11.4805,11.4805,11.4805,11.4805,11.4805,11.4805,11.4805,11.4805,11.4502,11.363,11.2759,11.1925,11.1205,11.0522,10.9878,10.9802,10.9802,10.9802,10.9802,10.9802,10.9802,10.9802,10.9802,10.9802,10.9802,10.9802,10.9802,10.9802,10.9802,10.9802,10.9787,10.9757,10.9667,10.9497,10.9324,10.9109,10.8961,10.8831,10.878,10.878,10.878,10.878,10.878,10.8742,10.878,10.878,10.863,10.848,10.8442,10.8142,10.7578,10.6865,10.6152,10.5701,10.5325,10.4349,10.3845,10.3824,10.3786,10.3786,10.3786,11.3628,11.3699,11.3699,11.3699,11.3699,11.3699,11.3699,11.3699,11.3699,11.3699,11.3699,11.3699,11.3699,11.3699,11.3699,11.3699,11.3699,11.3699,11.3717,11.3752,11.3823,11.391,11.4014,11.4099,11.4288,11.435,11.4432,11.4535,11.4657,11.479,11.4805,11.4805,11.4805,11.4805,11.4805,11.4805,11.4805,11.4805,11.4805,11.4805,11.4805,11.4805,11.4805,11.4805,11.4805,11.4805,11.4805,11.4805,11.4805,11.4805,11.4805,11.4805,11.4805,11.4805,11.4805,11.4805,11.4805,11.4805,11.4805,11.4805,11.4805,11.4805,11.4768,11.382,11.2986,11.2152,11.1432,11.0712,11.0181,10.9802,10.9802,10.9802,10.9802,10.9802,10.9802,10.9802,10.9802,10.9802,10.9802,10.9802,10.9802,10.9802,10.9802,10.9802,10.9757,10.972,10.959,10.945,10.9238,10.9092,10.8928,10.8814,10.8835,10.878,10.878,10.878,10.878,10.878,10.878,10.878,10.878,10.8742,10.863,10.8517,10.8329,10.7616,10.6827,10.6527,10.6076,10.5025,10.4237,10.4199,10.4086,10.3786,10.3786,11.3501,11.3663,11.3699,11.3699,11.3699,11.3699,11.3699,11.3699,11.3699,11.3699,11.3699,11.3699,11.3699,11.3699,11.3699,11.3699,11.3699,11.3699,11.3699,11.3699,11.3734,11.3805,11.3893,11.3979,11.4065,11.4221,11.4305,11.435,11.453,11.4673,11.4805,11.4805,11.4805,11.4805,11.4805,11.4805,11.4805,11.4805,11.4805,11.4805,11.4805,11.4805,11.4805,11.4805,11.4805,11.4805,11.4805,11.4805,11.4805,11.4805,11.4805,11.4805,11.4805,11.4805,11.4805,11.4805,11.4805,11.4805,11.4805,11.4805,11.4805,11.4805,11.4768,11.4123,11.3403,11.2455,11.1735,11.0674,11.003,10.984,10.9802,10.9802,10.9802,10.9802,10.9802,10.9802,10.9802,10.9802,10.9802,10.9802,10.9802,10.9802,10.9802,10.9787,10.9742,10.9674,10.9497,10.9371,10.9211,10.9027,10.8986,10.8872,10.8797,10.878,10.878,10.878,10.878,10.878,10.878,10.878,10.878,10.878,10.878,10.8667,10.8555,10.8179,10.7616,10.722,10.6619,10.5701,10.5025,10.48,10.4499,10.4237,10.3861,11.33,11.3483,11.3645,11.3699,11.3699,11.3699,11.3699,11.3699,11.3699,11.3699,11.3699,11.3699,11.3699,11.3699,11.3699,11.3699,11.3699,11.3699,11.3699,11.3699,11.3699,11.3717,11.377,11.3805,11.393,11.4034,11.4137,11.4267,11.4497,11.4673,11.4805,11.4805,11.4805,11.4805,11.4805,11.4805,11.4805,11.4805,11.4805,11.4805,11.4805,11.4805,11.4805,11.4805,11.4805,11.4805,11.4805,11.4805,11.4805,11.4805,11.4805,11.4805,11.4805,11.4805,11.4805,11.4805,11.4805,11.4805,11.4805,11.4805,11.4805,11.4805,11.4768,11.4578,11.3972,11.2948,11.1849,11.075,10.9992,10.9878,10.9802,10.9802,10.9802,10.9802,10.9802,10.9802,10.9802,10.9802,10.9802,10.9802,10.9802,10.9802,10.9802,10.9757,10.9697,10.959,10.9435,10.9276,10.9151,10.8986,10.9124,10.9022,10.8818,10.878,10.878,10.878,10.878,10.878,10.878,10.878,10.878,10.878,10.878,10.878,10.8667,10.8329,10.8029,10.767,10.7032,10.6264,10.5964,10.5739,10.5476,10.5175,10.4499,11.2011,11.2252,11.2827,11.3327,11.3661,11.3699,11.3699,11.3699,11.3699,11.3699,11.3699,11.3699,11.3699,11.3699,11.3699,11.3699,11.3699,11.3699,11.3699,11.3699,11.3699,11.3699,11.3699,11.3717,11.384,11.3982,11.4184,11.4383,11.453,11.4673,11.4805,11.4805,11.4805,11.4805,11.4805,11.4805,11.4805,11.4805,11.4805,11.4805,11.4805,11.4805,11.4805,11.4805,11.4805,11.4805,11.4805,11.4805,11.4805,11.4805,11.4805,11.4805,11.4805,11.4805,11.4805,11.4805,11.4805,11.4805,11.4805,11.4805,11.4805,11.4805,11.4805,11.4654,11.3896,11.2872,11.2304,11.1243,11.0106,10.984,10.9802,10.9802,10.9802,10.9802,10.9802,10.9802,10.9802,10.9802,10.9802,10.9802,10.9802,10.9802,10.9802,10.9787,10.9697,10.9482,10.9324,10.9179,10.9036,10.9145,10.9227,10.9193,10.908,10.8855,10.878,10.878,10.878,10.878,10.878,10.878,10.878,10.878,10.878,10.878,10.878,10.863,10.8329,10.8083,10.7708,10.7107,10.6865,10.6715,10.6414,10.606,10.5368,11.0554,11.0815,11.1802,11.2713,11.3493,11.3661,11.3699,11.3699,11.3699,11.3699,11.3699,11.3699,11.3699,11.3699,11.3699,11.3699,11.3699,11.3699,11.3699,11.3699,11.3699,11.3699,11.3717,11.3752,11.3893,11.4099,11.4317,11.4416,11.4513,11.4673,11.4805,11.4805,11.4805,11.4805,11.4805,11.4805,11.4805,11.4805,11.4805,11.4805,11.4805,11.4805,11.4805,11.4805,11.4805,11.4805,11.4805,11.4805,11.4805,11.4805,11.4805,11.4805,11.4805,11.4805,11.4805,11.4805,11.4805,11.4805,11.4805,11.4805,11.4805,11.4805,11.4805,11.4464,11.3744,11.3176,11.2607,11.1849,11.075,10.9916,10.9878,10.9802,10.9802,10.984,10.984,10.984,10.984,10.984,10.9802,10.9802,10.9802,10.9802,10.9802,10.9802,10.9651,10.9419,10.9228,10.9065,10.9028,10.9428,10.9623,10.9569,10.9456,10.9231,10.9043,10.878,10.878,10.878,10.878,10.878,10.878,10.878,10.878,10.878,10.8742,10.8705,10.8705,10.8555,10.8179,10.7749,10.7766,10.7578,10.7261,10.6869,10.6235,11.0366,11.0796,11.1765,11.2395,11.2818,11.3381,11.3699,11.3699,11.3699,11.3699,11.3699,11.3699,11.3699,11.3699,11.3699,11.3699,11.3699,11.3699,11.3699,11.3699,11.3699,11.3699,11.3752,11.3858,11.4031,11.4234,11.4416,11.4497,11.4578,11.4705,11.4805,11.4805,11.4805,11.4805,11.4805,11.4805,11.4805,11.4805,11.4805,11.4805,11.4805,11.4805,11.4805,11.4805,11.4805,11.4805,11.4805,11.4805,11.4805,11.4805,11.4805,11.4805,11.4805,11.4805,11.4805,11.4805,11.4805,11.4805,11.4805,11.4805,11.4805,11.4805,11.4805,11.4768,11.4161,11.3706,11.3214,11.2835,11.166,11.0295,11.003,10.984,10.9802,10.9878,10.9878,10.9916,10.9916,10.9878,10.9802,10.9802,10.9802,10.9802,10.9802,10.9757,10.9667,10.9466,10.9308,10.9146,10.8974,10.947,10.9964,10.9889,10.9739,10.9852,10.9739,10.8968,10.878,10.878,10.878,10.878,10.878,10.878,10.878,10.878,10.8818,10.878,10.8818,10.8729,10.8599,10.8282,10.85,10.8442,10.8053,10.7572,10.6942]}]]